     2              OBSERVATION DATA    GPS                 RINEX VERSION / TYPE
ASRINEXO V2.2.0 UX USGS 28-MAR-94 15:17                     PGM / RUN BY / DATE
                                                            COMMENT
Original Marker Name: bars Barstow_2_1965_USC&GS            COMMENT
Campaign Name: gorlock willow tie                           COMMENT
4-Character Station Name: BARS                              COMMENT
6-Character Antenna Code: ASHP12                            COMMENT
Vertical Measurement Point: EGP                             COMMENT
Vertical Offset to Rinex Ref. Point: 0.0593                 COMMENT
Radial Measurement Point: EGP                               COMMENT
Radial Offset to Rinex Ref. Point: 0.1425                   COMMENT
Antenna Height from Field Measurement: 1.3220 m             COMMENT
Additional Antenna Identification Info.:                    COMMENT
Ashtech L1/L2 Revision B                                    COMMENT
Original XYZ: -2334053.1300 -4625340.2000 3709775.6700      COMMENT
New XYZ position is based on association with SCEC monument COMMENT
E1F2S0U5+0011. Position of that monument is believed to be  COMMENT
valid to within 1 m horizontally; vertical accuracy         COMMENT
should be no worse than 3-times this value.                 COMMENT
                                                            COMMENT
Revised Rinex header created by UCSD GPS archive for        COMMENT
GSAC on 26-May-2001 (2001:146) 19:05:20 GMT                 COMMENT
For assistance contact dagnew@ucsd.edu or hjohnson@ucsd.edu COMMENT
                                                            COMMENT
BARS BARSTOW_2_1965_USC&GS                                  MARKER NAME
                                                            MARKER NUMBER
WKG US GEOLOGICAL SURVEY                                    OBSERVER / AGENCY
831 ASHTECH L-XII 7A                                        REC # / TYPE / VERS
27 ASHTECH GEODETIC P                                       ANT # / TYPE
 -2367503.1890 -4658686.6561  3646884.2048                  APPROX POSITION XYZ
        1.2550        0.0000        0.0000                  ANTENNA: DELTA H/E/N
     1     2     0                                          WAVELENGTH FACT L1/2
     3    C1    L1    L2                                    # / TYPES OF OBSERV
    30                                                      INTERVAL
  1994     3    23    18    19    0.000000                  TIME OF FIRST OBS
  1994     3    23    23    59   60.000000                  TIME OF LAST OBS
                                                            END OF HEADER
 94  3 23 18 19  0.0000000  0  1 14
  24435735.672    11169080.84515    193066.023
 94  3 23 18 19 30.0000000  0  1 14
  24453032.798    11259979.385 5    263893.098 1
 94  3 23 18 20  0.0000000  0  3 22 19 14
  24385939.455    -3767024.37115    179625.976
  21537758.720     9758115.88618   -119870.402
  24470299.314    11350752.997 5    334625.621 2
 94  3 23 18 20 30.0000000  0  5 22 28 18 19 14
  24101635.265    -3685601.271 5    243072.502 1
  23355789.613    11722498.85115    -95479.752
  20190408.911     1426409.57019    -87356.821
  21227014.034     9700559.826 8   -164719.221 3
  24187785.574    11441536.660 5    405365.872 2
 94  3 23 18 21  0.0000000  0  8 31 22 29 28 18 19 27 14
  23161891.046   -12190238.45815   -215162.443 1
  24117168.352    -3603978.584 5    306674.479 1
  20920275.565    -5077556.85918     43467.042
  23345949.166    11670814.003 6   -135753.702 1
  20183765.780     1391493.840 9   -114562.205
  21216108.604     9643248.874 8   -209377.109 5
  23075441.724    14445087.90016   -212054.073
  24205078.443    11532406.902 5    476173.590 2
 94  3 23 18 21 30.0000000  0  8 31 22 29 28 18 19 27 14
  23143470.299   -12287058.633 6   -290606.656 1
  24132754.981    -3522107.666 5    370469.949 2
  20923999.557    -5057998.988 8     58702.455
  23336228.965    11619708.450 6   -175576.130 2
  20177227.366     1357129.865 9   -141339.350 1
  21205255.427     9586228.605 8   -253808.464 6
  23057871.068    14352743.737 6   -284012.312 1
  24222397.363    11623407.048 5    547082.516 2
 94  3 23 18 22  0.0000000  0  8 31 22 29 28 18 19 27 14
  23125126.928   -12383466.573 6   -365729.611 2
  24148381.094    -3439961.704 5    434479.658 2
  20927824.668    -5037896.844 8     74363.014 1
  23326617.319    11569209.852 6   -214925.627 2
  20170796.938     1323349.775 9   -167666.813 1
  21194468.805     9529535.307 8   -297985.069 6
  23040350.507    14260683.571 6   -355747.465 2
  24239745.903    11714555.369 5    618106.997 2
 94  3 23 18 22 30.0000000  0  8 31 22 29 28 18 19 27 14
  23106872.835   -12479381.416 6   -440468.331 2
  24164078.497    -3357479.584 5    498751.349 2
  20931767.179    -5017174.269 8     90510.253
  23317136.472    11519392.711 6   -253744.155 2
  20164489.454     1290220.157 9   -193485.095 1
  21183760.248     9473257.434 8   -341837.942 7
  23022894.192    14168960.147 6   -427220.298 2
  24257126.940    11805928.443 5    689306.582 2
 94  3 23 18 23  0.0000000  0  8 31 22 29 28 18 19 27 14
  23088718.663   -12574787.976 6   -514810.992 2
  24179843.653    -3274652.348 5    563291.952 2
  20935828.168    -4995822.582 8    107148.853
  23307793.590    11470265.370 6   -292025.177 2
  20158316.998     1257755.013 9   -218773.702 1
  21173133.625     9417422.766 9   -385345.448 7
  23005503.232    14077562.819 6   -498438.935 2
  24274560.022    11897545.777 5    760696.446 2
 94  3 23 18 23 30.0000000  0  8 31 22 29 28 18 19 27 14
  23070662.703   -12669645.358 6   -588725.736 2
  24195677.611    -3191433.921 5    628137.375 2
  20940021.035    -4973802.009 8    124307.068 4
  23298579.439    11421883.330 6   -329725.443 3
  20152274.741     1225991.611 9   -243522.312 1
  21162606.203     9362085.363 9   -428465.518 7
  22988178.975    13986522.793 6   -569379.193 3
  24292051.892    11989456.436 5    832314.875 2
 94  3 23 18 23 59.9990000  0  8 31 22 29 28 18 19 27 14
  23052728.578   -12763922.660 6   -662188.495 2
  24211592.333    -3107800.573 5    693306.161 2
  20944343.083    -4951082.282 8    142010.724 5
  23289523.338    11374290.919 6   -366810.371 3
  20146361.724     1194950.854 8   -267722.063 1
  21152174.804     9307280.896 8   -471170.297 7
  22970927.688    13895866.817 6   -640020.201 3
  24309599.315    12081684.220 5    904180.507 2
 94  3 23 18 24 29.9990000  0  8 31 22 29 28 18 19 27 14
  23034897.582   -12857595.395 6   -735180.153 2
  24227590.518    -3023712.693 5    758829.007 2
  20948806.153    -4927631.747 8    160283.846 6
  23280627.927    11327520.656 6   -403254.726 3
  20140602.831     1164666.744 9   -291311.378 1
  21141850.102     9253028.908 8   -513444.561 7
  22953752.098    13805624.250 6   -710339.028 3
  24327216.139    12174260.239 5    976317.373 2
 94  3 23 18 24 59.9990000  0  8 31 22 29 28 18 19 27 14
  23017196.936   -12950641.181 6   -807683.262 3
  24243684.486    -2939158.183 5    824715.593 2
  20953410.426    -4903424.908 8    179146.278 7
  23271889.006    11281591.951 6   -439043.284 3
  20134988.587     1135165.177 9   -314304.712 1
  21131633.385     9199331.559 8   -555286.659 7
  22936667.645    13715836.964 6   -780303.134 3
  24344902.395    12267179.987 5   1048722.082 2
 94  3 23 18 25 29.9990000  0  8 31 22 29 28 18 19 27 14
  22999611.320   -13043039.388 6   -879681.784 3
  24259857.660    -2854142.298 5    890961.576 2
  20958166.453    -4878432.156 8    198621.109 7
  23263309.156    11236530.356 6   -474156.210 3
  20129528.857     1106468.592 9   -336675.863
  21121522.404     9146189.683 9   -596695.910 8
  22919672.441    13626540.966 6   -849884.429 3
  24362646.930    12360437.596 5   1121390.087 2
 94  3 23 18 25 59.9990000  0  8 31 22 29 28 18 19 27 14
  22982155.665   -13134774.837 6   -951163.844 3
  24276126.228    -2768673.771 4    957560.338 2
  20963076.094    -4852646.309 8    218713.948 7
  23254903.815    11192340.750 6   -508589.655 3
  20124222.441     1078596.288 9   -358391.027
  21111512.934     9093607.625 8   -637668.937 8
  22902774.789    13537742.048 6   -919078.314 4
  24380464.406    12454028.263 5   1194317.694 2
 94  3 23 18 26 29.9990000  0  8 31 22 29 28 18 19 27 14
  22964828.890   -13225821.544 6  -1022109.226 3
  24292470.373    -2682750.467 5   1024513.442 2
  20968132.214    -4826065.520 8    239426.214 8
  23246656.045    11149016.216 6   -542349.041 3
  20119079.621     1051564.021 9   -379452.493 1
  21101614.926     9041588.553 8   -678203.282 8
  22885974.779    13449453.983 6   -987874.199 3
  24398334.584    12547953.682 5   1267506.006 2
 94  3 23 18 26 59.9990000  0  8 31 22 29 28 18 19 27 14
  22947635.013   -13316169.576 6  -1092510.237 3
  24308907.334    -2596379.742 5   1091815.217 2
  20973342.967    -4798692.248 8    260755.993 8
  23238577.717    11106552.865 6   -575437.329 3
  20114097.790     1025382.373 9   -399854.280 1
  21091825.713     8990135.390 9   -718296.654 8
  22869272.862    13361677.182 6  -1056271.708 4
  24416258.576    12642210.687 5   1340952.664 2
 94  3 23 18 27 29.9990000  0  8 31 22 29 28 18 19 27 14
  22930574.903   -13405808.151 6  -1162358.425 3
  24325436.481    -2509550.014 5   1159474.615 2
  20978700.258    -4770534.167 8    282697.329 8
  23230664.156    11064952.808 6   -607852.918 3
  20109273.799     1000044.275 8   -419602.547 1
  21082142.956     8939258.876 8   -757940.686 8
  22852666.608    13274407.759 6  -1124273.799 4
  24434275.083    12736810.656 4   1414666.655 2
 94  3 23 18 27 59.9990000  0  8 31 22 29 28 18 19 27 14
  22913659.234   -13494712.378 6  -1231634.322 3
  24342044.563    -2422221.508 5   1227522.710 2
  20984209.394    -4741587.690 8    305252.989 8
  23222905.197    11024214.158 6   -639597.338 3
  20104616.194      975554.231 9   -438683.653
  21072577.508     8888983.789 8   -797116.087 8
  22836155.299    13187655.030 6  -1191873.322 4
  24452340.217    12831771.744 4   1488662.080 2
 94  3 23 18 28 29.9990000  0  8 31 22 29 28 18 19 27 14
  22896882.338   -13582880.944 6  -1300337.031 3
  24358768.725    -2334376.675 5   1295973.138 2
  20989873.913    -4711835.831 8    328436.211 8
  23215329.742    10984353.565 6   -670657.485 3
  20100116.039      951919.669 8   -457093.138 3
  21063128.050     8839322.930 8   -835812.857 8
  22819753.054    13101426.307 6  -1259064.468 4
  24470488.903    12927104.399 4   1562947.004 2
 94  3 23 18 28 59.9990000  0  8 31 22 29 28 18 19 27 14
  22880244.936   -13670315.796 6  -1368468.052 3
  24375585.883    -2246008.423 5   1364831.330 2
  20995687.668    -4681260.333 8    352261.249 8
  23207912.457    10945406.676 6   -701005.710 3
  20095785.387      929150.245 8   -474835.563 6
  21053796.320     8790298.621 9   -874013.629 8
  22803442.875    13015721.172 6  -1325847.678 4
  24488695.989    13022829.424 4   1637537.625 2
 94  3 23 18 29 29.9990000  0  8 31 22 29 28 18 19 27 14
  22863743.520   -13757013.435 6  -1436024.607 3
  24392496.276    -2157110.648 5   1434102.277 2
  21001667.118    -4649863.757 8    376726.069 8
  23200675.437    10907388.021 6   -730630.635 3
  20091616.803      907238.295 9   -491909.826 7
  21044589.094     8741922.756 8   -911709.110 8
  22787233.546    12930541.709 6  -1392221.289 4
  24506988.665    13118961.241 4   1712445.192 2
 94  3 23 18 29 59.9990000  0  8 31 22 29 28 18 19 27 14
  22847383.396   -13843001.060 6  -1503027.820 3
  24409509.108    -2067715.204 5   1503760.911 2
  21007793.947    -4617659.037 8    401820.613 8
  23193615.264    10870290.825 6   -759537.518 3
  20087610.107      886187.777 8   -508312.843 8
  21035504.783     8694180.700 8   -948910.701 8
  22771111.697    12845861.709 6  -1458205.648 4
  24525362.705    13215476.600 4   1787651.649 2
 94  3 23 18 30 29.9990000  0  8 31 22 29 28 18 19 27 14
  22831151.193   -13928314.341 6  -1569505.643 3
  24426608.431    -1977864.677 5   1573774.247 2
  21014068.363    -4584670.797 8    427525.720 8
  23186734.668    10834115.308 6   -787726.211 3
  20083763.050      865979.788 9   -524059.351 9
  21026536.402     8647040.623 8   -985643.244 8
  22755089.949    12761651.284 6  -1523824.107 4
  24543797.872    13312360.337 4   1863145.138 2
 94  3 23 18 30 59.9990000  0  8 31 22 29 28 18 19 27 14
  22815045.263   -14012956.825 6  -1635460.752 3
  24443796.402    -1887575.673 5   1644129.238 2
  21020492.916    -4550926.862 8    453819.636 8
  23180017.548    10798842.478 6   -815211.493 3
  20080077.252      846603.476 9   -539157.774 9
  21017675.316     8600480.213 8  -1021924.083 8
  22739159.877    12677913.223 6  -1589074.563 4
  24562297.855    13409593.854 4   1938911.260 2
 94  3 23 18 31 29.9990000  0  8 31 22 29 28 18 19 27 14
  22799066.565   -14096922.664 6  -1700888.621 3
  24461061.509    -1796841.056 5   1714831.401 2
  21027056.092    -4516431.684 8    480698.953 8
  23173481.473    10764454.850 6   -842007.087 3
  20076552.412      828072.711 9   -553597.360 9
  21008923.835     8554492.290 8  -1057758.840 8
  22723313.238    12594664.844 6  -1653943.372 4
  24580862.143    13507159.034 4   2014935.822 2
 94  3 23 18 31 59.9990000  0  7 31 22 29 28 18 19 27
  22783211.891   -14180231.356 6  -1765804.391 3
  24478396.289    -1705688.201 4   1785859.556 2
  21033759.391    -4481197.488 8    508154.132 8
  23167097.482    10730926.982 6   -868132.646 3
  20073182.625      810365.907 9   -567394.876 9
  21000276.501     8509049.665 8  -1093168.690 8
  22707564.240    12511888.029 6  -1718444.791 4
 94  3 23 18 32 29.9990000  0  7 31 22 29 28 18 19 27
  22767483.309   -14262872.967 6  -1830200.377 3
  24495827.841    -1614119.729 5   1857211.452 2
  21040604.792    -4445224.561 8    536184.930 8
  23160881.825    10698244.061 6   -893599.802 4
  20069962.554      793465.360 8   -580564.139 9
  20991732.506     8464139.877 8  -1128163.314 8
  22691897.536    12429589.939 6  -1782573.172 4
 94  3 23 18 32 59.9990000  0  7 31 22 29 28 18 19 27
  22751887.686   -14344839.629 6  -1894070.432 3
  24513330.205    -1522139.371 4   1928884.390 2
  21047591.935    -4408512.371 8    564791.785 8
  23154814.326    10666391.934 6   -918419.672 3
  20066899.035      777366.913 9   -593108.402 9
  20983285.524     8419763.639 8  -1162742.216 8
  22676332.642    12347770.390 6  -1846328.613 4
 94  3 23 18 33 29.9990000  0  7 31 22 29 28 18 19 27
  22736414.408   -14426151.181 6  -1957430.030 3
  24530906.017    -1429775.350 4   2000856.250 2
  21054717.103    -4371068.366 8    593968.899 8
  23148914.050    10635352.492 6   -942606.207 4
  20063985.322      762041.532 8   -605050.275 9
  20974941.550     8375897.793 9  -1196923.400 8
  22660844.014    12266380.849 6  -1909748.999 4
 94  3 23 18 33 59.9990000  0  7 31 22 29 28 18 19 27
  22721065.274   -14506806.445 6  -2020278.193 3
  24548549.403    -1337041.419 4   2073116.391 2
  21061982.603    -4332891.273 8    623717.234 7
  23143159.684    10605124.962 6   -966160.100 4
  20061212.751      747470.754 8   -616404.143 9
  20966684.936     8332524.810 9  -1230720.524 8
  22645437.140    12185396.299 6  -1972853.833 4
 94  3 23 18 34 29.9990000  0  7 31 22 29 28 18 19 27
  22705839.235   -14586808.675 6  -2082617.529 3
  24566268.126    -1243941.195 4   2145661.879 2
  21069388.256    -4293989.091 8    654030.580 8
  23137552.516    10575705.671 6   -989084.188 4
  20058585.970      733665.593 8   -627161.449 9
  20958521.977     8289630.694 8  -1264144.534 8
  22630096.790    12104805.377 6  -2035651.922 4
 94  3 23 18 34 59.9990000  0  7 31 22 29 28 18 19 27
  22690739.468   -14666170.010 6  -2144457.471 3
  24584057.271    -1150482.499 4   2218486.720 2
  21076920.302    -4254392.006 8    684885.423 8
  23132111.313    10547083.397 6  -1011387.263 3
  20056102.099      720619.606 9   -637327.159 9
  20950449.046     8247208.673 8  -1297200.647 8
  22614839.273    12024596.505 6  -2098152.339 4
 94  3 23 18 35 29.9990000  0  7 31 22 29 28 18 19 27
  22675757.130   -14744899.458 6  -2205805.087 3
  24601895.162    -1056681.881 4   2291578.082 2
  21084584.196    -4214118.819 8    716267.062 8
  23126813.710    10519244.075 6  -1033080.223 4
  20053764.498      708312.919 9   -646916.815 9
  20942464.494     8205238.853 8  -1329904.406 9
  22599648.309    11944765.692 6  -2160358.168 4
 94  3 23 18 35 59.9990000  0  7 31 22 29 28 18 19 27
  22660897.917   -14822994.028 6  -2266657.887 3
  24619811.719     -962546.713 4   2364929.970 2
  21092374.483    -4173175.413 8    748170.980 8
  23121665.794    10492192.214 6  -1054159.550 4
  20051560.783      696741.014 8   -655933.904 9
  20934566.851     8163732.845 8  -1362246.735 9
  22584530.495    11865338.151 6  -2222249.709 4
 94  3 23 18 36 29.9990000  0  7 31 22 29 28 18 19 27
  22646154.723   -14900456.974 6  -2327018.535 3
  24637790.752     -868083.439 5   2438537.680 2
  21100289.064    -4131576.626 8    780585.578 7
  23116669.902    10465930.465 6  -1074623.205 3
  20049498.361      685898.291 8   -664382.796 9
  20926758.846     8122696.111 9  -1394223.403 9
  22569492.995    11786322.169 6  -2283820.581 4
 94  3 23 18 36 59.9990000  0  7 31 22 29 28 18 19 27
  22631535.044   -14977288.784 6  -2386887.435 3
  24655821.500     -773311.979 5   2512385.530 2
  21108328.658    -4089331.681 8    813503.666 7
  23111824.477    10440453.777 6  -1094475.192 3
  20047566.618      675755.581 8   -672286.215 9
  20919036.193     8082131.054 9  -1425832.566 9
  22554533.561    11707716.445 6  -2345071.793 4
 94  3 23 18 37 29.9990000  0  7 31 22 29 28 18 19 27
  22617030.126   -15053495.120 6  -2446268.949 3
  24673915.714     -678241.826 5   2586466.022 2
  21116495.005    -4046428.112 8    846934.992 7
  23107128.888    10415769.508 6  -1113709.675 4
  20045770.802      666318.473 8   -679639.829 9
  20911405.455     8042030.445 9  -1457079.798 9
  22539649.405    11629509.100 6  -2406012.531 4
 94  3 23 18 37 59.9990000  0  7 31 22 29 28 18 19 27
  22602649.531   -15129081.988 6  -2505167.768 3
  24692060.532     -582877.057 5   2660776.148 2
  21124783.247    -4002879.447 8    880868.957 7
  23102577.408    10391875.370 6  -1132328.436 4
  20044116.847      657609.973 8   -686425.689 9
  20903865.525     8002397.350 9  -1487962.744 9
  22524841.097    11551682.057 6  -2466656.967 4
 94  3 23 18 38 29.9990000  0  6 31 29 28 18 19 27
  22588378.661   -15204059.274 6  -2563591.552 3
  21133186.729    -3958705.331 8    915290.321 7
  23098174.566    10368754.271 6  -1150344.904 3
  20042597.948      649639.734 8   -692636.272 9
  20896406.299     7963204.035 9  -1518502.984 9
  22510100.722    11474211.496 6  -2527023.626 4
 94  3 23 18 38 59.9990000  0  6 31 29 28 18 19 27
  22574226.838   -15278425.098 6  -2621538.882 3
  21141715.495    -3913903.524 8    950200.780 7
  23093925.428    10346393.080 6  -1167769.146 3
  20041219.233      642407.100 8   -698272.106 9
  20889030.835     7924445.648 9  -1548704.326 9
  22495424.472    11397086.453 7  -2587121.019 4
 94  3 23 18 39 29.9990000  0  6 31 29 28 18 19 27
  22560189.866   -15352199.405 6  -2679025.300 3
  21150357.792    -3868474.066 8    985600.281 7
  23089815.064    10324787.547 6  -1184604.619 4
  20039985.946      635914.855 8   -703331.018 9
  20881738.383     7886114.890 9  -1578572.459 9
  22480810.938    11320295.227 6  -2646958.339 4
 94  3 23 18 39 59.9990000  0  6 31 29 28 18 19 27
  22546271.521   -15425376.116 6  -2736046.098 3
  21159123.454    -3822417.584 8   1021488.420 7
  23085839.996    10303932.755 6  -1200855.093 3
  20038886.098      630142.314 8   -707829.119 9
  20874524.387     7848208.611 9  -1608109.819 9
  22466261.531    11243846.831 6  -2706528.484 4
 94  3 23 18 40 29.9990000  0  6 31 29 28 18 19 27
  22532453.067   -15497945.401 6  -2792593.552 3
  21168008.673    -3775713.690 8   1057881.046 7
  23082012.965    10283826.202 6  -1216522.556 3
  20037916.059      625055.304 8   -711793.028 9
  20867393.224     7810725.241 9  -1637317.638 9
  22451778.977    11167737.590 6  -2765834.339 4
 94  3 23 18 40 59.9990000  0  6 31 29 28 18 19 27
  22518758.188   -15569913.697 6  -2848672.683 3
  21177020.194    -3728365.622 8   1094775.580 7
  23078330.614    10264470.525 6  -1231604.876 4
  20037078.859      620637.132 8   -715235.783 9
  20860338.778     7773670.172 9  -1666191.725 9
  22437361.448    11091956.952 6  -2824884.151 4
 94  3 23 18 41 29.9990000  0  6 31 29 28 18 19 27
  22505183.256   -15641284.236 6  -2904286.038 3
  21186147.705    -3680390.837 8   1132158.501 7
  23074794.742    10245863.989 6  -1246103.460 4
  20036365.863      616889.141 8   -718156.304 9
  20853368.363     7737031.963 9  -1694740.985 9
  22423004.837    11016497.319 7  -2883683.841 4
 94  3 23 18 41 59.9990000  0  6 31 29 28 18 19 27
  22491711.992   -15712045.680 6  -2959424.775 3
  21195393.844    -3631808.373 8   1170014.923 7
  23071391.438    10227990.483 6  -1260030.889 4
  20035776.710      613807.573 8   -720557.534 9
  20846473.257     7700792.357 9  -1722979.630 9
  22408696.882    10941340.963 7  -2942247.234 4
 94  3 23 18 42 29.9990000  0  6 31 29 28 18 19 27
  22478360.135   -15782204.911 6  -3014094.257 4
  21204753.395    -3582626.405 8   1208338.475 7
  23068134.433    10210848.988 6  -1273387.886 4
  20035322.075      611406.675 8   -722428.386 9
  20839652.379     7664956.740 9  -1750903.503 9
  22394449.305    10866477.049 6  -3000582.709 4
 94  3 23 18 42 59.9990000  0  6 31 29 28 18 19 27
  22465122.409   -15851779.559 6  -3068308.218 4
  21214221.350    -3532870.823 8   1247109.017 7
  23065001.452    10194440.664 6  -1286173.600 4
  20034995.991      609693.581 8   -723763.279 9
  20832907.258     7629517.610 9  -1778518.413 9
  22380263.366    10791914.543 6  -3058683.331 4
 94  3 23 18 43 29.9990000  0  6 31 29 28 18 19 27
  22451995.817   -15920774.383 6  -3122070.358 4
  21223798.700    -3482550.393 7   1286319.681 7
  23062026.791    10178749.313 6  -1298400.609 4
  20034796.719      608654.382 8   -724573.059 9
  20826236.696     7594463.511 9  -1805833.294 9
  22366134.207    10717655.912 7  -3116547.166 4
 94  3 23 18 43 59.9990000  0  6 31 29 28 18 19 27
  22438974.751   -15989190.464 6  -3175381.521 4
  21233480.437    -3431655.064 7   1325978.330 7
  23059178.163    10163789.636 6  -1310057.495 4
  20034727.647      608279.957 8   -724864.849 9
  20819643.061     7559812.620 9  -1832834.003 9
  22352064.798    10643715.738 7  -3174162.854 4
 94  3 23 18 44 29.9990000  0  6 31 29 28 18 19 27
  22426064.788   -16057041.736 6  -3228252.591 4
  21243272.678    -3380192.981 7   1366078.597 7
  23056472.566    10149578.939 6  -1321130.751 4
  20034785.177      608568.481 8   -724640.030 9
  20813127.012     7525578.657 9  -1859509.810 9
  22338052.648    10570111.046 6  -3231517.132 4
 94  3 23 18 44 59.9990000  0  6 31 29 28 18 19 27
  22413262.571   -16124321.436 6  -3280678.293 4
  21253171.915    -3328178.544 8   1406609.281 7
  23053906.133    10136115.230 6  -1331621.973 4
  20034960.765      609508.074 8   -723907.900 9
  20806696.134     7491749.317 9  -1885870.326 9
  22324110.830    10496838.780 6  -3288612.382 4
 94  3 23 18 45 29.9990000  0  7  2 31 29 28 18 19 27
  24733831.605     8443073.84513   -256623.353
  22400566.630   -16191021.492 6  -3332652.311 4
  21263176.169    -3275604.811 7   1447575.776 7
  23051486.058    10123389.849 6  -1341537.842 4
  20035263.106      611092.982 9   -722672.932 9
  20800325.544     7458306.068 9  -1911930.021 9
  22310227.861    10423878.203 6  -3345464.751 4
 94  3 23 18 45 59.9990000  0  7  2 31 29 28 18 19 27
  24714027.285     8339026.775 3   -337698.740 1
  22387983.951   -16257143.206 6  -3384175.671 4
  21273286.220    -3222482.962 7   1488969.378 7
  23049204.218    10111385.443 6  -1350891.908 4
  20035687.132      613319.429 8   -720938.045 9
  20794033.200     7425226.871 9  -1937706.019 9
  22296399.993    10351200.943 6  -3402096.339 5
 94  3 23 18 46 29.9990000  0  7  2 31 29 28 18 19 27
  24694287.900     8235277.447 3   -418542.289 1
  22375516.003   -16322670.373 6  -3435235.742 4
  21283499.250    -3168811.063 7   1530791.559 7
  23047048.710    10100072.730 6  -1359707.012 4
  20036233.894      616187.292 8   -718703.376 9
  20787803.993     7392490.617 9  -1963214.777 9
  22282618.055    10278784.211 6  -3458524.939 5
 94  3 23 18 46 59.9990000  0  7  2 31 29 28 18 19 27
  24674608.924     8131826.691 3   -499153.156 2
  22363164.134   -16387576.503 6  -3485811.900 4
  21293824.372    -3114566.635 7   1573059.882 7
  23045024.691    10089432.697 6  -1367997.947 4
  20036897.724      619701.164 8   -715965.298 9
  20781640.080     7360093.969 9  -1988458.921 9
  22268883.453    10206615.705 6  -3514760.088 5
 94  3 23 18 47 29.9990000  0  7  2 31 29 28 18 19 27
  24654976.175     8028654.430 4   -579547.037 2
  22350930.323   -16451862.669 6  -3535904.952 4
  21304254.332    -3059744.674 7   1615778.248 7
  23043120.080    10079454.525 6  -1375773.123 4
  20037692.804      623865.800 8   -712720.141 9
  20775538.434     7328042.240 8  -2013434.309 9
  22255199.696    10134693.115 7  -3570803.656 5
 94  3 23 18 47 59.9990000  0  7  2 31 29 28 18 19 27
  24635393.552     7925741.406 5   -659738.926 2
  22338815.710   -16515532.252 6  -3585517.600 4
  21314794.435    -3004361.405 7   1658933.971 7
  23041358.050    10070136.313 6  -1383034.041 4
  20038611.788      628689.800 8   -708961.194 9
  20769509.338     7296355.187 9  -2038125.502 9
  22241563.756    10063033.517 7  -3626642.267 5
 94  3 23 18 48 29.9990000  0  7  2 31 29 28 18 19 27
  24615856.077     7823072.242 5   -739740.755 2
  22326815.437   -16578598.388 6  -3634660.004 4
  21325439.525    -2948427.172 8   1702519.029 7
  23039709.671    10061485.862 6  -1389774.681 4
  20039651.468      634170.304 8   -704690.691 9
  20763548.265     7265030.378 9  -2062534.475 9
  22227981.838     9991651.767 7  -3682264.397 5
 94  3 23 18 48 59.9990000  0  7  2 31 29 28 18 19 27
  24596364.681     7720658.204 4   -819543.823 2
  22314924.559   -16641081.863 6  -3683348.392 4
  21336185.376    -2891955.780 8   1746522.655 7
  23038186.635    10053521.477 6  -1395980.697 4
  20040820.689      640312.807 8   -699904.326 9
  20757656.773     7234067.448 9  -2086661.428 9
  22214447.678     9920559.363 6  -3737661.058 5
 94  3 23 18 49 29.9990000  0  7  2 31 29 28 18 19 27
  24576924.879     7618507.798 4   -899141.505 2
  22303141.966   -16703001.311 6  -3731597.264 4
  21347029.199    -2834955.556 7   1790938.347 7
  23036808.399    10046259.984 6  -1401638.969 4
  20042116.511      647113.140 8   -694605.387 9
  20751833.365     7203462.565 9  -2110509.383 9
  22200976.923     9849766.832 6  -3792824.052 5
 94  3 23 18 49 59.9990000  0  7  2 31 29 28 18 19 27
  24557541.828     7516642.491 4   -978517.070 2
  22291465.290   -16764361.166 6  -3779410.109 4
  21357979.598    -2777430.755 7   1835762.785 7
  23035557.066    10039699.255 6  -1406751.209 4
  20043530.722      654550.954 8   -688809.699 9
  20746075.281     7173200.225 9  -2134090.436 9
  22187563.849     9779270.145 7  -3847756.472 5
 94  3 23 18 50 29.9990000  0  7  2 31 29 28 18 19 27
  24538219.664     7415085.445 4  -1057652.376 2
  22279894.770   -16825161.596 6  -3826787.026 4
  21369025.302    -2719362.342 7   1881010.834 7
  23034449.093    10033848.133 6  -1411310.519 4
  20045066.229      662607.146 8   -682532.159 9
  20740378.295     7143271.600 9  -2157411.447 9
  22174203.568     9709054.775 7  -3902469.743 5
 94  3 23 18 50 59.9990000  0  7  2 31 29 28 18 19 27
  24518946.636     7313847.668 4  -1136538.879 2
  22268433.045   -16885407.039 6  -3873731.505 4
  21380180.189    -2660748.587 7   1926683.846 7
  23033472.968    10028701.245 6  -1415321.063 4
  20046712.360      671273.233 8   -675779.391 9
  20734747.323     7113676.673 9  -2180472.423 9
  22160891.734     9639111.978 7  -3956970.601 5
 94  3 23 18 51 29.9990000  0  7  2 31 29 28 18 19 27
  24499730.809     7212911.123 3  -1215190.633 2
  22257073.189   -16945083.384 6  -3920232.487 4
  21391438.595    -2601591.413 7   1972780.268 6
  23032619.669    10024253.412 6  -1418786.893 4
  20048478.617      680543.760 8   -668555.617 9
  20729178.199     7084415.435 9  -2203273.395 9
  22147637.040     9569444.433 7  -4011256.968 5
 94  3 23 18 51 59.9990000  0  7  2 31 29 28 18 19 27
  24480601.322     7112263.227 4  -1293617.465 2
  22245833.550   -17004176.034 6  -3966278.674 4
  21402798.331    -2541902.273 7   2019291.223 6
  23031907.122    10020500.695 6  -1421711.082 4
  20050356.667      690426.591 8   -660854.722 9
  20723671.851     7055481.440 9  -2225819.363 9
  22134425.546     9500039.350 7  -4065338.820 5
 94  3 23 18 52 29.9990000  0  7  2 31 29 28 18 19 27
  24461491.352     7011889.509 4  -1371830.686 2
  22234694.971   -17062684.040 6  -4011869.287 4
  21414254.900    -2481685.973 7   2066212.932 6
  23031326.035    10017449.292 6  -1424088.799 4
  20052360.779      700949.199 8   -652655.322 9
  20718228.249     7026870.436 9  -2248113.648 9
  22121265.407     9430886.069 7  -4119224.461 5
 94  3 23 18 52 59.9990000  0  7  2 31 29 28 18 19 27
  24442431.867     6911771.640 4  -1449844.500 2
  22223673.881   -17120607.228 6  -4057004.208 4
  21425811.060    -2420969.428 7   2113524.462 6
  23030878.774    10015096.428 6  -1425922.188 4
  20054488.047      712129.320 8   -643943.554 9
  20712845.236     6998578.578 9  -2270159.269 9
  22108157.671     9361975.893 7  -4172920.663 5
 94  3 23 18 53 29.9990000  0  7  2 31 29 28 18 19 27
  24423430.421     6811894.175 4  -1527671.019 2
  22212766.981   -17177936.563 6  -4101676.370 4
  21437458.626    -2359764.121 8   2161216.839 6
  23030561.804    10013445.405 6  -1427208.684 4
  20056742.996      723962.193 8   -634723.143 9
  20707522.151     6970610.574 9  -2291952.518 9
  22095083.212     9293294.801 7  -4226438.378 5
 94  3 23 18 53 59.9990000  0  7  2 31 29 28 18 19 27
  24404471.876     6712267.884 4  -1605301.809 2
  22201968.367   -17234680.371 6  -4145892.285 4
  21449199.758    -2298065.370 8   2209293.749 6
  23030386.665    10012505.610 6  -1427941.009 3
  20059116.722      736439.255 8   -625000.785 9
  20702259.954     6942966.458 9  -2313493.376 9
  22082056.960     9224832.799 7  -4279785.381 5
 94  3 23 18 54 29.9990000  0  7  2 31 29 28 18 19 27
  24385557.520     6612896.219 5  -1682734.146 2
  22191271.472   -17290855.021 6  -4189664.694 4
  21461031.817    -2235877.487 8   2257751.781 6
  23030336.390    10012267.018 6  -1428126.913 4
  20061605.629      749538.515 8   -614793.580 9
  20697066.889     6915648.522 9  -2334780.101 9
  22069072.049     9156597.705 7  -4332955.552 5
 94  3 23 18 54 59.9990000  0  7  2 31 29 28 18 19 27
  24366697.966     6513775.007 5  -1759971.340 2
  22180696.144   -17346459.308 6  -4232992.639 4
  21472956.931    -2173208.333 7   2306584.832 6
  23030424.259    10012706.343 6  -1427784.540 4
  20064212.775      763226.958 8   -604127.283 9
  20691927.637     6888658.509 9  -2355811.282 9
  22056135.015     9088600.621 7  -4385940.276 5
 94  3 23 18 55 29.9990000  0  7  2 31 29 28 18 19 27
  24347886.589     6414920.429 5  -1837000.766 2
  22170225.382   -17401478.466 6  -4275864.678 4
  21484974.172    -2110042.953 7   2355804.535 6
  23030639.330    10013809.789 6  -1426924.732 4
  20066927.275      777496.226 8   -593008.404 9
  20686853.589     6861989.417 9  -2376592.387 9
  22043242.980     9020859.681 7  -4438725.402 5
 94  3 23 18 55 59.9990000  0  7  2 31 29 28 18 19 27
  24329128.155     6316346.657 5  -1913811.406 2
  22159866.204   -17455917.076 6  -4318284.311 4
  21497092.503    -2046376.296 7   2405414.853 6
  23030960.138    10015549.344 6  -1425569.242 4
  20069756.866      792353.018 8   -581431.703 9
  20681836.712     6835622.806 9  -2397137.808 9
  22030400.111     8953386.246 7  -4491302.081 5
 94  3 23 18 56 29.9990000  0  7  2 31 29 28 18 19 27
  24310425.393     6218053.792 5  -1990403.142 2
  22149620.527   -17509762.357 6  -4360241.600 4
  21509304.338    -1982213.380 7   2455411.875 6
  23031414.713    10017904.589 6  -1423733.975 4
  20072694.413      807801.936 8   -569393.602 9
  20676874.907     6809562.065 9  -2417444.891 9
  22017616.241     8886174.716 7  -4543674.684 5
 94  3 23 18 56 59.9990000  0  7  2 31 29 28 18 19 27
  24291770.147     6120042.835 5  -2066775.201 2
  22139490.120   -17563001.659 6  -4401726.725 4
  21521606.352    -1917555.225 7   2505794.793 6
  23031978.443    10020883.773 6  -1421412.535 4
  20075750.167      823850.152 8   -556888.538 9
  20671973.750     6783799.691 9  -2437519.461 9
  22004870.835     8819210.513 7  -4595854.550 5
 94  3 23 18 57 29.9990000  0  7  2 31 29 28 18 19 27
  24273170.963     6022320.160 5  -2142922.620 2
  22129475.853   -17615627.438 6  -4442733.797 4
  21534005.918    -1852391.138 7   2556571.951 6
  23032671.383    10024508.630 6  -1418588.004 4
  20078916.395      840509.345 8   -543907.365 9
  20667131.443     6758344.468 9  -2457354.717 9
  21992172.136     8752485.373 7  -4647848.158 5
 94  3 23 18 57 59.9990000  0  7  2 31 29 28 18 19 27
  24254639.143     5924873.531 5  -2218854.900 2
  22119573.798   -17667646.291 6  -4483267.912 4
  21546499.739    -1786729.892 7   2607736.481 6
  23033487.149    10028797.339 6  -1415246.146 4
  20082209.616      857784.894 8   -530445.927 9
  20662346.065     6733205.928 9  -2476943.197 9
  21979516.337     8685979.734 7  -4699670.699 5
 94  3 23 18 58 29.9990000  0  7  2 31 29 28 18 19 27
  24236142.668     5827697.074 5  -2294576.700 2
  22109796.426   -17719055.934 6  -4523327.280 4
  21559088.743    -1720575.059 7   2659285.612 6
  23034441.178    10033787.749 6  -1411357.525 4
  20085612.860      875675.721 8   -516505.059 9
  20657623.975     6708400.139 9  -2496272.396 9
  21966900.052     8619688.773 7  -4751326.004 5
 94  3 23 18 58 59.9990000  0  7  2 31 29 28 18 19 27
  24217695.478     5730785.204 4  -2370092.231 2
  22100127.340   -17769861.497 7  -4562916.003 4
  21571775.211    -1653926.621 7   2711219.382 6
  23035521.930    10039483.267 6  -1406919.495 4
  20089133.502      894188.890 8   -502079.239 9
  20652964.810     6683917.287 8  -2515349.958 9
  21954334.131     8553633.875 7  -4802797.323 5
 94  3 23 18 59 29.9990000  0  7  2 31 29 28 18 19 27
  24199315.622     5634127.452 4  -2445409.791 2
  22090567.438   -17820089.606 6  -4602054.781 4
  21584551.136    -1586798.721 7   2763526.766 6
  23036735.940    10045851.132 6  -1401957.533 4
  20092773.253      913320.708 8   -487171.361 9
  20648367.702     6659749.520 9  -2534181.979 9
  21941802.566     8487806.253 7  -4854091.568 5
 94  3 23 18 59 59.9990000  0  7  2 31 29 28 18 19 27
  24180958.671     5537721.970 3  -2520530.779 2
  22081114.802   -17869752.435 6  -4640753.022 4
  21597411.753    -1519206.154 7   2816196.239 6
  23038070.406    10052880.461 6  -1396480.127 4
  20096532.770      933073.409 8   -471779.681 9
  20643827.975     6635891.461 9  -2552772.674 9
  21929322.296     8422212.238 7  -4905203.766 5
 94  3 23 19  0 29.9990000  0  7  2 31 29 28 18 19 27
  24162670.371     5441579.738 3  -2595446.607 2
  22071775.937   -17918837.463 7  -4679001.038 4
  21610360.179    -1451148.703 7   2869227.931 6
  23039531.804    10060558.696 6  -1390497.110 4
  20100408.817      953445.203 8   -455905.562 9
  20639349.526     6612348.700 9  -2571117.708 9
  21916889.363     8356870.891 7  -4956119.075 5
 94  3 23 19  0 59.9990000  0  7  2 31 29 28 18 19 27
  24144414.600     5345693.398 4  -2670163.061 2
  22062541.131   -17967347.745 6  -4716801.254 4
  21623398.333    -1382642.164 7   2922609.579 6
  23041108.952    10068851.471 6  -1384035.214 4
  20104398.814      974422.422 8   -439559.694 9
  20634922.640     6589104.107 9  -2589230.382 9
  21904500.590     8291756.834 7  -5006857.272 6
 94  3 23 19  1 29.9990000  0  7  2 31 29 28 18 19 27
  24126229.309     5250054.282 4  -2744686.831 2
  22053425.821   -18015280.393 6  -4754151.301 4
  21636520.908    -1313696.133 7   2976333.675 6
  23042804.339    10077759.810 6  -1377093.671 4
  20108506.091      995985.706 8   -422757.171 9
  20630553.045     6566153.376 8  -2607114.062 9
  21892143.265     8226838.044 7  -5057443.336 6
 94  3 23 19  1 59.9990000  0  7  2 31 29 28 18 19 27
  24108068.571     5154647.703 4  -2819029.221 2
  22044414.389   -18062628.109 7  -4791045.578 4
  21649719.541    -1244317.630 7   3030394.770 6
  23044621.740    10087298.549 6  -1369660.925 4
  20112717.845     1018117.396 8   -405511.713 9
  20626247.276     6543485.149 9  -2624777.622 9
  21879824.133     8162111.053 7  -5107879.938 6
 94  3 23 19  2 29.9990000  0  7  2 31 29 28 18 19 27
  24089953.102     5059480.584 5  -2893185.251 2
  22035518.588   -18109378.438 6  -4827474.378 4
  21663007.302    -1174498.423 7   3084799.260 6
  23046557.081    10097479.720 6  -1361727.563 4
  20117035.576     1040814.475 8   -387825.682 9
  20621985.457     6521097.128 9  -2642222.853 9
  21867548.681     8097578.310 7  -5158165.148 6
 94  3 23 19  2 59.9990000  0  7  2 31 29 28 18 19 27
  24071890.967     4964559.597 5  -2967149.552 2
  22026730.832   -18155537.788 6  -4863442.658 4
  21676377.986    -1104221.207 7   3139560.634 6
  23048612.038    10108312.320 6  -1353286.576 4
  20121465.519     1064078.711 8   -369697.730 9
  20617776.910     6498986.910 9  -2659451.599 9
  21855306.806     8033248.486 7  -5208292.283 6
 94  3 23 19  3 29.9990000  0  7  2 31 29 28 18 19 27
  24053873.620     4869890.077 5  -3040917.939 2
  22018061.343   -18201109.606 6  -4898953.118 4
  21689843.434    -1033482.659 7   3194681.535 6
  23050813.774    10119811.855 6  -1344325.954 4
  20125999.760     1087920.329 8   -351119.861 9
  20613623.585     6477164.324 9  -2676456.230 9
  21843106.482     7969141.594 7  -5258245.690 6
 94  3 23 19  3 59.9990000  0  7  2 31 29 28 18 19 27
  24035917.311     4775488.893 6  -3114477.203 2
  22009497.532   -18246099.115 6  -4934009.874 4
  21703390.425     -962285.534 7   3250159.750 6
  23053122.056    10131986.003 6  -1334839.626 4
  20130645.884     1112337.372 8   -332093.618 9
  20609527.251     6455638.628 9  -2693229.490 9
  21830953.945     7905277.151 7  -5308010.169 6
 94  3 23 19  4 29.9990000  0  7  2 31 29 28 18 19 27
  24018007.649     4681373.133 5  -3187814.105 2
  22001049.231   -18290503.540 6  -4968610.697 4
  21717028.524     -890628.289 7   3305996.496 6
  23055567.673    10144827.446 6  -1324833.304 4
  20135402.421     1137337.194 8   -312613.261 9
  20605487.638     6434415.662 9  -2709766.874 9
  21818850.334     7841654.109 7  -5357586.568 6
 94  3 23 19  4 59.9990000  0  8  2 31 29 16 28 18 19 27
  24000148.413     4587547.351 5  -3260924.982 2
  21992712.362   -18334323.397 6  -5002756.015 4
  21730747.057     -818519.291 7   3362185.268 6
  24588125.755     -957023.62415  -1869030.961 2
  23058132.127    10158320.013 6  -1314319.650 4
  20140274.018     1162922.026 8   -292677.049 9
  20601506.484     6413488.725 9  -2726073.601 9
  21806785.666     7778266.106 7  -5406979.800 6
 94  3 23 19  5 29.9990000  0  8  2 31 29 16 28 18 19 27
  23982339.902     4493997.029 5  -3333821.250 2
  21984480.391   -18377546.885 6  -5036436.634 4
  21744550.011     -745985.242 7   3418705.237 6
  24574990.288    -1026011.304 5  -1922787.617 2
  23060826.572    10172462.809 6  -1303299.303 4
  20145248.475     1189080.304 8   -272294.005 9
  20597579.982     6392844.219 9  -2742160.223 9
  21794763.329     7715092.503 7  -5456205.963 6
 94  3 23 19  5 59.9990000  0  8  2 31 29 16 28 18 19 27
  23964600.252     4400706.264 5  -3406515.225 2
  21976372.534   -18420175.021 6  -5069653.318 4
  21758433.340     -673027.514 7   3475555.323 5
  24561969.642    -1094511.717 5  -1976164.570 2
  23063639.884    10187234.837 6  -1291788.650 4
  20150331.995     1215794.219 8   -251477.995 9
  20593697.940     6372463.717 9  -2758041.148 9
  21782779.845     7652118.532 7  -5505276.604 6
 94  3 23 19  6 29.9990000  0  8  2 31 29 16 28 18 19 27
  23946889.234     4307679.315 5  -3479003.617 2
  21968376.140   -18462188.927 6  -5102391.444 4
  21772399.891     -599634.289 7   3532744.776 5
  24549042.502    -1162503.417 5  -2029145.104 2
  23066568.737    10202629.904 6  -1279792.495 4
  20155524.551     1243090.467 8   -230208.212 9
  20589869.380     6352342.076 9  -2773720.373 9
  21770833.655     7589332.306 7  -5554200.907 6
 94  3 23 19  6 59.9990000  0  8  2 31 29 16 28 18 19 27
  23929234.456     4214904.021 5  -3551295.918 2
  21960500.262   -18503580.549 6  -5134644.631 4
  21786450.654     -525801.595 7   3590276.650 5
  24536173.251    -1229965.945 5  -2081713.290 2
  23069613.429    10218654.801 6  -1267305.567 4
  20160830.787     1270974.069 8   -208480.773 9
  20586091.875     6332484.544 9  -2789193.766 9
  21758921.732     7526742.945 7  -5602971.822 6
 94  3 23 19  7 29.9990000  0  8  2 31 29 16 28 18 19 27
  23911623.897     4122365.226 5  -3623403.996 2
  21952743.402   -18544351.087 6  -5166413.848 4
  21800584.819     -451526.035 7   3648153.638 5
  24523429.073    -1296898.397 4  -2133868.422 2
  23072789.700    10235317.993 6  -1254321.272 4
  20166250.855     1299443.546 8   -186296.786 9
  20582363.057     6312897.762 9  -2804456.204 9
  21747051.539     7464347.268 7  -5651591.842 6
 94  3 23 19  7 59.9990000  0  8  2 31 29 16 28 18 19 27
  23894062.805     4030072.855 5  -3695320.010 2
  21945099.983   -18584515.214 6  -5197710.576 4
  21814805.025     -376808.034 7   3706375.369 5
  24510823.310    -1363291.800 5  -2185603.547 2
  23076074.916    10252611.178 6  -1240846.043 4
  20171783.735     1328498.795 8   -163656.367 9
  20578689.430     6293588.736 9  -2819502.211 9
  21735209.707     7402146.888 7  -5700059.658 6
 94  3 23 19  8 29.9990000  0  8  2 31 29 16 28 18 19 27
  23876541.944     3938027.842 5  -3767043.246 2
  21937571.715   -18624078.440 6  -5228539.060 4
  21829100.088     -301668.201 7   3764925.810 5
  24498281.553    -1429150.367 5  -2236921.901 2
  23079491.800    10270527.432 6  -1226885.356 4
  20177420.642     1358138.459 8   -140560.567 9
  20575066.888     6274556.941 9  -2834332.191 9
  21723414.403     7340144.641 7  -5748373.081 6
 94  3 23 19  8 59.9990000  0  8  2 31 29 16 28 18 19 27
  23859069.590     3846214.954 5  -3838585.688 2
  21930151.222   -18663063.318 6  -5258916.858 4
  21843475.167     -226119.055 7   3823795.217 5
  24485849.219    -1494487.730 5  -2287834.198 2
  23083015.831    10289065.568 6  -1212440.069 4
  20183166.075     1388341.698 8   -117025.606 9
  20571497.798     6255797.968 9  -2848949.578 9
  21711651.207     7278353.933 7  -5796521.672 6
 94  3 23 19  9 29.9990000  0  8  2 31 29 16 28 18 19 27
  23841655.395     3754648.015 5  -3909936.409 3
  21922844.860   -18701480.933 6  -5288852.649 4
  21857930.709     -150163.419 7   3882981.317 5
  24473515.668    -1559323.830 5  -2338355.806 2
  23086660.018    10308218.998 6  -1197515.294 4
  20189019.163     1419091.841 8    -93064.490 9
  20567982.132     6237308.929 9  -2863356.636 9
  21699934.598     7216768.088 7  -5844510.640 6
 94  3 23 19  9 59.9990000  0  8  2 31 29 16 28 18 19 27
  23824281.193     3663347.273 5  -3981079.734 3
  21915641.387   -18739317.997 6  -5318336.077 4
  21872459.551      -73800.606 7   3942484.727 6
  24461249.180    -1623667.013 5  -2388493.388 2
  23090419.535    10327976.490 6  -1182119.914 4
  20194972.052     1450392.864 8    -68674.128 9
  20564512.754     6219084.793 9  -2877557.261 9
  21688256.512     7155402.893 7  -5892327.663 6
 94  3 23 19 10 29.9990000  0  8  2 31 29 16 28 18 19 27
  23806961.583     3572305.712 5  -4052021.105 3
  21908553.604   -18776564.505 6  -5347359.282 5
  21887075.783        2977.245 7   4002311.521 6
  24449129.440    -1687523.248 5  -2438251.482 2
  23094293.184    10348339.602 6  -1166252.525 4
  20201040.631     1482259.019 8    -43843.391 9
  20561092.242     6201117.718 9  -2891557.571 9
  21676622.616     7094271.087 7  -5939962.844 6
 94  3 23 19 10 59.9990000  0  8  2 31 29 16 28 18 19 27
  23789678.039     3481528.495 5  -4122756.540 2
  21901578.902   -18813203.709 7  -5375909.287 5
  21901765.973       80183.001 7   4062471.766 6
  24437053.740    -1750889.618 5  -2487627.819 2
  23098289.687    10369319.614 6  -1149904.438 4
  20207210.030     1514686.353 8    -18575.368 9
  20557723.444     6183406.054 9  -2905358.880 9
  21665031.801     7033361.755 7  -5987424.626 6
 94  3 23 19 11 29.9990000  0  8  2 31 29 16 28 18 19 27
  23772452.324     3391030.395 5  -4193274.390 3
  21894730.204   -18849214.473 6  -5403969.643 5
  21916537.647      157815.354 7   4122964.422 6
  24425094.449    -1813757.292 5  -2536615.694 2
  23102397.203    10390908.193 6  -1133082.185 4
  20213487.894     1547680.381 8      7134.228 9
  20554404.592     6165958.445 9  -2918954.428 9
  21653484.934     6972659.539 7  -6034725.031 6
 94  3 23 19 11 59.9990000  0  8  2 31 29 16 28 18 19 27
  23755284.409     3300800.111 5  -4263583.592 2
  21887999.983   -18884592.581 6  -5431536.968 5
  21931389.815      235860.277 7   4183778.548 5
  24413230.702    -1876114.522 5  -2585205.672 2
  23106624.787    10413104.805 6  -1115786.148 4
  20219879.079     1581260.896 8     33300.833 9
  20551131.967     6148767.934 9  -2932349.638 9
  21641971.135     6912158.757 7  -6081868.495 6
 94  3 23 19 12 29.9990000  0  8  2 31 29 16 28 18 19 27
  23738164.071     3210821.908 6  -4333696.401 2
  21881387.161   -18919348.997 7  -5458619.838 5
  21946320.199      314324.150 7   4244919.164 6
  24401454.854    -1937949.044 5  -2633388.402 2
  23110960.595    10435924.947 6  -1098004.232 4
  20226378.699     1615419.248 8     59917.689 9
  20547911.927     6131849.260 9  -2945533.029 9
  21630491.842     6851841.976 7  -6128868.556 6
 94  3 23 19 12 59.9990000  0  8  2 31 29 16 28 18 19 27
  23721093.978     3121110.426 6  -4403601.423 2
  21874883.493   -18953489.018 6  -5485222.459 5
  21961330.957      393207.184 7   4306386.359 5
  24389797.155    -1999250.438 5  -2681155.764 2
  23115421.087    10459373.319 6  -1079732.765 4
  20232987.834     1650139.648 8     86972.515 9
  20544744.319     6115219.886 9  -2958490.987 9
  21619051.912     6791714.021 7  -6175721.493 6
 94  3 23 19 13 29.9990000  0  8  2 31 29 16 28 18 19 27
  23704070.743     3031661.436 6  -4473301.872 2
  21868506.488   -18987031.784 7  -5511359.644 5
  21976421.040      472496.072 7   4368169.835 5
  24378235.209    -2060015.671 5  -2728505.284 2
  23119999.757    10483438.660 6  -1060980.603 3
  20239699.438     1685422.893 8    114465.914 9
  20541636.911     6098873.460 9  -2971228.461 9
  21607645.348     6731786.493 7  -6222418.275 6
 94  3 23 19 13 59.9990000  0  8  2 31 29 16 28 18 19 27
  23687095.745     2942474.837 5  -4542797.840 2
  21862235.759   -19019972.361 7  -5537027.618 5
  21991588.140      552202.922 7   4430278.983 5
  24366785.326    -2120240.627 5  -2775433.811 2
  23124700.443    10508138.681 6  -1041733.855 3
  20246523.164     1721267.818 8    142396.990 9
  20538581.246     6082815.056 9  -2983741.515 9
  21596285.073     6672078.282 7  -6268944.124 6
 94  3 23 19 14 29.9990000  0  8  2 31 29 16 28 18 19 27
  23670178.337     2853560.737 5  -4612081.488 2
  21856082.189   -19052306.585 7  -5562223.093 5
  22006836.274      632327.872 7   4492713.917 5
  24355404.424    -2179934.863 5  -2821948.893 2
  23129526.892    10533470.122 6  -1021995.066 4
  20253447.680     1757661.471 8    170755.644 9
  20535582.452     6067050.049 9  -2996025.939 9
  21584964.880     6612590.052 7  -6315298.572 6
 94  3 23 19 14 59.9990000  0  8  2 31 29 16 28 18 19 27
  23653321.516     2764941.725 5  -4681135.195 2
  21850049.016   -19084012.306 7  -5586928.841 5
  22022161.575      712862.877 7   4555468.399 5
  24344160.229    -2239094.839 5  -2868047.531 2
  23134458.298    10559421.509 6  -1001773.238 3
  20260482.190     1794625.428 8    199558.682 9
  20532635.642     6051582.448 9  -3008078.622 9
  21573687.137     6553331.474 7  -6361474.075 6
 94  3 23 19 15 29.9990000  0  8  2 31 29 16 28 18 19 27
  23636509.605     2676619.421 5  -4749957.728 2
  21844142.535   -19115068.389 7  -5611128.366 5
  22037565.991      793808.128 7   4618542.504 5
  24332999.285    -2297716.494 6  -2913726.772 2
  23139521.583    10585994.990 6   -981066.643 4
  20267628.643     1832180.435 8    228822.287 9
  20529752.778     6036419.238 9  -3019894.125 9
  21562450.406     6494289.042 7  -6407481.155 6
 94  3 23 19 15 59.9990000  0  8  2 31 29 16 28 18 19 27
  23619750.937     2588588.374 5  -4818553.252 3
  21838352.583   -19145474.123 7  -5634821.113 5
  22053045.624      875167.230 7   4681939.121 5
  24321936.614    -2355811.098 5  -2958995.282 2
  23144690.184    10613198.942 6   -959868.791 4
  20274887.727     1870324.009 8    258544.526 9
  20526922.977     6021565.310 9  -3031468.604 9
  21551256.096     6435449.776 7  -6453329.907 6
 94  3 23 19 16 29.9990000  0  8  2 31 29 16 28 18 19 27
  23603058.613     2500830.969 5  -4886935.559 3
  21832681.889   -19175253.104 7  -5658025.507 5
  22068604.643      956922.927 7   4745644.766 5
  24310960.732    -2413395.018 5  -3003865.902 2
  23149993.153    10641008.889 6   -938198.741 3
  20282256.176     1909045.082 8    288716.747 9
  20524150.886     6006997.652 9  -3042820.033 9
  21540093.444     6376797.127 7  -6499033.262 6
 94  3 23 19 16 59.9990000  0  8  2 31 29 16 28 18 19 27
  23586406.820     2413337.013 6  -4955112.618 3
  21827137.947   -19204417.532 7  -5680750.997 5
  22084238.370     1039078.988 6   4809662.354 5
  24300132.918    -2470460.180 5  -3048332.323 2
  23155395.773    10669432.730 6   -916050.353 3
  20289733.510     1948334.695 8    319331.983 9
  20521430.209     5992702.988 9  -3053958.751 9
  21528970.724     6318342.746 7  -6544582.126 6
 94  3 23 19 17 29.9990000  0  8  2 31 29 16 28 18 19 27
  23569808.631     2326092.459 5  -5023095.329 3
  21821705.947   -19232970.210 7  -5702999.823 5
  22099950.103     1121641.910 7   4873997.016 5
  24289355.199    -2527003.513 5  -3092392.027 2
  23160927.034    10698496.122 6   -893403.515 4
  20297315.231     1988177.948 8    350378.644 9
  20518758.909     5978661.373 9  -3064900.271 9
  21517888.536     6260102.802 7  -6589963.878 6
 94  3 23 19 17 59.9990000  0  8  2 31 29 16 28 18 19 27
  23553244.468     2239087.211 5  -5090891.555 4
  21816387.239   -19260914.837 6  -5724774.814 5
  22115735.615     1204611.801 7   4938648.743 5
  24278700.905    -2583022.982 5  -3136043.586 2
  23166580.370    10728203.059 6   -870255.285 3
  20304999.182     2028565.451 8    381849.368 9
  20516135.725     5964861.174 9  -3075653.687 9
  21506845.321     6202093.037 7  -6635166.283 6
 94  3 23 19 18 29.9990000  0  8  2 31 29 16 28 18 19 27
  23536743.681     2152329.078 5  -5158495.173 4
  21811186.919   -19288240.670 7  -5746067.646 5
  22131601.021     1287974.488 7   5003606.621 5
  24268128.394    -2638504.566 5  -3179276.056 2
  23172352.005    10758543.967 6   -846613.049 3
  20312787.310     2069492.025 8    413740.171 9
  20513555.861     5951302.429 9  -3086218.958 9
  21495854.330     6144320.032 7  -6680184.199 7
 94  3 23 19 18 59.9990000  0  8  2 31 29 16 28 18 19 27
  23520282.947     2065817.506 5  -5225906.747 4
  21806103.669   -19314933.272 6  -5766867.072 5
  22147533.342     1371705.840 7   5068851.728 5
  24257711.626    -2693446.803 5  -3222088.158 2
  23178247.153    10789509.655 6   -822483.963 4
  20320678.777     2110953.606 8    446047.870 9
  20511019.946     5937984.519 9  -3096596.558 9
  21484904.950     6086763.218 7  -6725033.648 7
 94  3 23 19 19 29.9990000  0  8  2 31 29 16 28 18 19 27
  23503861.875     1979557.751 6  -5293122.103 3
  21801149.628   -19340983.172 7  -5787165.656 5
  22163537.732     1455795.386 7   5134375.949 5
  24247348.160    -2747855.402 5  -3264484.501 2
  23184255.894    10821079.016 6   -797884.485 3
  20328673.162     2152955.315 8    478776.422 9
  20508532.628     5924916.974 9  -3106779.080 9
  21473986.209     6029399.897 7  -6769732.327 7
 94  3 23 19 19 59.9990000  0  8  2 31 29 16 28 18 19 27
  23487500.911     1893573.224 6  -5360123.004 3
  21796311.937   -19366394.713 6  -5806966.840 5
  22179605.768     1540241.073 7   5200177.687 5
  24237092.920    -2801734.152 5  -3306467.933 2
  23190372.439    10853228.805 6   -772832.733 3
  20336767.139     2195509.390 8    511935.394 9
  20506099.813     5912119.668 9  -3116751.038 9
  21463100.924     5972209.084 7  -6814296.603 7
 94  3 23 19 20 29.9990000  0  8  2 31 29 16 28 18 19 27
  23471191.212     1807878.543 6  -5426897.993 3
  21791593.714   -19391178.188 6  -5826278.611 5
  22195745.845     1625040.271 7   5266254.859 5
  24226915.985    -2855080.375 5  -3348036.398 2
  23196593.163    10885939.635 6   -747343.802 4
  20344971.319     2238619.604 8    545527.738 9
  20503714.094     5899591.274 9  -3126513.424 9
  21452250.746     5915174.145 8  -6858739.404 7
 94  3 23 19 20 59.9990000  0  8  2 31 29 16 28 18 19 27
  23454940.363     1722475.772 6  -5493445.593 3
  21787000.863   -19415337.422 7  -5845103.973 5
  22211951.726     1710215.699 7   5332625.231 5
  24216898.330    -2907893.926 5  -3389189.849 2
  23202928.827    10919216.617 6   -721413.733 4
  20353284.744     2282298.544 8    579563.228 9
  20501382.758     5887332.687 9  -3136065.589 9
  21441423.531     5858294.571 7  -6903061.171 7
 94  3 23 19 21 29.9990000  0  8  2 31 29 16 28 18 19 27
  23438742.636     1637364.846 6  -5559765.768 3
  21782516.088   -19438893.795 6  -5863459.559 5
  22228235.283     1795788.469 7   5399305.157 5
  24206942.612    -2960177.649 5  -3429930.408 2
  23209367.169    10953065.955 6   -695037.656 3
  20361701.657     2326536.573 8    614034.379 9
  20499101.367     5875342.204 9  -3145408.837 9
  21430636.729     5801587.589 7  -6947248.427 7
 94  3 23 19 21 59.9990000  0  8  2 31 29 16 28 18 19 27
  23422606.067     1552547.371 6  -5625857.212 3
  21778152.729   -19461840.975 7  -5881340.455 5
  22244599.124     1881775.989 7   5466308.349 5
  24197088.794    -3011915.121 5  -3470245.352 2
  23215926.868    10987507.364 6   -668200.214 4
  20370226.316     2371333.496 8    648941.047 9
  20496872.560     5863626.777 9  -3154537.739 9
  21419881.165     5745079.485 8  -6991280.699 7
 94  3 23 19 22 29.9990000  0  8  2 31 29 16 28 18 19 27
  23406514.647     1468008.683 6  -5691731.444 3
  21773905.359   -19484164.558 7  -5898735.461 5
  22261040.432     1968176.407 7   5533633.201 5
  24187362.028    -3063091.195 5  -3510122.811 2
  23222589.066    11022559.581 6   -640886.846 3
  20378852.844     2416671.010 8    684268.918 9
  20494696.037     5852179.270 8  -3163457.876 9
  21409174.047     5688791.110 8  -7035141.783 7
 94  3 23 19 22 59.9990000  0  8  2 31 29 16 28 18 19 27
  23390476.590     1383729.370 5  -5757403.606 3
  21769774.459   -19505867.199 7  -5915646.581 5
  22277555.010     2054970.106 7   5601264.543 5
  24177739.619    -3113715.692 5  -3549570.438 2
  23229380.235    11058234.401 6   -613088.346 3
  20387577.374     2462528.436 8    720001.942 9
  20492561.605     5840989.190 9  -3172177.438 9
  21398507.042     5632732.156 8  -7078824.072 7
 94  3 23 19 23 29.9990000  0  8  2 31 29 16 28 18 19 27
  23374492.945     1299716.316 5  -5822868.259 3
  21765762.396   -19526941.002 7  -5932067.700 5
  22294143.995     2142136.230 7   5669186.064 5
  24168191.020    -3163776.772 5  -3588579.078 2
  23236284.095    11094524.227 6   -584810.562 3
  20396404.853     2508905.774 8    756140.088 9
  20490481.225     5830060.495 9  -3180693.312 9
  21387879.819     5576912.447 7  -7122319.945 7
 94  3 23 19 23 59.9990000  0  8  2 31 29 16 28 18 19 27
  23358555.439     1215963.161 5  -5888130.412 3
  21761878.735   -19547369.241 7  -5947985.799 5
  22310797.406     2229648.115 7   5737377.048 5
  24158771.810    -3213274.032 5  -3627148.350 2
  23243308.982    11131413.179 6   -556065.980 3
  20405331.773     2555813.951 8    792691.864 9
  20488449.232     5819392.579 9  -3189005.965 9
  21377304.790     5521329.387 7  -7165631.435 7
 94  3 23 19 24 29.9990000  0  8  2 31 29 16 28 18 19 27
  23342668.867     1132463.442 6  -5953195.067 3
  21758110.583   -19567154.117 7  -5963402.581 5
  22327513.624     2317482.360 7   5805819.185 5
  24149465.563    -3262216.751 5  -3665285.547 2
  23250436.907    11168882.397 6   -526869.238 3
  20414360.862     2603260.320 8    829663.034 9
  20486473.030     5808975.479 9  -3197123.192 9
  21366768.614     5465968.147 7  -7208770.039 7
 94  3 23 19 24 59.9990000  0  8  2 31 29 16 28 18 19 27
  23326828.043     1049226.447 6  -6018055.034 3
  21754469.064   -19586290.052 7  -5978313.661 5
  22344287.132     2405641.993 6   5874514.902 5
  24140260.645    -3310613.081 5  -3702997.005 2
  23257680.373    11206921.033 6   -497228.747 4
  20423496.138     2651264.567 8    867068.904 9
  20484539.668     5798818.259 9  -3205037.905 9
  21356272.670     5410821.906 7  -7251741.124 7
 94  3 23 19 25 29.9990000  0  8  2 31 29 16 28 18 19 27
  23311036.925      966253.392 6  -6082709.299 3
  21750952.439   -19604762.383 7  -5992707.704 5
  22361128.453     2494123.774 6   5943461.635 5
  24131145.336    -3358473.985 5  -3740291.243 2
  23265023.459    11245516.156 6   -467154.680 3
  20432737.330     2699828.791 8    904911.110 9
  20482658.411     5788933.161 9  -3212740.584 9
  21345820.256     5355878.658 8  -7294554.052 7
 94  3 23 19 25 59.9990000  0  8  2 31 29 16 28 18 19 27
  23295292.155      883536.250 6  -6147164.158 3
  21747567.692   -19622563.357 7  -6006578.584 5
  22378023.017     2582932.234 6   6012662.895 5
  24122138.041    -3405811.428 5  -3777177.546 2
  23272476.870    11284690.684 6   -436629.138 3
  20442082.821     2748940.162 8    943179.658 9
  20480827.668     5779324.399 9  -3220227.945 9
  21335402.049     5301125.592 8  -7337218.766 7
 94  3 23 19 26 29.9990000  0  8  2 31 29 16 28 18 19 27
  23279608.273      801094.878 6  -6211404.133 3
  21744306.670   -19639699.788 7  -6019931.621 5
  22394991.600     2672088.347 6   6082135.076 5
  24113222.963    -3452619.952 5  -3813651.766 2
  23280038.745    11324468.518 6   -405633.412 4
  20451531.409     2798594.310 8    981871.179 9
  20479053.496     5769995.430 9  -3227497.281 9
  21325015.559     5246557.882 8  -7379739.054 7
 94  3 23 19 26 59.9990000  0  8  2 31 29 16 28 18 19 27
  23263973.946      718942.605 5  -6275418.870 3
  21741164.695   -19656184.764 7  -6032777.039 5
  22412023.289     2761605.003 6   6151888.195 5
  24104408.615    -3498900.492 5  -3849714.530 2
  23287733.218    11364855.927 6   -374162.751 3
  20461080.129     2848779.016 8   1020976.108 9
  20477330.769     5760945.349 9  -3234549.290 9
  21314668.222     5192173.272 8  -7422116.675 7
 94  3 23 19 27 29.9990000  0  8  2 31 29 16 28 18 19 27
  23248390.614      637076.463 6  -6339210.609 3
  21738152.890   -19672027.453 7  -6045122.011 5
  22429123.451     2851482.301 6   6221922.354 5
  24095702.073    -3544653.331 5  -3885366.118 2
  23295530.070    11405846.478 6   -342222.101 3
  20470731.617     2899491.842 8   1060492.543 9
  20475661.105     5752160.373 9  -3241394.742 9
  21304351.944     5137964.786 8  -7464357.034 7
 94  3 23 19 27 59.9990000  0  8  2 31 29 16 28 18 19 27
  23232868.500      555505.936 5  -6402771.982 3
  21735258.723   -19687239.458 7  -6056975.494 5
  22446308.184     2941749.183 6   6292260.055 4
  24087112.059    -3589862.795 5  -3920594.314 2
  23303448.278    11447443.622 6   -309808.752 4
  20480487.823     2950750.728 8   1100434.489 9
  20474036.739     5743629.044 9  -3248042.539 9
  21294072.241     5083946.955 8  -7506448.837 7
 94  3 23 19 28 29.9990000  0  8  2 31 29 16 28 18 19 27
  23217404.036      474233.112 5  -6466101.386 3
  21732477.909   -19701836.962 7  -6068350.192 5
  22463557.852     3032412.652 6   6362906.833 4
  24078608.027    -3634526.762 5  -3955397.380 2
  23311470.425    11489615.800 6   -276947.317 3
  20490346.918     3002568.820 8   1140812.192 9
  20472459.711     5735338.745 9  -3254502.532 9
  21283828.932     5030119.311 8  -7548392.441 7
 94  3 23 19 28 59.9990000  0  8  2 31 29 16 28 18 19 27
  23201992.635      393246.107 6  -6529208.116 3
  21729819.019   -19715801.532 7  -6079231.670 5
  22480888.645     3123471.822 6   6433861.894 4
  24070215.247    -3678641.322 5  -3989772.422 2
  23319606.732    11532348.289 6   -243649.332 3
  20500313.698     3054944.229 8   1181624.138 9
  20470926.872     5727290.268 9  -3260774.063 9
  21273629.003     4976494.274 8  -7590178.170 7
 94  3 23 19 29 29.9990000  0  8  2 31 29 16 28 18 19 27
  23186636.066      312532.290 6  -6592101.933 3
  21727287.992   -19729122.527 7  -6089611.661 5
  22498290.697     3214911.109 6   6505113.185 4
  24061945.082    -3722206.467 5  -4023719.314 2
  23327838.374    11575636.222 6   -209918.459 3
  20510381.988     3107868.138 8   1222863.502 9
  20469440.411     5719485.790 9  -3266855.489 9
  21263461.992     4923082.196 8  -7631797.964 7
 94  3 23 19 29 59.9990000  0  8  2 31 29 16 28 18 19 27
  23171330.821      232098.272 6  -6654777.743 3
  21724874.572   -19741806.850 7  -6099495.519 5
  22515758.015     3306708.553 6   6576643.605 4
  24053743.660    -3765220.496 5  -4057236.694 2
  23336188.343    11619482.186 6   -175752.765 3
  20520556.105     3161312.575 8   1264508.484 9
  20468002.697     5711931.267 9  -3272742.129 9
  21253339.259     4869896.650 8  -7673241.242 7
 94  3 23 19 30 29.9990000  0  8  2 31 29 16 28 18 19 27
  23156077.771      151949.380 6  -6717231.390 3
  21722585.177   -19753833.496 7  -6108866.938 5
  22533288.559     3398838.033 6   6648432.658 4
  24045665.752    -3807678.691 6  -4090321.053 2
  23344636.195    11663887.614 6   -141151.179 3
  20530820.759     3215257.928 8   1306543.767 9
  20466616.276     5704638.651 9  -3278424.706 9
  21243264.284     4816930.448 8  -7714513.601 7
 94  3 23 19 30 59.9990000  0  8  2 31 29 16 28 18 19 27
  23140879.403       72086.212 6  -6779462.406 3
  21720422.564   -19765195.116 7  -6117720.152 5
  22550878.462     3491278.026 6   6720463.727 4
  24037702.335    -3849584.877 6  -4122975.218 2
  23353194.130    11708863.966 6   -106104.690 3
  20541179.128     3269692.329 8   1348960.138 9
  20465280.731     5697617.955 9  -3283895.391 9
  21233222.586     4764191.561 7  -7755608.811 7
 94  3 23 19 31 29.9990000  0  8  2 31 29 16 28 18 19 27
  23125740.363       -7479.584 6  -6841461.662 3
  21718390.301   -19775897.571 7  -6126059.706 5
  22568528.563     3584014.137 6   6792725.482 4
  24029821.811    -3890944.547 5  -4155203.584 2
  23361859.331    11754413.542 6    -70611.503 3
  20551630.972     3324618.411 8   1391759.627 9
  20463998.848     5690878.820 9  -3289146.671 9
  21223229.694     4711674.959 7  -7796530.838 7
 94  3 23 19 31 59.9990000  0  8  2 31 29 16 28 18 19 27
  23110649.890      -86749.160 6  -6903230.093 3
  21716476.486   -19785940.696 7  -6133885.514 5
  22586231.397     3677057.285 6   6865226.536 4
  24022058.835    -3931754.666 5  -4187003.719 2
  23370637.045    11800538.160 6    -34670.251 3
  20562180.968     3380048.868 8   1434952.148 9
  20462769.160     5684428.670 9  -3294172.782 9
  21213278.203     4659365.497 8  -7837291.451 7
 94  3 23 19 32 29.9990000  0  8  2 31 29 16 28 18 19 27
  23095624.292     -165731.987 6  -6964775.136 3
  21714687.115   -19795325.508 7  -6141198.338 5
  22604002.345     3770429.517 6   6937983.958 4
  24014408.791    -3972003.687 6  -4218366.555 2
  23379522.923    11847239.100 6      1720.032 3
  20572826.479     3436008.824 8   1478557.258 9
  20461599.819     5678280.499 9  -3298963.565 9
  21203362.777     4607250.606 8  -7877900.436 8
 94  3 23 19 32 59.9990000  0  8  2 31 29 16 28 18 19 27
  23080653.016     -244418.583 6  -7026089.296 3
  21713028.153   -19804068.889 7  -6148011.353 5
  22621833.880     3864136.850 6   7011002.557 4
  24006832.406    -4011683.391 5  -4249285.825 2
  23388520.384    11894522.376 6     38564.177 3
  20583577.816     3492509.209 8   1522583.484 9
  20460485.221     5672438.755 9  -3303515.568 9
  21193486.445     4555343.458 8  -7918347.553 8
 94  3 23 19 33 29.9990000  0  8  2 31 29 16 28 18 19 27
  23065733.275     -322812.856 6  -7087175.669 3
  21711484.792   -19812174.841 7  -6154327.658 5
  22639726.064     3958180.455 6   7084283.128 4
  23999409.544    -4050780.024 6  -4279750.766 2
  23397633.475    11942381.084 6     75856.668 3
  20594431.442     3549538.076 8   1567021.508 9
  20459430.701     5666883.086 9  -3307844.661 9
  21183643.329     4503626.926 8  -7958646.123 8
 94  3 23 19 33 59.9990000  0  8  2 31 29 16 28 18 19 27
  23050868.126     -400934.103 6  -7148049.277 4
  21710060.748   -19819667.648 7  -6160166.212 5
  22657684.202     4052549.424 6   7157817.286 4
  23992080.848    -4089296.703 5  -4309763.756 2
  23406845.738    11990800.307 6    113585.897 3
  20605381.241     3607079.995 8   1611859.325 9
  20458423.098     5661580.105 9  -3311976.857 9
  21173834.210     4452087.553 8  -7998806.661 8
 94  3 23 19 34 29.9990000  0  8  2 31 29 16 28 18 19 27
  23036056.490     -478783.134 6  -7208710.833 3
  21708745.408   -19826549.848 7  -6165528.958 5
  22675701.788     4147218.882 6   7231585.526 4
  23984836.273    -4127243.332 5  -4339332.643 2
  23416164.067    12039758.451 6    151735.059 3
  20616426.555     3665126.022 8   1657089.952 9
  20457455.129     5656503.918 9  -3315932.315 9
  21164061.575     4400731.479 8  -8038824.360 8
 94  3 23 19 34 59.9990000  0  8  2 31 29 16 28 18 19 27
  23021289.793     -556365.834 6  -7269164.843 3
  21707556.491   -19832813.823 7  -6170409.965 5
  22693767.522     4242167.782 6   7305571.581 4
  23977735.989    -4164638.642 5  -4368471.878 2
  23425574.432    12089241.456 5    190293.218 3
  20627563.725     3723653.450 8   1702695.700 9
  20456529.429     5651631.046 9  -3319729.365 9
  21154328.333     4349564.588 8  -8078694.666 8
 94  3 23 19 35 29.9990000  0  8  2 31 29 16 28 18 19 27
  23006573.461     -633711.524 6  -7329434.147 4
  21706483.144   -19838464.641 7  -6174813.169 5
  22711891.295     4337395.897 6   7379775.140 4
  23970719.166    -4201506.601 5  -4397200.138 2
  23435093.203    12139231.100 6    229246.152 3
  20638791.732     3782648.708 8   1748665.980 8
  20455638.086     5646951.179 9  -3323376.018 9
  21144623.032     4298578.794 8  -8118423.839 8
 94  3 23 19 35 59.9990000  0  8  2 31 29 16 28 18 19 27
  22991898.800     -710812.765 6  -7389512.998 4
  21705524.978   -19843495.911 7  -6178733.626 5
  22730067.112     4432913.909 6   7454204.619 4
  23963808.381    -4237852.446 5  -4425521.591 2
  23444701.941    12189732.811 6    268598.097 3
  20650111.865     3842134.404 8   1795018.425 8
  20454791.383     5642489.152 9  -3326852.928 9
  21134959.222     4247803.225 8  -8157989.190 8
 94  3 23 19 36 29.9990000  0  8  2 31 29 16 28 18 19 27
  22977276.572     -787660.861 6  -7449394.579 3
  21704689.366   -19847885.247 7  -6182153.914 5
  22748299.230     4528737.641 6   7528872.310 4
  23956965.858    -4273676.342 5  -4453436.311 2
  23454414.227    12240756.670 6    308356.943 3
  20661527.062     3902117.479 8   1841758.430 8
  20453985.750     5638263.582 9  -3330145.573 9
  21125337.233     4197245.390 8  -8197384.894 8
 94  3 23 19 36 59.9990000  0  8  2 31 29 16 28 18 19 27
  22962702.282     -864256.502 5  -7509079.418 4
  21703971.543   -19851643.295 7  -6185082.223 5
  22766594.934     4624872.660 6   7603782.586 4
  23950268.224    -4308976.623 5  -4480943.094 2
  23464220.768    12292315.324 6    348532.464 3
  20673027.791     3962576.723 8   1888869.475 8
  20453231.233     5634282.050 9  -3333248.073 9
  21115757.965     4146894.129 8  -8236619.613 8
 94  3 23 19 37 29.9990000  0  8  2 31 29 16 28 18 19 27
  22948173.920     -940596.748 6  -7568565.214 4
  21703379.183   -19854770.734 7  -6187519.153 5
  22784946.640     4721308.274 6   7678927.066 4
  23943650.186    -4343745.221 5  -4508035.519 2
  23474131.127    12344405.744 6    389122.372 3
  20684629.789     4023527.400 8   1936363.482 8
  20452519.226     5630552.024 9  -3336154.589 9
  21106211.854     4096730.538 8  -8275708.100 8
 94  3 23 19 37 59.9990000  0  8  2 31 29 16 28 18 19 27
  22933698.111    -1016669.466 6  -7627842.607 4
  21702905.811   -19857245.585 7  -6189447.622 5
  22803351.049     4818027.877 6   7754292.859 4
  23937130.899    -4377976.907 5  -4534709.550 2
  23484150.461    12397035.621 6    430132.662 3
  20696323.613     4084979.869 8   1984248.458 8
  20451855.605     5627065.400 9  -3338871.426 9
  21096700.998     4046737.400 8  -8314663.786 8
 94  3 23 19 38 29.9990000  0  8  2 31 29 16 28 18 19 27
  22919271.199    -1092466.015 6  -7686904.819 3
  21702559.161   -19859062.853 7  -6190863.656 5
  22821811.309     4915038.530 6   7829885.427 4
  23930718.009    -4411665.359 5  -4560960.331 2
  23494267.617    12450207.684 6    471565.393 3
  20708112.022     4146923.212 8   2032515.957 8
  20451241.150     5623831.140 9  -3341391.626 9
  21087218.592     3996908.518 8  -8353491.459 8
 94  3 23 19 38 59.9990000  0  8  2 31 29 16 28 18 19 27
  22904900.018    -1167987.558 6  -7745752.724 3
  21702340.822   -19860237.913 7  -6191779.274 5
  22840326.701     5012325.766 6   7905693.530 4
  23924421.558    -4444814.814 5  -4586791.073 2
  23504492.099    12503913.598 6    513414.099 3
  20719989.590     4209357.253 8   2081165.812 8
  20450672.714     5620853.479 9  -3343711.874 9
  21077765.956     3947244.152 8  -8392190.953 8
 94  3 23 19 39 29.9990000  0  8  2 31 29 16 28 18 19 27
  22890576.743    -1243238.502 6  -7804389.752 4
  21702234.965   -19860778.151 7  -6192200.225 5
  22858889.310     5109882.426 6   7981711.537 3
  23918211.087    -4477440.360 6  -4612213.616 2
  23514807.747    12558143.275 5    555670.971 3
  20731965.849     4272284.474 8   2130199.958 8
  20450154.613     5618118.539 9  -3345842.998 9
  21068345.998     3897747.455 8  -8430759.797 8
 94  3 23 19 39 59.9990000  0  8  2 31 29 16 28 18 19 27
  22876314.507    -1318214.894 6  -7862812.850 4
  21702251.244   -19860698.492 7  -6192138.122 5
  22877513.167     5207726.118 6   8057953.245 4
  23912105.184    -4509540.592 6  -4637226.813 2
  23525231.141    12612903.102 6    598340.935 3
  20744033.005     4335682.415 8   2179600.888 8
  20449675.604     5615619.077 9  -3347790.638 9
  21058964.262     3848438.763 8  -8469182.142 8
 94  3 23 19 40 29.9990000  0  8  2 31 29 16 28 18 19 27
  22862093.282    -1392921.612 6  -7921025.814 4
  21702381.864   -19860023.755 7  -6191612.344 5
  22896189.038     5305864.315 6   8134424.383 3
  23906107.176    -4541103.414 5  -4661821.258 2
  23535744.833    12668178.970 6    641412.944 3
  20756181.255     4399538.853 8   2229359.085 8
  20449248.100     5613365.960 9  -3349546.308 9
  21049619.282     3799341.294 8  -8507439.909 8
 94  3 23 19 40 59.9990000  0  8  2 31 29 16 28 18 19 27
  22847935.943    -1467364.682 6  -7979033.330 4
  21702622.567   -19858743.231 7  -6190614.526 5
  22914911.407     5404276.738 6   8211109.257 4
  23900190.622    -4572114.768 5  -4685985.965 2
  23546361.263    12723971.876 5    684887.928 3
  20768423.639     4463863.709 8   2279482.322 8
  20448861.698     5611341.435 9  -3351123.856 9
  21040320.919     3750458.887 8  -8545530.092 8
 94  3 23 19 41 29.9990000  0  8  2 31 29 16 28 18 19 27
  22833816.078    -1541554.126 6  -8036843.198 5
  21702987.145   -19856833.561 7  -6189126.474 5
  22933690.646     5502960.189 6   8288005.240 4
  23894399.292    -4602560.950 6  -4709710.291 2
  23557069.190    12780276.197 5    728761.344 3
  20780753.893     4528652.540 8   2329967.067 8
  20448519.065     5609536.582 9  -3352530.237 9
  21031053.704     3701781.727 8  -8583460.338 8
 94  3 23 19 41 59.9990000  0  8  2 31 29 16 28 18 19 27
  22819742.261    -1615492.799 6  -8094457.694 4
  21703468.851   -19854281.416 7  -6187137.775 5
  22952516.923     5601915.516 5   8365113.154 4
  23888721.312    -4632427.016 5  -4732982.516 2
  23567893.077    12837074.407 6    773019.638 3
  20793169.678     4593911.622 8   2380818.257 8
  20448218.133     5607969.866 9  -3353751.062 9
  21021831.339     3653302.709 8  -8621236.183 8
 94  3 23 19 42 29.9990000  0  8  2 31 29 16 28 18 19 27
  22805719.919    -1689188.034 6  -8151882.537 4
  21704080.428   -19851078.541 7  -6184642.009 6
  22971401.240     5701120.471 5   8442415.512 4
  23883146.132    -4661725.673 6  -4755812.704 2
  23578781.509    12894341.315 6    817643.192 3
  20805678.009     4659643.836 8   2432038.116 8
  20447967.956     5606634.900 9  -3354791.298 9
  21012637.064     3605001.704 8  -8658873.329 8
 94  3 23 19 42 59.9990000  0  8  2 31 29 16 28 18 19 27
  22791747.641    -1762616.870 6  -8209099.799 4
  21704821.845   -19847196.880 7  -6181617.322 5
  22990324.889     5800585.043 5   8519920.206 4
  23877686.402    -4690463.430 5  -4778205.815 2
  23589772.051    12952092.735 5    862644.230 3
  20818278.226     4725858.169 8   2483633.621 8
  20447753.485     5605531.575 9  -3355651.036 9
  21003479.963     3556865.839 8  -8696381.782 8
 94  3 23 19 43 29.9990000  0  8  2 31 29 16 28 18 19 27
  22777827.678    -1835752.522 6  -8266088.583 4
  21705688.754   -19842642.909 7  -6178068.764 5
  23009312.365     5900327.524 6   8597641.475 4
  23872314.151    -4718639.601 5  -4800161.298 2
  23600854.628    13010332.215 5    908025.554 3
  20830970.479     4792550.388 8   2535601.519 8
  20447596.334     5604678.514 9  -3356315.768 9
  20994349.364     3508901.467 8  -8733756.613 8
 94  3 23 19 43 59.9990000  0  8  2 31 29 16 28 18 19 27
  22763968.782    -1908574.894 6  -8322833.270 4
  21706675.791   -19837444.753 7  -6174018.227 5
  23028339.862     6000349.322 5   8675580.359 3
  23867046.557    -4746259.743 5  -4821683.546 2
  23612031.701    13069066.995 5    953792.873 3
  20843754.499     4859718.431 8   2587940.221 8
  20447480.254     5604075.673 9  -3356785.520 9
  20985262.145     3461131.862 8  -8770979.681 8
 94  3 23 19 44 29.9990000  0  8  2 31 29 16 28 18 19 27
  22750173.832    -1981090.532 6  -8379338.893 4
  21707785.623   -19831622.567 7  -6169481.446 6
  23047422.611     6100629.244 6   8753720.396 3
  23861897.742    -4773346.093 5  -4842789.736 2
  23623307.854    13128313.268 5    999958.760 3
  20856620.542     4927346.122 8   2640637.078 7
  20447409.563     5603703.388 9  -3357075.616 9
  20976207.304     3413556.905 8  -8808051.075 8
 94  3 23 19 44 59.9990000  0  8  2 31 29 16 28 18 19 27
  22736434.284    -2053297.735 6  -8435604.157 4
  21709008.926   -19825189.146 7  -6164468.380 5
  23066554.736     6201157.841 6   8832054.173 3
  23856855.563    -4799896.503 5  -4863478.404 2
  23634681.920    13188089.448 5   1046537.543 3
  20869576.673     4995430.712 8   2693689.949 7
  20447383.901     5603560.418 9  -3357187.030 9
  20967192.095     3366182.646 8  -8844966.073 8
 94  3 23 19 45 29.9990000  0  8  2 31 29 16 28 18 19 27
  22722750.797    -2125213.831 6  -8491642.607 4
  21710343.332   -19818171.698 7  -6159000.237 5
  23085729.942     6301916.227 6   8910567.078 3
  23851896.935    -4825915.166 5  -4883752.776 2
  23646150.930    13248380.742 5   1093517.754 3
  20882619.683     5063968.101 8   2747095.652 8
  20447392.445     5603640.746 9  -3357124.453 9
  20958217.928     3319007.600 8  -8881725.845 8
 94  3 23 19 45 59.9990000  0  8  2 31 29 16 28 18 19 27
  22709109.311    -2196878.323 6  -8547485.032 4
  21711786.653   -19810586.307 7  -6153089.533 6
  23104946.368     6402886.837 6   8989245.275 3
  23847050.550    -4851424.299 6  -4903630.025 2
  23657719.382    13309171.131 5   1140886.799 3
  20895746.186     5132953.839 8   2800850.709 8
  20447449.645     5603937.638 9  -3356893.104 9
  20949275.239     3272019.902 8  -8918339.631 9
 94  3 23 19 46 29.9990000  0  8  2 31 29 16 28 18 19 27
  22695519.629    -2268303.837 6  -8603141.266 4
  21713343.235   -19802414.710 7  -6146722.032 6
  23124197.451     6504066.380 6   9068086.334 3
  23842299.769    -4876424.017 5  -4923110.356 2
  23669382.058    13370441.238 5   1188629.719 3
  20908960.258     5202387.470 8   2854954.767 8
  20447552.354     5604460.845 9  -3356485.420 9
  20940362.019     3225199.159 8  -8954823.320 9
 94  3 23 19 46 59.9990000  0  8  2 31 29 16 28 18 19 27
  22681971.558    -2339498.116 6  -8658617.273 4
  21715010.651   -19793650.931 7  -6139893.115 6
  23143491.974     6605468.613 6   9147100.857 3
  23837629.333    -4900900.415 5  -4942182.881 2
  23681130.145    13432165.248 5   1236726.306 3
  20922254.884     5272263.685 8   2909403.714 8
  20447697.304     5605223.241 9  -3355891.359 9
  20931485.074     3178543.438 8  -8991178.419 9
 94  3 23 19 47 29.9990000  0  8  2 31 29 16 28 18 19 27
  22668465.368    -2410472.784 6  -8713922.162 4
  21716785.212   -19784289.141 7  -6132598.230 6
  23162833.384     6707109.889 6   9226301.725 3
  23833074.646    -4924847.406 6  -4960842.911 2
  23692958.996    13494332.489 5   1285168.217 3
  20935638.309     5342577.119 8   2964193.339 8
  20447891.839     5606247.391 9  -3355093.335 9
  20922641.257     3132057.831 8  -9027400.954 9
 94  3 23 19 47 59.9990000  0  8  2 31 29 16 28 18 19 27
  22655001.029    -2481227.781 6  -8769055.939 4
  21718690.304   -19774307.510 7  -6124820.315 6
  23182225.759     6808994.590 6   9305692.179 3
  23828624.017    -4948257.122 6  -4979084.303 2
  23704881.292    13556939.006 5   1333952.495 3
  20949098.721     5413312.824 8   3019312.041 7
  20448140.037     5607543.035 9  -3354083.752 9
  20913829.547     3085752.873 8  -9063482.735 9
 94  3 23 19 48 29.9990000  0  8  2 31 29 16 28 18 19 27
  22641578.481    -2551751.321 6  -8824009.276 4
  21720715.282   -19763682.919 7  -6116541.423 6
  23201660.705     6911119.480 6   9385269.840 3
  23824273.788    -4971118.674 5  -4996898.519 2
  23716871.611    13619988.353 5   1383081.828 3
  20962636.029     5484459.991 8   3074751.342 7
  20448436.802     5609098.391 9  -3352871.786 9
  20905051.204     3039627.992 8  -9099424.187 9
 94  3 23 19 48 59.9990000  0  8  2 31 29 16 28 18 19 27
  22628203.810    -2622039.772 6  -8878779.439 4
  21722852.112   -19752426.470 7  -6107770.157 6
  23221132.704     7013473.339 6   9465025.938 3
  23820009.181    -4993441.096 5  -5014292.639 2
  23728952.978    13683499.559 5   1432570.992 3
  20976251.403     5556006.951 8   3130502.171 7
  20448776.107     5610890.260 9  -3351475.534 9
  20896311.475     2993688.212 8  -9135221.409 9
 94  3 23 19 49 29.9990000  0  8  2 31 29 16 28 18 19 27
  22614877.346    -2692073.637 6  -8933351.252 4
  21725113.417   -19740530.784 7  -6098500.793 6
  23240651.682     7116046.958 5   9544953.201 3
  23815876.902    -5015230.185 5  -5031271.197 2
  23741135.944    13747485.616 5   1482430.227 3
  20989947.512     5627971.214 8   3186578.169 7
  20449157.773     5612910.791 9  -3349901.114 9
  20887603.163     2947934.592 8  -9170873.566 9
 94  3 23 19 49 59.9990000  0  8  2 31 29 16 28 18 19 27
  22601604.335    -2761840.098 6  -8987714.672 4
  21727501.803   -19727994.029 7  -6088731.863 6
  23260211.820     7218821.232 5   9625036.892 3
  23811826.795    -5036485.795 6  -5047833.991 2
  23753395.177    13811940.220 5   1532654.578 3
  21003722.076     5700362.283 8   3242986.746 7
  20449582.639     5615133.208 9  -3348169.357 9
  20878931.726     2902364.891 8  -9206382.410 9
 94  3 23 19 50 29.9990000  0  8  2 31 29 16 28 18 19 27
  22588374.734    -2831333.892 6  -9041865.614 5
  21730007.979   -19714832.249 7  -6078475.952 5
  23279799.030     7321799.116 5   9705279.156 3
  23807887.852    -5057209.823 5  -5063982.612 2
  23765751.812    13876866.481 5   1583246.366 3
  21017581.661     5773195.317 8   3299739.704 7
  20450043.929     5617547.889 9  -3346287.802 9
  20870291.948     2856973.108 8  -9241752.644 9
 94  3 23 19 50 59.9990000  0  8  2 31 29 16 28 18 19 27
  22575205.061    -2900556.550 6  -9095805.290 5
  21732624.957   -19701073.432 7  -6067754.778 6
  23299438.255     7424982.567 5   9785681.649 3
  23804041.935    -5077417.657 5  -5079729.014 2
  23778190.831    13942255.096 5   1634198.528 3
  21031525.998     5846473.197 8   3356839.297 7
  20450539.786     5620159.939 9  -3344252.441 9
  20861688.534     2811752.755 8  -9276989.242 9
 94  3 23 19 51 29.9990000  0  8  2 31 29 16 28 18 19 27
  22562079.008    -2969518.303 6  -9149541.674 5
  21735360.923   -19686710.806 7  -6056563.128 6
  23319115.732     7528385.293 5   9866255.011 3
  23800288.833    -5097105.996 5  -5095070.607 2
  23790725.394    14008089.574 5   1685498.092 3
  21045558.773     5920208.764 8   3414295.520 7
  20451079.622     5622993.438 9  -3342044.530 9
  20853116.688     2766708.962 8  -9312088.286 9
 94  3 23 19 51 59.9990000  0  8  2 31 29 16 28 18 19 27
  22549005.628    -3038221.841 6  -9203076.848 5
  21738209.641   -19671747.181 7  -6044903.142 5
  23338844.564     7632014.640 5   9947004.924 3
  23796652.410    -5116261.412 5  -5109996.932 2
  23803338.562    14074374.283 5   1737148.423 3
  21059670.963     5994382.776 8   3472093.386 7
  20451664.877     5626050.114 9  -3339662.713 9
  20844577.729     2721855.825 8  -9347038.781 9
 94  3 23 19 52 29.9990000  0  8  2 31 29 16 28 18 19 27
  22535984.982    -3106668.081 7  -9256411.515 5
  21741166.883   -19656195.153 7  -6032784.671 5
  23358601.547     7735881.852 5  10027940.259 3
  23793092.465    -5134892.511 5  -5124514.713 2
  23816043.976    14141120.515 5   1789158.455 3
  21073866.975     6068977.081 8   3530218.769 7
  20452287.576     5629342.565 9  -3337097.162 9
  20836081.281     2677188.697 8  -9381844.311 9
 94  3 23 19 52 59.9990000  0  8  2 31 29 16 28 18 19 27
  22523005.917    -3174866.382 6  -9309552.987 5
  21744240.835   -19640042.830 7  -6020198.437 6
  23378419.147     7839978.509 6  10109054.294 3
  23789659.392    -5152999.962 5  -5138624.451 2
  23828826.677    14208322.606 5   1841523.679 3
  21088141.114     6143976.334 8   3588659.692 7
  20452961.779     5632874.094 9  -3334345.326 9
  20827618.710     2632715.842 8  -9416498.477 9
 94  3 23 19 53 29.9990000  0  8  2 31 29 16 28 18 19 27
  22510073.860    -3242823.661 7  -9362506.653 5
  21747430.267   -19623287.020 7  -6007141.945 6
  23398264.988     7944292.194 6  10190337.500 3
  23786320.033    -5170564.882 5  -5152311.451 2
  23841703.302    14275965.953 6   1894232.703 2
  21102488.042     6219371.542 8   3647409.166 7
  20453677.324     5636631.386 9  -3331417.578 9
  20819193.762     2588448.613 8  -9450992.427 9
 94  3 23 19 53 59.9990000  0  8  2 31 29 16 28 18 19 27
  22497195.166    -3310509.622 7  -9415248.941 5
  21750729.303   -19605930.626 7  -5993617.478 6
  23418154.959     8048818.712 6  10271786.540 3
  23783079.547    -5187585.634 5  -5165574.377 2
  23854658.114    14344049.870 5   1947285.076 2
  21116909.228     6295151.967 8   3706458.798 7
  20454433.340     5640604.360 9  -3328321.759 9
  20810810.246     2544387.231 8  -9485325.947 9
 94  3 23 19 54 29.9990000  0  8  2 31 29 16 28 18 19 27
  22484368.126    -3377915.873 7  -9467773.213 5
  21754147.207   -19587964.501 7  -5979617.910 6
  23438084.921     8153556.582 6  10353400.230 3
  23779951.752    -5204068.528 5  -5178418.186 2
  23867689.822    14412559.850 5   2000669.442 2
  21131403.024     6371335.492 8   3765822.509 7
  20455231.628     5644807.393 9  -3325046.676 9
  20802464.114     2500525.984 8  -9519503.532 9
 94  3 23 19 54 59.9990000  0  8  2 31 29 16 28 18 19 27
  22471591.271    -3445040.555 7  -9520078.094 5
  21757682.540   -19569378.983 7  -5965135.655 6
  23458057.964     8258493.223 6  10435168.845 3
  23776911.617    -5220006.605 5  -5190837.554 2
  23880805.562    14481477.248 5   2054371.240 2
  21145980.642     6447942.061 8   3825515.904 7
  20456073.715     5649235.693 9  -3321596.063 9
  20794154.976     2456867.066 8  -9553523.457 9
 94  3 23 19 55 29.9990000  0  8  2 31 29 16 28 18 19 27
  22458874.765    -3511861.502 6  -9572146.286 5
  21761341.687   -19550174.656 7  -5950171.239 6
  23478061.676     8363618.370 6  10517084.327 3
  23773980.426    -5235409.756 5  -5202840.031 2
  23893999.518    14550806.435 5   2108393.982 2
  21160644.631     6524980.847 8   3885546.053 7
  20456958.432     5653900.084 9  -3317961.479 9
  20785884.632     2413398.061 8  -9587395.408 9
 94  3 23 19 55 59.9990000  0  8  2 31 29 16 28 18 19 27
  22446219.655    -3578369.326 6  -9623970.514 5
  21765114.125   -19530337.830 7  -5934713.991 6
  23498098.755     8468928.001 6  10599143.552 3
  23771132.967    -5250293.298 5  -5214437.673 2
  23907274.598    14620560.469 5   2162747.705 3
  21175385.636     6602453.879 8   3945914.580 7
  20457894.804     5658808.919 8  -3314136.427 9
  20777647.384     2370110.712 8  -9621125.810 9
 94  3 23 19 56 29.9990000  0  8  2 31 29 16 28 18 19 27
  22433617.700    -3644597.780 7  -9675577.028 5
  21769009.958   -19509867.079 7  -5918762.758 5
  23518171.239     8574409.843 6  10681337.050 3
  23768415.888    -5264659.461 5  -5225632.047 2
  23920630.592    14690744.526 5   2217436.510 2
  21190210.223     6680363.270 8   4006623.136 7
  20458876.714     5663959.326 8  -3310123.129 9
  20769439.067     2327007.075 8  -9654713.050 9
 94  3 23 19 56 59.9990000  0  8  2 31 29 16 28 18 19 27
  22421064.640    -3710561.104 7  -9726976.983 5
  21773025.978   -19488763.183 7  -5902318.159 5
  23538281.347     8680063.593 6  10763664.367 3
  23765774.866    -5278505.663 6  -5236421.350 2
  23934071.847    14761390.154 5   2272484.973 2
  21205118.182     6758702.531 8   4067666.664 7
  20459900.266     5669348.948 8  -3305923.447 9
  20761279.106     2284103.197 8  -9688144.661 9
 94  3 23 19 57 29.9990000  0  8  2 31 29 16 28 18 19 27
  22408559.397    -3776272.478 7  -9778180.608 5
  21777161.075   -19467036.645 7  -5885388.393 5
  23558413.370     8785890.506 5  10846126.668 3
  23763242.430    -5291838.279 5  -5246810.446 2
  23947603.729    14832494.521 5   2327890.945 2
  21220103.368     6837449.914 8   4129028.202 7
  20460971.334     5674973.532 8  -3301540.648 9
  20753155.330     2241400.812 8  -9721419.236 9
 94  3 23 19 57 59.9990000  0  8  2 31 29 16 28 18 19 27
  22396102.451    -3841747.033 7  -9829199.721 5
  21781410.034   -19444697.510 7  -5867981.293 5
  23578596.447     8891908.711 5  10928738.049 3
  23760805.177    -5304633.849 5  -5256781.039 2
  23961226.208    14904062.817 5   2383658.323 2
  21235163.053     6916600.062 8   4190703.604 7
  20462085.903     5680823.461 8  -3296982.277 9
  20745067.678     2198910.501 8  -9754528.576 9
 94  3 23 19 58 29.9990000  0  8  2 31 29 16 28 18 19 27
  22383685.167    -3906985.365 6  -9880034.686 5
  21785775.192   -19421756.967 7  -5850105.551 5
  23598802.999     8998128.790 5  11011506.644 2
  23758477.019    -5316878.132 5  -5266322.099 2
  23974930.261    14976097.694 5   2439789.354 2
  21250301.972     6996144.770 8   4252686.426 7
  20463245.170     5686913.222 9  -3292237.017 9
  20737029.163     2156638.751 8  -9787467.585 9
 94  3 23 19 58 59.9990000  0  8  2 31 29 16 28 18 19 27
  22371322.176    -3971969.580 6  -9930671.663 5
  21790258.768   -19398223.605 7  -5831767.876 5
  23619061.174     9104544.881 5  11094428.074 2
  23756249.051    -5328568.260 5  -5275431.309 2
  23988727.130    15048575.744 5   2496265.692 2
  21265512.572     7076075.849 8   4314970.323 7
  20464450.456     5693247.088 9  -3287301.533 9
  20729019.398     2114567.506 8  -9820250.380 9
 94  3 23 19 59 29.9990000  0  8  2 31 29 16 28 18 19 27
  22359006.912    -4036685.438 7  -9981099.529 5
  21794848.620   -19374097.776 7  -5812968.550 5
  23639344.352     9211154.871 5  11177500.654 2
  23754124.002    -5339692.711 5  -5284099.758 2
  24002594.689    15121462.269 5   2553060.300 2
  21280793.623     7156386.584 8   4377550.079 7
  20465701.610     5699828.393 9  -3282173.256 9
  20721045.669     2072677.590 8  -9852891.866 9
 94  3 23 19 59 59.9990000  0  8  2 31 29 16 28 18 19 27
  22346743.002    -4101127.158 7 -10031313.806 5
  21799554.433   -19349367.998 7  -5793698.617 5
  23659659.908     9317952.723 5  11260719.461 2
  23752123.547    -5350248.586 5  -5292325.128 2
  24016542.264    15194751.614 5   2610168.883 2
  21296148.633     7237070.056 8   4440420.257 7
  20467002.469     5706661.305 9  -3276848.925 9
  20713109.922     2030971.238 8  -9885390.318 9
 94  3 23 20  0 29.9990000  0  8  2 31 29 16 28 18 19 27
  22334532.995    -4165294.362 7 -10081314.179 5
  21804372.817   -19324032.182 7  -5773956.429 5
  23680024.120     9424916.587 5  11344067.738 2
  23750226.640    -5360258.818 5  -5300125.343 2
  24030555.403    15268419.209 5   2667572.093 2
  21311572.445     7318121.425 8   4503577.092 7
  20468349.916     5713750.192 9  -3271325.112 9
  20705210.481     1989445.461 8  -9917748.053 9
 94  3 23 20  0 59.9990000  0  8  2 31 29 16 28 18 19 27
  22322376.231    -4229197.266 7 -10131108.584 5
  21809308.780   -19298102.014 7  -5753751.112 5
  23700405.241     9532028.723 5  11427531.580 2
  23748422.819    -5369745.125 5  -5307517.304 2
  24044649.396    15342444.716 5   2725254.277 2
  21327067.518     7399542.959 8   4567022.393 7
  20469744.611     5721073.269 9  -3265618.827 9
  20697336.342     1948085.247 8  -9949976.786 9
 94  3 23 20  1 29.9990000  0  8  2 31 29 16 28 18 19 27
  22310259.699    -4292836.014 7 -10180697.149 5
  21814357.644   -19271576.612 7  -5733081.986 5
  23720817.480     9639302.433 5  11511121.193 2
  23746704.109    -5378715.813 5  -5314507.521 2
  24058812.161    15416841.279 5   2783225.536 2
  21342629.985     7481336.907 8   4630757.871 7
  20471180.227     5728623.674 9  -3259735.402 9
  20689502.346     1906917.410 8  -9982055.623 9
 94  3 23 20  1 59.9990000  0  8  2 31 29 16 28 18 19 27
  22298202.556    -4356206.009 7 -10230076.339 5
  21819517.043   -19244455.835 7  -5711948.929 5
  23741259.938     9746745.628 5  11594842.962 2
  23745090.206    -5387172.403 5  -5321097.035 2
  24073034.165    15491635.080 5   2841506.316 2
  21358268.568     7563515.045 7   4694792.724 7
  20472661.501     5736406.321 9  -3253671.011 9
  20681710.500     1865968.983 8 -10013963.479 9
 94  3 23 20  2 29.9990000  0  8  2 31 29 16 28 18 19 27
  22286193.199    -4419306.612 7 -10279245.566 5
  21824789.643   -19216753.354 7  -5690362.596 5
  23761740.589     9854359.932 5  11678698.049 2
  23743586.087    -5395116.429 5  -5327287.231 2
  24087349.255    15566845.864 5   2900112.069 2
  21373983.839     7646095.929 8   4759141.385 7
  20474188.734     5744419.827 9  -3247426.729 9
  20673958.646     1825232.186 8 -10045706.425 9
 94  3 23 20  2 59.9990000  0  8  2 31 29 16 28 18 19 27
  22274236.397    -4482136.628 7 -10328203.946 5
  21830171.337   -19188453.272 7  -5668310.608 5
  23782258.325     9962158.010 5  11762696.258 2
  23742183.868    -5402532.080 5  -5333065.708 2
  24101741.392    15642486.155 5   2959052.443 2
  21389777.295     7729089.759 8   4823811.844 7
  20475755.929     5752667.791 9  -3240999.749 9
  20666248.734     1784720.535 8 -10077273.932 9
 94  3 23 20  3 29.9990000  0  8  2 31 29 16 28 18 19 27
  22262331.998    -4544699.024 7 -10376953.790 5
  21835678.254   -19159543.808 7  -5645783.769 5
  23802804.421    10070141.464 5  11846838.930 2
  23740868.349    -5409407.700 5  -5338423.344 2
  24116224.725    15718559.899 5   3018330.632 2
  21405644.681     7812484.656 8   4888794.820 7
  20477366.744     5761155.359 9  -3234386.087 9
  20658586.968     1744447.718 8 -10108655.347 9
 94  3 23 20  3 59.9990000  0  8  2 31 29 16 28 18 19 27
  22250480.603    -4606996.940 7 -10425497.549 6
  21841293.187   -19130013.291 7  -5622773.010 5
  23823383.105    10178296.309 5  11931115.214 2
  23739665.282    -5415738.271 5  -5343356.298 2
  24130773.803    15795070.354 5   3077949.113 3
  21421592.680     7896279.183 8   4954089.207 7
  20479036.738     5769891.599 9  -3227578.637 9
  20650966.573     1704406.728 8 -10139856.112 9
 94  3 23 20  4 29.9990000  0  8  2 31 29 16 28 18 19 27
  22238674.416    -4669020.142 7 -10473827.274 6
  21847038.770   -19099846.733 7  -5599266.610 5
  23843999.383    10286623.473 5  12015525.705 2
  23738567.891    -5421515.731 5  -5347858.241 2
  24145420.823    15872010.195 5   3137902.175 3
  21437614.099     7980484.032 7   5019703.320 6
  20480746.664     5778887.071 9  -3220569.173 9
  20643391.747     1664597.054 8 -10170876.635 9
 94  3 23 20  4 59.9990000  0  8  2 31 29 16 28 18 19 27
  22226932.145    -4730748.952 7 -10521927.575 6
  21852902.081   -19069031.229 7  -5575254.549 5
  23864646.959    10395125.306 5  12100072.295 3
  23737564.576    -5426735.041 5  -5351925.244 2
  24160133.348    15949367.731 5   3198180.703 3
  21453715.862     8065087.094 7   5085627.716 6
  20482506.955     5788150.597 9  -3213350.855 9
  20635864.408     1625030.712 8 -10201707.538 9
 94  3 23 20  5 29.9990000  0  8  2 31 29 16 28 18 19 27
  22215245.396    -4792173.851 7 -10569791.077 5
  21858882.910   -19037594.301 7  -5550758.269 5
  23885322.895    10503786.403 5  12184742.981 3
  23736680.818    -5431407.897 5  -5355566.503 2
  24174944.114    16027140.794 5   3258783.097 3
  21469885.857     8150070.126 8   5151848.196 6
  20484318.302     5797672.734 8  -3205931.017 9
  20628375.593     1585681.006 9 -10232369.646 9
 94  3 23 20  5 59.9990000  0  8  2 31 29 16 28 18 19 27
  22203609.761    -4853283.810 7 -10617409.159 5
  21864978.081   -19005553.800 7  -5525791.677 5
  23906034.777    10612606.978 5  12269537.973 3
  23735900.158    -5435534.023 5  -5358781.730 2
  24189820.086    16105329.059 5   3319708.868 2
  21486131.671     8235433.387 8   5218365.006 6
  20486184.210     5807462.232 8  -3198302.837 9
  20620925.660     1546541.585 8 -10262867.897 9
 94  3 23 20  6 29.9990000  0  8  2 31 29 16 28 18 19 27
  22192041.579    -4914082.626 7 -10664784.830 6
  21871186.303   -18972938.190 7  -5500376.943 5
  23926772.230    10721586.623 5  12354456.913 3
  23735213.514    -5439121.969 5  -5361577.514 2
  24204767.888    16183920.261 5   3380948.692 2
  21502445.986     8321162.293 8   5285166.677 6
  20488094.487     5817508.407 9  -3190474.660 9
  20613515.330     1507597.833 8 -10293213.666 9
 94  3 23 20  6 59.9990000  0  8  2 31 29 16 28 18 19 27
  22180532.427    -4974574.356 7 -10711921.162 6
  21877502.960   -18939745.008 7  -5474512.127 5
  23947529.260    10830728.584 5  12439502.272 3
  23734641.869    -5442164.590 5  -5363948.453 2
  24219807.007    16262915.681 5   3442503.462 2
  21518823.738     8407252.350 7   5352249.786 6
  20490054.051     5827811.535 9  -3182446.261 9
  20606145.952     1468854.464 8 -10323403.305 9
 94  3 23 20  7 29.9990000  0  8  2 31 29 16 28 18 19 27
  22169078.197    -5034774.468 7 -10758830.279 6
  21883928.442   -18905974.106 7  -5448197.199 5
  23968339.384    10940037.743 5  12524677.958 3
  23734159.413    -5444650.226 5  -5365885.329 2
  24234913.998    16342308.898 5   3504368.240 2
  21535281.295     8493721.055 7   5419627.938 6
  20492066.558     5838373.978 8  -3174215.792 9
  20598812.519     1430326.651 8 -10353424.970 9
 94  3 23 20  7 59.9990000  0  8  2 31 29 16 28 18 19 27
  22157673.852    -5094697.352 7 -10805523.409 6
  21890467.095   -18871610.247 7  -5421420.168 5
  23989175.469    11049523.281 5  12609991.054 2
  23733797.174    -5446589.505 5  -5367396.501 2
  24250097.497    16422082.355 5   3566529.355 2
  21551811.551     8580582.453 8   5487312.073 6
  20494124.153     5849192.719 9  -3165785.614 9
  20591523.395     1392027.813 8 -10383268.208 9
 94  3 23 20  8 29.9990000  0  8  2 31 29 16 28 18 19 27
  22146320.741    -5154353.876 6 -10852008.935 6
  21897124.226   -18836626.848 7  -5394160.383 5
  24010044.532    11159171.236 5  12695430.772 2
  23733521.275    -5447987.363 5  -5368485.819 2
  24265335.888    16502222.509 5   3628976.204 2
  21568415.617     8667848.045 7   5555311.173 6
  20496229.625     5860256.095 9  -3157164.813 9
  20584275.792     1353951.365 8 -10412938.166 9
 94  3 23 20  8 59.9990000  0  8  2 31 29 16 28 18 19 27
  22135019.795    -5213746.384 7 -10898288.743 6
  21903905.622   -18801010.361 7  -5366407.319 5
  24030932.632    11268969.568 5  12780987.619 2
  23733364.933    -5448843.791 5  -5369153.135 2
  24280666.614    16582721.280 5   3691702.468 3
  21585102.185     8755517.626 7   5623625.083 6
  20498383.454     5871574.362 9  -3148345.394 9
  20577077.835     1316119.165 8 -10442417.799 9
 94  3 23 20  9 29.9990000  0  8  2 31 29 16 28 18 19 27
  22123769.093    -5272860.914 7 -10944351.950 6
  21910801.508   -18764768.302 7  -5338166.797 5
  24051852.299    11378918.985 5  12866662.177 2
  23733298.679    -5449176.952 5  -5369412.830 2
  24296043.629    16663586.372 5   3754714.221 3
  21601853.898     8843580.164 7   5692245.139 6
  20500586.060     5883150.325 9  -3139325.170 9
  20569925.987     1278537.426 8 -10471702.267 9
 94  3 23 20  9 59.9990000  0  8  2 31 29 16 28 18 19 27
  22112572.684    -5331697.202 7 -10990198.371 6
  21917814.703   -18727899.946 7  -5309438.199 5
  24072809.411    11489008.697 5  12952446.100 2
  23733332.466    -5448994.333 5  -5369270.581 2
  24311506.534    16744827.203 5   3818018.692 2
  21618685.236     8932010.527 7   5761151.855 6
  20502839.809     5894986.058 9  -3130102.541 9
  20562820.186     1241189.213 9 -10500804.768 9
 94  3 23 20 10 29.9990000  0  8  2 31 29 16 28 18 19 27
  22101430.388    -5390244.110 7 -11035819.306 6
  21924947.485   -18690420.053 7  -5280233.122 5
  24093782.262    11599225.156 5  13038328.765 2
  23733467.282    -5448277.555 5  -5368712.060 2
  24327046.666    16826449.464 5   3881620.350 2
  21635576.712     9020784.834 7   5830326.576 6
  20505143.744     5907089.356 9  -3120671.401 9
  20555757.675     1204087.077 8 -10529715.527 9
 94  3 23 20 10 59.9990000  0  8  2 31 29 16 28 18 19 27
  22090349.369    -5448492.422 7 -11081207.544 6
  21932189.751   -18652344.709 7  -5250564.053 5
  24114783.503    11709577.871 5  13124317.591 2
  23733710.924    -5447030.740 5  -5367740.566 2
  24342641.030    16908451.115 5   3945517.706 2
  21652534.262     9109887.337 7   5899757.030 6
  20507495.586     5919456.401 9  -3111034.749 9
  20548749.637     1167246.708 8 -10558422.301 9
 94  3 23 20 11 29.9990000  0  8  2 31 29 16 28 18 19 27
  22079316.887    -5506457.293 7 -11126374.908 6
  21939550.795   -18613678.981 7  -5220434.920 5
  24135805.550    11820065.993 5  13210411.905 2
  23734041.745    -5445255.871 5  -5366357.551 2
  24358323.174    16990826.030 5   4009705.776 2
  21669553.870     9199319.256 7   5969444.152 6
  20509895.994     5932072.912 8  -3101203.719 9
  20541780.271     1130631.579 8 -10586953.562 9
 94  3 23 20 11 59.9990000  0  8  2 31 29 16 28 18 19 27
  22068335.789    -5564140.382 7 -11171322.707 6
  21947018.116   -18574421.104 7  -5189844.382 5
  24156856.556    11930691.514 5  13296613.318 2
  23734488.466    -5442922.480 6  -5364539.422 2
  24374065.426    17073578.747 5   4074188.346 2
  21686638.413     9289105.665 7   6039407.503 6
  20512347.577     5944951.947 9  -3091168.103 9
  20534856.445     1094251.042 8 -10615302.034 9
 94  3 23 20 12 29.9990000  0  8  2 31 29 16 28 18 19 27
  22057417.887    -5621530.015 7 -11216041.840 6
  21954604.693   -18534565.459 7  -5158788.070 5
  24177940.180    12041465.632 5  13382930.457 2
  23735036.906    -5440035.062 5  -5362289.522 2
  24389885.983    17156720.327 4   4138973.977 2
  21703795.925     9379264.192 8   6109660.841 6
  20514850.664     5958105.737 9  -3080918.409 9
  20527985.801     1058131.847 8 -10643446.853 9
 94  3 23 20 12 59.9990000  0  8  2 31 29 16 28 18 19 27
  22046550.681    -5678634.099 7 -11260538.504 6
  21962304.053   -18494100.923 7  -5127257.265 5
  24199044.460    12152399.696 5  13469372.312 2
  23735698.128    -5436604.072 5  -5359616.045 2
  24405787.875    17240270.723 4   4204078.076 2
  21721025.297     9469813.694 7   6180218.851 6
  20517408.644     5971546.187 9  -3070445.326 9
  20521160.906     1022276.149 8 -10671386.354 9
 94  3 23 20 13 29.9990000  0  8  2 31 29 16 28 18 19 27
  22035741.094    -5735447.404 7 -11304808.562 6
  21970123.600   -18453035.231 7  -5095258.020 5
  24220188.492    12263487.464 5  13555933.888 2
  23736444.282    -5432618.606 5  -5356510.554 2
  24421765.014    17324240.913 4   4269509.419 2
  21738333.035     9560762.136 7   6251087.674 6
  20520021.425     5985288.079 8  -3059737.367 9
  20514388.534      986688.925 8 -10699116.652 9
 94  3 23 20 13 59.9990000  0  8  2 31 29 16 28 18 19 27
  22024988.648    -5791941.163 7 -11348829.623 6
  21978048.494   -18411373.732 7  -5062794.550 5
  24241359.656    12374732.516 5  13642618.015 2
  23737312.421    -5428086.307 5  -5352978.924 2
  24437833.320    17408625.326 5   4335263.522 2
  21755716.921     9652109.151 7   6322267.084 6
  20522694.464     5999328.017 8  -3048797.164 9
  20507673.873      951402.470 8 -10726612.584 9
 94  3 23 20 14 29.9990000  0  8  2 31 29 16 28 18 19 27
  22014300.657    -5848115.352 7 -11392601.663 6
  21986088.148   -18369117.147 7  -5029867.346 5
  24262553.814    12486136.862 5  13729426.252 2
  23738276.643    -5423019.475 5  -5349030.799 2
  24453956.039    17493407.076 5   4401327.105 2
  21773173.656     9743838.670 8   6393744.547 6
  20525420.687     6013649.951 9  -3037637.221 9
  20501017.341      916411.689 8 -10753878.117 9
 94  3 23 20 14 59.9990000  0  8  2 31 29 16 28 18 19 27
  22003670.736    -5903980.036 7 -11436132.511 6
  21994239.205   -18326285.532 7  -4996492.055 5
  24283782.657    12597678.977 5  13816341.822 2
  23739342.675    -5417416.201 5  -5344664.679 2
  24470163.358    17578542.461 5   4467666.331 2
  21790696.525     9835929.389 8   6465503.486 6
  20528192.418     6028219.092 9  -3026284.636 9
  20494405.059      881681.963 8 -10780940.234 9
 94  3 23 20 15 29.9990000  0  8  2 31 29 16 28 18 19 27
  21993104.221    -5959517.514 7 -11479408.409 6
  22002498.997   -18282875.101 7  -4962665.741 5
  24305042.409    12709361.500 5  13903366.795 2
  23740520.020    -5411262.838 5  -5339869.863 2
  24486425.211    17664014.473 5   4534267.796 2
  21808288.406     9928381.928 7   6537544.358 6
  20531013.255     6043030.840 9  -3014743.030 9
  20487844.191      847198.478 8 -10807810.476 9
 94  3 23 20 15 59.9990000  0  8  2 31 29 16 28 18 19 27
  21982588.641    -6014752.099 7 -11522448.304 6
  22010872.050   -18238877.300 7  -4928381.782 5
  24326317.001    12821188.224 5  13990504.062 2
  23741783.136    -5404573.283 5  -5334657.240 2
  24502746.931    17749814.565 4   4601124.825 2
  21825945.972    10021177.273 7   6609852.356 6
  20533875.254     6058079.299 8  -3003016.966 9
  20481324.994      812938.560 8 -10834506.500 9
 94  3 23 20 16 29.9990000  0  8  2 31 29 16 28 18 19 27
  21972133.618    -6069707.904 7 -11565270.980 6
  22019362.233   -18194271.181 7  -4893623.768 5
  24347621.422    12933157.746 5  14077752.680 2
  23743155.466    -5397332.923 5  -5329015.493 2
  24519135.236    17835964.337 3   4668254.542 2
  21843669.282    10114308.671 7   6682422.196 6
  20536786.449     6073392.856 8  -2991084.350 9
  20474845.699      778887.207 8 -10861040.008 9
 94  3 23 20 16 59.9990000  0  7  2 31 29 16 18 19 27
  21961723.355    -6124394.224 7 -11607883.647 6
  22027967.206   -18149051.828 7  -4858387.894 5
  24368959.690    13045255.628 5  14165101.298 2
  23744653.019    -5389541.796 5  -5322944.488 2
  21861456.868    10207775.366 7   6755253.322 6
  20539753.345     6088985.896 8  -2978933.927 9
  20468403.519      745040.791 8 -10887413.837 9
 94  3 23 20 17 29.9990000  0  7  2 31 29 16 18 19 27
  21951364.776    -6178839.580 7 -11650308.559 6
  22036682.382   -18103245.567 7  -4822694.725 5
  24390304.134    13157457.423 5  14252530.852 2
  23746218.745    -5381237.012 5  -5316473.311 2
  21879301.025    10301554.374 7   6828327.788 6
  20542775.822     6104852.270 8  -2966570.541 9
  20462002.650      711387.315 8 -10913637.311 9
 94  3 23 20 17 59.9990000  0  7  2 31 29 16 18 19 27
  21941049.158    -6233048.858 7 -11692549.499 6
  22045508.572   -18056866.176 7  -4786554.941 5
  24411679.246    13269740.368 5  14340023.659 2
  23747895.424    -5372429.997 5  -5309610.725 2
  21897204.271    10395621.358 7   6901626.674 6
  20545846.866     6120993.344 8  -2953993.085 9
  20455636.977      677951.275 8 -10939691.350 9
 94  3 23 20 18 29.9990000  0  7  2 31 29 16 18 19 27
  21930787.951    -6286997.534 7 -11734587.369 6
  22054444.186   -18009923.789 7  -4749976.485 5
  24433058.316    13382095.712 5  14427572.878 2
  23749673.973    -5363110.429 5  -5302348.773 2
  21915160.520    10489990.686 7   6975161.139 6
  20548972.352     6137420.367 8  -2941192.812 9
  20449320.800      644762.034 8 -10965553.099 9
 94  3 23 20 18 59.9990000  0  7  2 31 29 16 18 19 27
  21920570.335    -6340669.682 7 -11776409.780 6
  22063479.061   -17962440.911 7  -4712976.826 5
  24454445.300    13494507.764 5  14515166.285 2
  23751545.967    -5353294.331 5  -5294699.908 2
  21933175.708    10584660.784 8   7048929.957 6
  20552150.003     6154113.009 8  -2928185.577 9
  20443053.878      611828.995 8 -10991215.198 9
 94  3 23 20 19 29.9990000  0  7  2 31 29 16 18 19 27
  21910410.518    -6394055.036 7 -11818008.717 6
  22072614.487   -17914413.229 7  -4675552.685 5
  24475841.817    13606977.338 4  14602804.482 2
  23753503.911    -5342985.273 5  -5286666.931 2
  21951250.945    10679631.952 7   7122933.406 6
  20555373.731     6171064.348 9  -2914976.746 9
  20436837.262      579160.461 8 -11016671.190 9
 94  3 23 20 19 59.9990000  0  6  2 31 16 18 19 27
  21900310.481    -6447142.817 7 -11859375.760 6
  22081862.844   -17865815.329 7  -4637684.224 5
  23755570.471    -5332168.733 5  -5278238.536 2
  21969382.303    10774918.202 8   7197182.339 6
  20558651.452     6188286.655 9  -2901556.772 9
  20430677.366      546769.040 8 -11041911.256 9
 94  3 23 20 20 29.9990000  0  6  2 31 16 18 19 27
  21890263.446    -6499939.310 7 -11900515.849 6
  22091225.603   -17816636.357 7  -4599362.939 5
  23757725.109    -5320856.950 5  -5269424.224 2
  21987577.577    10870546.148 7   7271697.542 6
  20561980.107     6205769.845 8  -2887933.517 9
  20424561.660      514641.438 8 -11066945.748 9
 94  3 23 20 20 59.9990000  0  6  2 31 16 18 19 27
  21880268.965    -6552440.264 7 -11941425.653 6
  22100696.286   -17766861.203 7  -4560577.134 5
  23759968.036    -5309046.843 5  -5260221.560 2
  22005840.454    10966521.563 7   7346483.484 6
  20565354.331     6223505.725 8  -2874113.362 9
  20418495.869      482769.193 8 -11091781.261 9
 94  3 23 20 21 29.9990000  0  6  2 31 16 18 19 27
  21870337.500    -6604641.939 7 -11982102.218 6
  22110276.154   -17716493.748 7  -4521329.783 5
  23762311.334    -5296724.640 5  -5250619.894 2
  22024171.054    11062852.194 7   7421546.208 6
  20568778.261     6241500.330 8  -2860091.603 9
  20412480.144      451154.737 9 -11116415.899 9
 94  3 23 20 21 59.9990000  0  6  2 31 16 18 19 27
  21860460.958    -6656545.233 7 -12022546.291 6
  22119967.725   -17665562.312 7  -4481642.969 5
  23764748.137    -5283891.974 5  -5240620.467 2
  22042572.555    11159536.900 7   7496884.835 6
  20572251.447     6259757.645 8  -2845865.137 9
  20406512.655      419798.198 9 -11140849.564 9
 94  3 23 20 22 29.9990000  0  6  2 31 16 18 19 27
  21850640.686    -6708152.728 7 -12062759.863 6
  22129766.052   -17614094.109 7  -4441537.884 5
  23767288.189    -5270545.916 5  -5230221.038 2
  22061035.513    11256559.381 7   7572486.687 6
  20575774.967     6278265.889 8  -2831443.137 9
  20400593.973      388692.492 8 -11165087.780 9
 94  3 23 20 22 59.9990000  0  6  2 31 16 18 19 27
  21840871.709    -6759470.089 7 -12102747.404 6
  22139658.843   -17562111.626 7  -4401032.085 5
  23769938.084    -5256660.439 5  -5219401.218 2
  22079554.053    11353888.925 7   7648327.770 5
  20579343.187     6297024.954 8  -2816825.694 9
  20394721.428      357830.062 8 -11189136.415 9
 94  3 23 20 23 29.9990000  0  6  2 31 16 18 19 27
  21831161.971    -6810515.240 7 -12142522.790 6
  22149647.598   -17509630.712 7  -4360137.889 5
  23772685.592    -5242239.567 5  -5208164.185 2
  22098133.750    11451509.477 7   7724395.664 5
  20582960.483     6316036.880 8  -2802011.220 9
  20388894.752      327211.127 8 -11212995.319 9
 94  3 23 20 23 59.9990000  0  6  2 31 16 18 19 27
  21821498.221    -6861301.384 7 -12182096.359 6
  22159727.040   -17456631.830 7  -4318840.082 5
  23775523.548    -5227290.748 5  -5196515.838 2
  22116763.423    11549408.701 7   7800680.661 5
  20586630.093     6335302.862 8  -2786998.786 9
  20383113.584      296836.293 9 -11236664.022 9
 94  3 23 20 24 29.9990000  0  6  2 31 16 18 19 27
  21811882.888    -6911824.836 7 -12221465.241 6
  22169919.174   -17403080.354 7  -4277111.679 5
  23778469.488    -5211807.460 5  -5184450.978 2
  22135444.511    11647587.919 7   7877183.834 5
  20590344.671     6354831.944 8  -2771781.333 9
  20377383.111      266711.758 8 -11260137.685 9
 94  3 23 20 24 59.9990000  0  6  2 31 16 18 19 27
  21802317.110    -6962078.835 7 -12260624.160 6
  22180217.825   -17348953.030 7  -4234934.584 5
  23781507.735    -5195805.248 5  -5171981.835 2
  22154184.207    11746062.249 7   7953916.991 5
  20594114.891     6374637.232 9  -2756348.666 9
  20371699.376      236844.252 9 -11283411.072 9
 94  3 23 20 25 29.9990000  0  6  2 31 16 18 19 27
  21792808.503    -7012054.158 7 -12299565.925 6
  22190634.983   -17294234.893 7  -4192297.086 5
  23784648.930    -5179327.266 5  -5159141.874 2
  22172979.576    11844834.692 7   8030882.414 5
  20597938.204     6394729.566 8  -2740692.312 9
  20366066.366      207246.110 9 -11306474.557 9
 94  3 23 20 25 59.9990000  0  6  2 31 16 18 19 27
  21783355.477    -7061738.780 7 -12338281.175 6
  22201156.020   -17238924.477 7  -4149198.113 5
  23787874.577    -5162381.946 5  -5145937.803 2
  22191833.553    11943904.148 7   8108079.320 5
  20601817.608     6415114.679 8  -2724807.823 9
  20360486.598      177915.444 9 -11329329.620 9
 94  3 23 20 26 29.9990000  0  6  2 31 16 18 19 27
  21773956.204    -7111124.461 7 -12376763.491 6
  22211793.375   -17183042.315 7  -4105653.603 5
  23791182.187    -5144967.677 5  -5132368.309 2
  22210740.654    12043270.783 7   8185507.768 5
  20605749.297     6435791.194 8  -2708696.273 9
  20354955.607      148849.358 9 -11351978.521 9
 94  3 23 20 26 59.9990000  0  6  2 31 16 18 19 27
  21764618.598    -7160201.999 7 -12415005.668 7
  22222530.802   -17126601.202 7  -4061673.554 5
  23794595.714    -5127079.985 5  -5118429.898 2
  22229707.084    12142940.026 7   8263172.010 5
  20609742.172     6456759.691 8  -2692357.197 9
  20349474.742      120054.510 9 -11374416.066 9
 94  3 23 20 27 29.9990000  0  6  2 31 16 18 19 27
  21755339.122    -7208967.327 8 -12453004.586 7
  22233375.764   -17069610.574 6  -4017265.283 5
  23798088.836    -5108704.974 5  -5104111.773 2
  22248726.937    12242903.214 7   8341065.266 5
  20613790.690     6478025.177 9  -2675786.708 9
  20344048.139       91541.537 8 -11396633.965 9
 94  3 23 20 27 59.9990000  0  6  2 31 16 18 19 27
  21746114.538    -7257426.627 7 -12490765.036 7
  22244325.204   -17012077.535 6  -3972434.402 5
  23801685.536    -5089820.492 5  -5089396.655 2
  22267808.787    12343161.526 7   8419188.539 5
  20617889.842     6499576.007 9  -2658993.877 9
  20338676.907       63299.429 8 -11418640.807 9
 94  3 23 20 28 29.9990000  0  6  2 31 16 18 19 27
  21736953.360    -7305582.124 7 -12528288.774 7
  22255380.501   -16953993.210 7  -3927173.911 5
  23805378.349    -5070415.781 5  -5074276.162 2
  22286943.340    12443726.638 6   8497550.855 5
  20622045.505     6521407.429 9  -2641982.388 9
  20333354.721       35333.631 8 -11440432.330 9
 94  3 23 20 28 59.9990000  0  6  2 31 16 18 19 27
  21727847.374    -7353432.241 8 -12565574.546 7
  22266537.637   -16895353.114 6  -3881480.354 5
  23809166.857    -5050484.770 5  -5058745.601 2
  22306141.629    12544593.435 6   8576148.238 5
  20626251.413     6543526.317 9  -2624746.900 9
  20328088.267        7665.685 8 -11461991.750 9
 94  3 23 20 29 29.9990000  0  6  2 31 16 18 19 27
  21718802.636    -7400975.623 8 -12602621.291 7
  22277806.386   -16836151.501 7  -3835349.282 5
  23813058.703    -5030016.082 5  -5042796.034 2
  22325390.824    12645750.046 7   8654971.454 5
  20630513.952     6565940.022 8  -2607281.705 9
  20322882.761      -19701.686 9 -11483316.979 9
 94  3 23 20 29 59.9990000  0  6  2 31 16 18 19 27
  21709810.781    -7448219.200 7 -12639434.421 7
  22289175.505   -16776393.487 6  -3788784.595 5
  23817062.821    -5009011.831 5  -5026429.165 2
  22344693.471    12747192.830 7   8734017.654 5
  20634835.191     6588642.827 8  -2589591.218 9
  20317729.269      -46771.902 9 -11504410.651 9
 94  3 23 20 30 29.9990000  0  6  2 31 16 18 19 27
  21700876.906    -7495169.808 8 -12676019.324 7
  22300653.869   -16716084.035 6  -3741790.258 5
  23821158.675    -4987472.151 5  -5009645.045 2
  22364050.080    12848914.410 6   8813281.120 5
  20639218.336     6611648.312 9  -2571664.874 9
  20312636.245      -73524.320 9 -11525256.685 9
 94  3 23 20 30 59.9990000  0  6  2 31 16 18 19 27
  21691997.293    -7541823.384 8 -12712372.701 7
  22312230.774   -16655228.217 7  -3694370.173 5
  23825362.904    -4965406.316 5  -4992451.029 2
  22383457.685    12950914.064 6   8892761.228 5
  20643654.246     6634972.135 9  -2553490.489 9
  20307611.543      -99951.273 8 -11545849.122 9
 94  3 23 20 31 29.9990000  0  6  2 31 16 18 19 27
  21683174.641    -7588177.635 7 -12748492.849 7
  22323917.763   -16593826.174 7  -3646524.465 5
  23829652.575    -4942830.593 5  -4974859.586 2
  22402926.057    13053217.380 6   8972477.980 5
  20648151.042     6658614.424 9  -2535067.941 9
  20302637.956     -126067.634 8 -11566199.523 9
 94  3 23 20 31 59.9990000  0  6  2 31 16 18 19 27
  21674410.808    -7634242.783 8 -12784387.723 7
  22335704.014   -16531885.259 7  -3598258.835 5
  23834052.119    -4919764.549 5  -4956886.143 2
  22422454.957    13155838.974 6   9052442.748 5
  20652710.646     6682565.582 8  -2516404.710 9
  20297729.035     -151873.253 8 -11586307.792 9
 94  3 23 20 32 29.9990000  0  6  2 31 16 18 19 27
  21665699.978    -7680019.219 8 -12820057.682 7
  22347590.725   -16469403.798 7  -3549572.023 5
  23838527.151    -4896210.687 5  -4938532.594 2
  22442049.123    13258790.814 6   9132664.842 5
  20657326.460     6706820.275 8  -2497504.957 9
  20292876.804     -177367.393 8 -11606173.364 9
 94  3 23 20 32 59.9990000  0  6  2 31 16 18 19 27
  21657045.120    -7725490.837 8 -12855490.058 7
  22359582.903   -16406384.271 6  -3500465.933 5
  23843103.123    -4872180.822 5  -4919808.063 2
  22461701.328    13362073.867 6   9213145.045 5
  20661996.867     6731362.280 8  -2478381.338 9
  20288081.743     -202569.138 8 -11625811.078 9
 94  3 23 20 33 29.9990000  0  6  2 31 16 18 19 27
  21648455.616    -7770652.773 8 -12890681.128 7
  22371682.646   -16342823.480 7  -3450938.067 5
  23847765.286    -4847658.146 5  -4900699.586 2
  22481416.969    13465677.402 6   9293874.937 5
  20666720.967     6756188.141 8  -2459036.516 9
  20283337.228     -227485.852 8 -11645226.686 9
 94  3 23 20 33 59.9990000  0  6  2 31 16 18 19 27
  21639918.546    -7815511.821 8 -12925636.211 7
  22383876.585   -16278723.334 6  -3400989.944 5
  23852529.887    -4822638.189 5  -4881203.680 2
  22501185.493    13569564.682 6   9374825.973 5
  20671498.579     6781302.727 8  -2439466.718 9
  20278650.063     -252120.220 9 -11664422.295 9
 94  3 23 20 34 29.9990000  0  7  2 31 16 18 19 27  7
  21631436.968    -7860069.555 8 -12960356.496 7
  22396178.268   -16214095.963 7  -3350630.987 4
  23857380.199    -4797129.842 5  -4861327.035 2
  22521000.935    13673697.995 7   9455968.690 5
  20676331.653     6806701.486 8  -2419675.518 9
  20274016.410     -276489.762 8 -11683411.536 9
  23986177.485    19059899.40215   -182673.300
 94  3 23 20 34 59.9990000  0  7  2 31 16 18 19 27  7
  21623015.228    -7904319.484 8 -12994836.909 7
  22408576.156   -16148939.069 6  -3299859.412 4
  23862327.944    -4771124.298 5  -4841063.003 2
  22540864.494    13778061.318 7   9537290.667 5
  20681226.275     6832400.908 8  -2399650.011 9
  20269425.599     -300592.695 9 -11702193.034 9
  23966226.387    18955079.313 5   -264351.052 1
 94  3 23 20 35 29.9990000  0  7  2 31 16 18 19 27  7
  21614650.179    -7948277.183 8 -13029089.618 7
  22421077.081   -16083251.694 7  -3248674.502 4
  23867380.856    -4744611.329 5  -4820403.626 2
  22560763.608    13882651.780 7   9618789.616 5
  20686173.720     6858420.911 8  -2379374.704 9
  20264896.034     -324415.646 8 -11720756.366 9
  23946307.516    18850353.274 4   -345955.489 2
 94  3 23 20 35 59.9990000  0  7  2 31 16 18 19 27  7
  21606339.932    -7991945.358 8 -13063116.738 7
  22433675.020   -16017037.092 6  -3197078.742 4
  23872518.909    -4717606.668 5  -4799361.115 2
  22580711.049    13987474.843 7   9700469.783 5
  20691186.220     6884767.635 8  -2358844.815 8
  20260421.062     -347931.985 8 -11739080.785 9
  23926386.307    18745708.113 4   -427496.960 2
 94  3 23 20 36 29.9990000  0  7  2 31 16 18 19 27  7
  21598083.738    -8035341.174 8 -13096931.633 7
  22446373.299   -15950317.307 7  -3145089.336 4
  23877739.525    -4690126.032 5  -4777947.778 2
  22600702.709    14092521.780 7   9782324.438 5
  20696256.460     6911405.983 8  -2338087.668 9
  20256002.901     -371140.926 8 -11757165.667 9
  23906484.135    18641130.330 5   -508985.919 2
 94  3 23 20 36 59.9990000  0  7  2 31 16 18 19 27  7
  21589873.801    -8078467.592 8 -13130536.616 7
  22459160.707   -15883103.989 6  -3092715.363 4
  23883064.109    -4662156.704 5  -4756153.533 2
  22620739.848    14197810.681 7   9864367.602 5
  20701382.281     6938341.111 8  -2317099.279 9
  20251647.966     -394023.466 8 -11774996.213 9
  23886603.728    18536630.093 5   -590414.309 2
 94  3 23 20 37 29.9990000  0  7  2 31 16 18 19 27  7
  21581718.877    -8121337.533 8 -13163941.702 8
  22472042.729   -15815420.320 7  -3039974.891 4
  23888474.853    -4633722.935 5  -4733997.409 2
  22640816.229    14303337.127 6   9946595.868 5
  20706561.826     6965557.201 8  -2295891.953 8
  20247355.358     -416575.930 8 -11792569.575 9
  23866726.349    18432193.363 4   -671793.202 2
 94  3 23 20 37 59.9990000  0  7  2 31 16 18 19 27  7
  21573612.729    -8163937.905 8 -13197136.747 8
  22485010.371   -15747261.067 6  -2986863.818 4
  23893972.657    -4604829.414 5  -4711483.078 2
  22660942.166    14409099.732 6  10029008.155 5
  20711792.454     6993041.306 8  -2274475.783 8
  20243128.644     -438792.357 8 -11809881.069 9
  23846869.566    18327846.534 5   -753102.091 2
 94  3 23 20 38 29.9990000  0  7  2 31 16 18 19 27  7
  21565559.584    -8206250.683 8 -13230107.716 8
  22498079.014   -15678617.865 7  -2933375.652 4
  23899560.728    -4575458.927 5  -4688597.028 2
  22681121.346    14515119.540 6  10111620.861 5
  20717072.519     7020792.717 8  -2252851.331 8
  20238964.466     -460686.770 8 -11826941.655 9
  23827035.986    18223612.347 5   -834323.299 2
 94  3 23 20 38 59.9990000  0  7  2 31 16 18 19 27  7
  21557564.389    -8248268.814 8 -13262849.084 8
  22511229.380   -15609482.886 6  -2879504.310 4
  23905237.478    -4545627.941 5  -4665352.166 2
  22701345.675    14621400.629 6  10194437.150 5
  20722408.525     7048828.713 8  -2231005.103 8
  20234857.070     -482270.256 8 -11843759.961 9
  23807219.225    18119483.611 6   -915462.254 2
 94  3 23 20 39 29.9990000  0  7  2 31 16 18 19 27  7
  21549630.501    -8289977.422 8 -13295349.250 8
  22524488.601   -15539826.574 6  -2825226.693 4
  23911000.119    -4515361.723 5  -4641768.183 2
  22721616.742    14727945.293 6  10277458.828 4
  20727797.474     7077147.059 8  -2208938.879 8
  20230807.144     -503553.118 8 -11860344.001 9
  23787422.520    18015464.840 5   -996515.486 1
 94  3 23 20 39 59.9990000  0  7  2 31 16 18 19 27  7
  21541752.525    -8331362.642 8 -13327597.444 8
  22537838.599   -15469636.225 6  -2770532.958 4
  23916838.487    -4484647.661 5  -4617835.259 2
  22741942.251    14834764.111 6  10360694.154 4
  20733240.926     7105750.381 8  -2186650.586 8
  20226810.401     -524542.424 8 -11876699.296 9
  23767651.987    17911569.056 5  -1077472.959 2
 94  3 23 20 40 29.9990000  0  7  2 31 16 18 19 27  7
  21533937.655    -8372422.305 8 -13359591.925 8
  22551306.236   -15398917.339 7  -2715427.401 4
  23922772.549    -4453482.048 5  -4593550.447 2
  22762329.397    14941866.109 6  10444150.137 4
  20738742.238     7134648.730 8  -2164132.405 8
  20222873.376     -545232.668 9 -11892821.563 9
  23747903.878    17807786.780 5  -1158341.990 2
 94  3 23 20 40 59.9990000  0  7  2 31 16 18 19 27  7
  21526185.412    -8413172.228 8 -13391345.074 8
  22564853.317   -15327687.861 6  -2659923.958 4
  23928782.099    -4421870.938 5  -4568918.464 2
  22782759.354    15049225.393 6  10527806.553 4
  20744297.062     7163862.037 8  -2141368.823 8
  20218996.730     -565612.561 9 -11908702.001 9
  23728169.380    17704104.372 5  -1239133.237 2
 94  3 23 20 41 29.9990000  0  7  2 31 16 18 19 27  7
  21518491.748    -8453611.121 8 -13422855.858 8
  22578506.046   -15255965.719 6  -2604036.602 4
  23934903.291    -4389784.888 5  -4543916.435 2
  22803235.389    15156838.135 6  10611660.522 4
  20749917.541     7193395.518 8  -2118355.728 8
  20215177.284     -585685.448 8 -11924343.209 9
  23708463.512    17600531.122 5  -1319839.378 2
 94  3 23 20 41 59.9990000  0  7  2 31 16 18 19 27  7
  21510852.107    -8493751.158 8 -13454133.783 8
  22592243.076   -15183772.877 7  -2547782.542 4
  23941101.770    -4357207.938 5  -4518531.884 2
  22823760.859    15264693.297 6  10695703.339 4
  20755599.028     7223254.768 8  -2095088.789 8
  20211417.617     -605438.762 8 -11939735.411 9
  23688772.664    17497066.729 5  -1400460.700 2
 94  3 23 20 42 29.9990000  0  7  2 31 16 18 19 27  7
  21503268.497    -8533603.911 8 -13485187.826 8
  22606066.446   -15111112.593 6  -2491164.153 4
  23947372.769    -4324146.507 5  -4492769.800 2
  22844322.545    15372765.038 6  10779914.968 4
  20761348.238     7253452.630 8  -2071558.006 8
  20207718.987     -624875.167 9 -11954880.660 9
  23669102.321    17393712.135 5  -1480996.488 2
 94  3 23 20 42 59.9990000  0  7  2 31 16 18 19 27  7
  21495736.271    -8573179.372 8 -13516025.791 8
  22619987.159   -15037975.259 6  -2434174.089 4
  23953776.845    -4290595.461 5  -4466626.223 2
  22864928.929    15481039.664 6  10864284.666 4
  20767157.556     7283990.362 8  -2047762.393 8
  20204078.008     -644001.203 8 -11969784.070 9
  23649465.136    17290480.637 5  -1561436.342 2
 94  3 23 20 43 29.9990000  0  7  2 31 16 18 19 27  7
  21488261.876    -8612457.712 8 -13546632.254 8
  22634001.617   -14964326.636 6  -2376785.622 4
  23960241.690    -4256547.992 5  -4440095.757 2
  22885573.747    15589530.082 6  10948822.540 4
  20773033.848     7314856.814 8  -2023710.643 8
  20200501.993     -662804.495 8 -11984435.991 9
  23629840.872    17187403.398 4  -1641756.002 2
 94  3 23 20 43 59.9990000  0  7  2 31 16 18 19 27  7
  21480845.820    -8651443.243 8 -13577010.567 8
  22648117.465   -14890146.783 6  -2318983.181 4
  23966819.166    -4222017.946 5  -4413189.386 2
  22906257.868    15698229.057 6  11033522.892 4
  20778966.951     7346044.321 8  -1999408.721 8
  20196988.965     -681260.173 8 -11998817.040 9
  23610264.874    17084493.483 3  -1721945.256 2
 94  3 23 20 44 29.9990000  0  6  2 31 16 18 19 27
  21473480.429    -8690130.787 8 -13607156.662 8
  22662338.779   -14815426.380 6  -2260759.529 4
  23973483.163    -4187002.621 5  -4385904.760 2
  22926984.439    15807145.168 6  11118392.434 4
  20784963.399     7377550.924 8  -1974858.121 8
  20193544.890     -699363.400 9 -12012923.457 9
 94  3 23 20 44 59.9990000  0  6  2 31 16 18 19 27
  21466181.921    -8728500.990 8 -13637055.473 8
  22676656.507   -14740164.712 6  -2202114.138 4
  23980249.359    -4151497.503 5  -4358238.541 2
  22947758.947    15916303.484 6  11203450.693 4
  20791017.858     7409365.620 8  -1950067.480 8
  20190169.796     -717090.132 9 -12026736.496 9
 94  3 23 20 45 29.9990000  0  6  2 31 16 18 19 27
  21458941.304    -8766541.947 8 -13666697.739 8
  22691075.295   -14664380.705 6  -2143061.712 4
  23987092.122    -4115514.835 5  -4330200.179 2
  22968576.535    16025709.192 6  11288701.750 4
  20797130.146     7441485.929 8  -1925038.687 8
  20186871.450     -734440.292 9 -12040256.109 9
 94  3 23 20 45 59.9990000  0  6  2 31 16 18 19 27
  21451759.026    -8804278.231 8 -13696102.618 8
  22705594.814   -14588098.553 6  -2083621.126 4
  23994033.396    -4079063.458 5  -4301796.561 2
  22989444.339    16135361.670 6  11374145.085 4
  20803296.967     7473902.971 8  -1899778.672 8
  20183638.788     -751419.873 9 -12053486.958 9
 94  3 23 20 46 29.9990000  0  6  2 31 16 18 19 27
  21444634.039    -8841714.947 8 -13725274.047 8
  22720199.563   -14511336.840 6  -2023806.882 4
  24001044.732    -4042160.268 5  -4273040.940 2
  23010357.981    16245253.430 6  11459774.849 4
  20809521.648     7506619.223 8  -1874285.509 8
  20180473.999     -768056.155 9 -12066450.290 9
 94  3 23 20 46 59.9990000  0  7  2 31 16 18 19 27  7
  21437565.922    -8878863.948 8 -13754221.287 8
  22734901.505   -14434114.023 6  -1963633.275 4
  24008154.610    -4004827.183 5  -4243950.282 2
  23031306.938    16355366.125 6  11545576.790 4
  20815805.028     7539634.639 8  -1848559.216 8
  20177367.339     -784374.154 9 -12079165.615 9
  23493455.449     2173934.26515    -47662.459
 94  3 23 20 47 29.9990000  0  7  2 31 16 18 19 27  7
  21430551.438    -8915732.952 8 -13782950.337 8
  22749682.802   -14356420.591 6  -1903093.017 4
  24015344.683    -3967070.850 5  -4214529.876 2
  23052304.132    16465690.699 6  11631543.840 4
  20822145.129     7572962.444 8  -1822589.533 8
  20174324.206     -800376.182 9 -12091634.734 9
  23474078.304     2072115.219 5   -127002.255
 94  3 23 20 47 59.9990000  0  7  2 31 16 18 19 27  7
  21423588.758    -8952324.951 8 -13811463.574 8
  22764557.515   -14278251.101 6  -1842181.763 4
  24022590.007    -3928900.193 5  -4184786.530 2
  23073335.952    16576214.829 6  11717666.355 4
  20828551.604     7606614.076 8  -1796367.491 8
  20171339.202     -816058.450 9 -12103854.682 9
  23454726.701     1970418.798 5   -206247.272
 94  3 23 20 48 29.9990000  0  7  2 31 16 18 19 27  7
  21416679.771    -8988614.118 8 -13839740.817 8
  22779528.011   -14199606.722 7  -1780900.496 4
  24029941.608    -3890324.335 5  -4154727.548 2
  23094403.927    16686930.486 6  11803938.145 4
  20835020.735     7640609.840 8  -1769877.315 8
  20168414.547     -831424.035 9 -12115827.867 9
  23435391.016     1868859.743 4   -285383.561
 94  3 23 20 48 59.9990000  0  7  2 31 16 18 19 27  7
  21409834.010    -9024598.876 8 -13867780.846 8
  22794573.125   -14120503.580 6  -1719261.742 4
  24037378.469    -3851350.507 5  -4124358.407 2
  23115508.057    16797842.428 6  11890362.828 4
  20841550.065     7674928.960 8  -1743135.177 8
  20165553.748     -846463.858 9 -12127547.212 9
  23416103.899     1767455.995 3   -364399.829
 94  3 23 20 49 29.9990000  0  7  2 31 16 18 19 27  7
  21403042.002    -9060292.841 8 -13895594.317 8
  22809711.086   -14040961.838 6  -1657281.230 4
  24044843.062    -3811981.162 5  -4093681.054 2
  23136649.931    16908941.973 6  11976933.755 4
  20848141.752     7709560.007 8  -1716149.962 8
  20162753.296     -861167.273 9 -12139004.417 9
  23396828.772     1666201.407 3   -443299.340
 94  3 23 20 49 59.9990000  0  6  2 31 16 18 19 27
  21396302.638    -9095703.151 8 -13923186.736 8
  22824928.911   -13960998.979 6  -1594972.552 4
  24052407.875    -3772205.772 5  -4062687.292 2
  23157825.111    17020227.716 6  12063649.748 4
  20854789.200     7744498.772 8  -1688924.971 8
  20160020.868     -875545.377 9 -12150208.133 9
 94  3 23 20 50 29.9990000  0  6  2 31 16 18 19 27
  21389616.846    -9130834.763 8 -13950561.985 8
  22840220.904   -13880625.671 6  -1532344.073 4
  24060075.396    -3732011.079 5  -4031366.857 2
  23179041.693    17131708.128 6  12150517.399 4
  20861495.497     7779730.495 8  -1661471.699 8
  20157347.019     -889594.105 9 -12161155.183 9
 94  3 23 20 50 59.9990000  0  6  2 31 16 18 19 27
  21382985.257    -9165707.158 8 -13977735.239 8
  22855594.141   -13799846.870 6  -1469399.590 4
  24067801.977    -3691384.873 5  -3999710.170 2
  23200290.863    17243377.198 6  12237532.059 4
  20868252.250     7815243.598 8  -1633799.170 8
  20154736.216     -903306.034 9 -12171839.804 9
 94  3 23 20 51 29.9990000  0  6  2 31 16 18 19 27
  21376392.342    -9200332.122 8 -14004715.717 8
  22871050.901   -13718648.426 6  -1406128.143 4
  24075605.695    -3650310.211 5  -3967704.006 2
  23221573.969    17355216.858 6  12324679.645 4
  20875066.292     7851055.883 8  -1605893.519 8
  20152190.559     -916680.723 9 -12182261.639 9
 94  3 23 20 51 59.9990000  0  6  2 31 16 18 19 27
  21369851.829    -9234695.101 8 -14031492.022 8
  22886575.054   -13637017.463 6  -1342519.682 4
  24083510.173    -3608790.541 5  -3935351.119 2
  23242889.902    17467224.320 6  12411958.012 4
  20881938.855     7887165.429 8  -1577756.232 8
  20149709.776     -929725.840 8 -12192426.666 9
 94  3 23 20 52 29.9990000  0  6  2 31 16 18 19 27
  21363363.421    -9268790.612 8 -14058059.920 8
  22902201.406   -13554938.476 6  -1278562.083 4
  24091501.261    -3566832.765 5  -3902656.831 2
  23264236.774    17579410.308 6  12499375.480 3
  20888867.988     7923579.105 8  -1549381.966 8
  20147291.260     -942427.487 8 -12202324.057 9
 94  3 23 20 52 59.9990000  0  6  2 31 16 18 19 27
  21356926.607    -9302625.946 8 -14084425.077 8
  22917904.805   -13472409.768 6  -1214254.075 4
  24099574.252    -3524449.661 5  -3869631.118 2
  23285616.353    17691762.217 6  12586922.241 3
  20895857.019     7960297.897 8  -1520769.954 8
  20144938.639     -954803.518 9 -12211967.714 9
 94  3 23 20 53 29.9990000  0  6  2 31 16 18 19 27
  21350540.698    -9336178.681 8 -14110570.035 8
  22933697.961   -13389421.356 6  -1149587.826 4
  24107713.317    -3481646.436 5  -3836278.058 2
  23307031.938    17804297.823 6  12674612.146 3
  20902905.500     7997333.327 8  -1491911.191 8
  20142640.820     -966858.206 9 -12221360.983 9
 94  3 23 20 53 59.9990000  0  6  2 31 16 18 19 27
  21344210.461    -9369438.805 8 -14136486.982 8
  22949577.218   -13305973.995 6  -1084563.996 4
  24115928.050    -3438438.564 5  -3802609.669 2
  23328482.118    17917033.538 6  12762458.012 3
  20910014.178     8034688.909 8  -1462802.982 8
  20140410.994     -978584.831 9 -12230498.610 9
 94  3 23 20 54 29.9990000  0  7  2 31 16 18 19 27 26
  21337937.513    -9402409.909 8 -14162178.723 8
  22965544.315   -13222062.797 6  -1019178.701 4
  24124229.034    -3394824.980 5  -3768625.158 2
  23349977.507    18029966.622 6  12850457.596 3
  20917180.058     8072370.088 8  -1433441.055 8
  20138247.002     -989964.934 9 -12239366.228 9
  24814631.188    -7286747.03914  -2278880.460 2
 94  3 23 20 54 59.9990000  0  7  2 31 16 18 19 27 26
  21331721.467    -9435082.967 8 -14187638.217 8
  22981596.132   -13137707.509 6   -953447.388 4
  24132607.813    -3350806.731 5  -3734325.323 2
  23371498.918    18143066.694 6  12938587.325 3
  20924413.600     8110375.405 8  -1403826.539 8
  20136148.934    -1000988.612 9 -12247956.118 9
  24797345.275    -7377534.897 4  -2349624.257 2
 94  3 23 20 55 29.9990000  0  7  2 31 16 18 19 27 26
  21325561.541    -9467445.773 8 -14212855.969 8
  22997734.320   -13052907.977 6   -887369.898 4
  24141058.573    -3306385.484 5  -3699711.457 2
  23393055.675    18256329.304 6  13026843.703 3
  20931710.428     8148716.289 8  -1373950.546 8
  20134126.025    -1011628.716 9 -12256247.106 9
  24780126.485    -7468100.762 5  -2420194.982 2
 94  3 23 20 55 59.9990000  0  7  2 31 16 18 19 27 26
  21319459.355    -9499512.668 8 -14237843.124 8
  23013947.785   -12967679.481 6   -820958.151 4
  24149600.859    -3261561.186 5  -3664783.491 2
  23414631.558    18369730.265 6  13115207.868 3
  20939070.813     8187389.364 8  -1343815.699 8
  20132171.288    -1021873.666 8 -12264230.192 9
  24762919.328    -7558439.234 4  -2490588.602 2
 94  3 23 20 56 29.9990000  0  8  2 31 16 18 19 27  7 26
  21313417.998    -9531272.835 8 -14262591.276 8
  23030250.559   -12882043.147 6   -754228.609 3
  24158196.628    -3216331.161 5  -3629539.459 2
  23436239.759    18483265.727 6  13203676.853 3
  20946491.726     8226394.512 8  -1313422.094 8
  20130299.654    -1031725.542 8 -12271906.979 9
  23130268.518      585055.51814    -48409.625
  24745772.218    -7648553.635 5  -2560807.610 2
 94  3 23 20 56 59.9990000  0  8  2 31 16 18 19 27  7 26
  21307433.451    -9562715.093 8 -14287091.716 8
  23046616.649   -12796015.482 6   -687194.133 4
  24166887.342    -3170700.120 5  -3593982.841 2
  23457873.052    18596943.782 6  13292256.928 3
  20953976.674     8265724.990 8  -1282775.002 8
  20128496.552    -1041192.427 8 -12279283.773 9
  23111512.033      486410.091 3   -125272.218
  24728649.572    -7738444.516 4  -2630852.446 2
 94  3 23 20 57 29.9990000  0  8  2 31 16 18 19 27  7 26
  21301507.873    -9593846.941 8 -14311350.261 8
  23063063.923   -12709589.708 6   -619849.449 3
  24175660.978    -3124674.433 5  -3558118.740 2
  23479534.646    18710788.301 6  13380966.729 3
  20961519.962     8305369.532 8  -1251883.162 8
  20126766.659    -1050294.571 9 -12286376.364 9
  23092780.940      387986.344 2   -201964.289
  24711585.565    -7828106.390 4  -2700718.859 2
 94  3 23 20 57 59.9990000  0  7  2 31 16 18 19 27 26
  21295643.513    -9624682.520 8 -14335377.971 8
  23079586.535   -12622765.142 6   -552193.998 3
  24184476.166    -3078256.719 5  -3521949.231 2
  23501236.143    18824818.242 6  13469821.003 3
  20969122.219     8345311.224 8  -1220759.798 8
  20125098.045    -1059037.048 8 -12293188.696 9
  24694594.918    -7917535.778 5  -2770404.120 2
 94  3 23 20 58 29.9990000  0  7  2 31 16 18 19 27 26
  21289829.248    -9655213.580 8 -14359168.383 8
  23096190.720   -12535516.711 6   -484208.291 3
  24193379.312    -3031439.020 5  -3485468.024 2
  23522973.135    18939052.880 6  13558834.798 3
  20976780.057     8385553.915 8  -1189401.892 8
  20123506.656    -1067422.818 8 -12299723.056 9
  24677621.718    -8006722.804 6  -2839900.449 2
 94  3 23 20 58 59.9990000  0  7  2 31 16 18 19 27 26
  21284078.119    -9685463.468 8 -14382739.690 8
  23112875.339   -12447826.271 6   -415878.163 3
  24202368.769    -2984217.789 5  -3448672.323 2
  23544745.562    19053487.679 6  13648004.534 3
  20984495.006     8426098.624 8  -1157808.639 8
  20121977.175    -1075454.745 9 -12305981.709 9
  24660677.029    -8095668.889 5  -2909209.156 2
 94  3 23 20 59 29.9990000  0  7  2 31 16 18 19 27 26
  21278369.232    -9715447.297 8 -14406103.681 8
  23129646.269   -12359690.827 6   -347201.265 3
  24211440.578    -2936581.691 5  -3411553.400 2
  23566562.898    19168118.724 6  13737327.223 3
  20992270.214     8466966.400 8  -1125963.648 8
  20120515.117    -1083131.405 9 -12311963.535 9
  24643812.654    -8184374.281 5  -2978330.227 2
 94  3 23 20 59 59.9990000  0  8  2 31 16 18 19 27  7 26
  21272714.276    -9745162.135 8 -14429258.071 8
  23146504.708   -12271116.640 6   -278182.481 3
  24220563.353    -2888530.342 5  -3374110.879 2
  23588410.783    19282926.938 6  13826787.930 3
  21000115.423     8508183.990 8  -1093846.066 8
  20119126.778    -1090435.981 8 -12317655.420 9
  22999769.011      232220.50914    -47998.596
  24626977.208    -8272842.302 6  -3047266.356 2
 94  3 23 21  0 29.9990000  0  8  2 31 16 18 19 27  7 26
  21267111.995    -9774600.380 8 -14452196.947 8
  23163441.363   -12182121.191 6   -208835.459 3
  24229800.048    -2840065.381 5  -3336346.083 2
  23610281.332    19397884.999 6  13916365.406 3
  21008027.545     8549767.685 8  -1061443.207 8
  20117805.713    -1097376.717 8 -12323063.789 9
  22981304.824      135151.081 5   -123636.056
  24610185.833    -8361081.899 5  -3116024.538 2
 94  3 23 21  0 59.9990000  0  8  2 31 16 18 19 27  7 26
  21261563.256    -9803768.583 8 -14474925.383 8
  23180448.469   -12092730.763 6   -139180.634 3
  24239085.310    -2791208.738 5  -3298276.053 2
  23632184.619    19512963.543 6  14006036.778 3
  21016009.429     8591708.747 8  -1028761.880 8
  20116553.780    -1103940.669 8 -12328178.561 9
  22962867.977       38287.873 4   -199113.634
  24593434.899    -8449111.045 5  -3184618.546 2
 94  3 23 21  1 29.9990000  0  8  2 31 16 18 19 27  7 26
  21256069.140    -9832645.911 9 -14497427.178 8
  23197533.911   -12002952.852 6    -69223.893 3
  24248465.667    -2741977.197 5  -3259913.912 2
  23654108.501    19628161.392 6  14095801.110 3
  21024059.397     8634008.230 8   -995801.284 8
  20115384.139    -1110113.482 9 -12332988.549 9
  22944480.357      -58370.846 4   -274432.079 1
  24576717.932    -8536916.514 5  -3253038.524 2
 94  3 23 21  1 59.9990000  0  8  2 31 16 18 19 27  7 26
  21250631.594    -9861218.612 8 -14519691.594 8
  23214692.143   -11912769.531 6      1048.741 3
  24257919.472    -2692373.217 5  -3221261.544 2
  23676051.780    19743493.528 6  14185670.103 3
  21032176.937     8676664.655 8   -962562.532 8
  20114285.130    -1115881.121 9 -12337482.818 9
  22926125.803     -154820.690 5   -349587.599 1
  24560044.705    -8624479.227 5  -3321269.196 2
 94  3 23 21  2 29.9990000  0  8  2 31 16 18 19 27  7 26
  21245249.060    -9889490.418 8 -14541721.546 9
  23231934.886   -11822177.230 6     71640.092 3
  24267412.850    -2642401.044 5  -3182322.305 2
  23698025.758    19858962.465 5  14275645.687 3
  21040355.905     8719649.286 8   -929068.041 8
  20113265.866    -1121239.941 9 -12341658.529 9
  22907819.037     -251048.031 5   -424569.818 1
  24543432.815    -8711791.293 5  -3389304.601 2
 94  3 23 21  2 59.9990000  0  8  2 31 16 18 19 27  7 26
  21239927.714    -9917456.315 8 -14563513.124 9
  23249247.661   -11731180.221 6    142546.779 3
  24276992.178    -2592073.358 5  -3143105.991 2
  23720026.208    19974585.581 5  14365741.351 3
  21048596.090     8762955.593 8   -895322.880 8
  20112322.419    -1126194.843 9 -12345519.498 9
  22889547.706     -347051.325 6   -499377.394 1
  24526881.663    -8798844.625 5  -3457138.386 2
 94  3 23 21  3 29.9990000  0  8  2 31 16 18 19 27  7 26
  21234659.461    -9945133.503 8 -14585079.745 9
  23266635.383   -11639786.116 6    213762.853 3
  24286650.442    -2541397.169 5  -3103618.164 2
  23742061.043    20090364.970 5  14455958.818 2
  21056896.354     8806576.025 8   -861332.949 8
  20111452.031    -1130777.376 9 -12349090.300 9
  22871324.252     -442821.015 6   -574002.957 2
  24510355.994    -8885635.191 5  -3524767.335 2
 94  3 23 21  3 59.9990000  0  8  2 31 16 18 19 27  7 26
  21229445.471    -9972548.042 9 -14606441.696 9
  23284109.117   -11548003.145 6    285282.008 3
  24296345.280    -2490373.982 5  -3063859.968 2
  23764113.357    20206282.268 5  14546283.788 2
  21065252.649     8850488.011 8   -827115.859 8
  20110648.048    -1135012.276 8 -12352390.227 9
  22853140.520     -538359.649 6   -648448.447 2
  24493890.612    -8972185.052 5  -3592208.828 2
 94  3 23 21  4 29.9990000  0  8  2 31 16 18 19 27  7 26
  21224278.248    -9999699.557 8 -14627598.709 9
  23301645.267   -11455849.012 6    357090.325 3
  24306121.003    -2439015.693 5  -3023840.578 2
  23786202.635    20322312.913 5  14636697.003 2
  21073661.917     8894682.431 8   -792678.674 8
  20109905.432    -1138911.122 8 -12355428.294 9
  22835002.986     -633668.733 5   -722715.130 2
  24477471.819    -9058496.305 5  -3659464.248 2
 94  3 23 21  4 59.9990000  0  8  2 31 16 18 19 27  7 26
  21219158.692   -10026592.743 9 -14648554.403 9
  23319244.913   -11363337.485 6    429177.205 3
  24315944.392    -2387322.575 4  -2983560.329 2
  23808300.636    20438448.126 5  14727191.746 2
  21082130.874     8939173.577 8   -758010.275 8
  20109223.524    -1142486.901 8 -12358214.621 9
  22816915.398     -728743.189 5   -796798.966 3
  24461072.512    -9144567.297 5  -3726532.568 2
 94  3 23 21  5 29.9990000  0  8  2 31 16 18 19 27  7 26
  21214088.332   -10053245.670 8 -14669322.908 9
  23336927.002   -11270464.181 6    501545.971 3
  24325851.843    -2335285.147 5  -2943011.818 2
  23830412.399    20554662.903 5  14817748.488 2
  21090654.394     8983958.192 8   -723113.196 8
  20108601.845    -1145729.556 8 -12360741.367 9
  22798855.691     -823583.277 4   -870700.182 3
  24444761.734    -9230409.988 5  -3793422.917 2
 94  3 23 21  5 59.9990000  0  8  2 31 16 18 19 27  7 26
  21209064.110   -10079654.192 9 -14689900.963 9
  23354661.344   -11177247.078 6    574182.551 3
  24335827.317    -2282911.996 5  -2902201.666 2
  23852541.309    20670946.905 5  14908359.135 2
  21099230.647     9029036.015 8   -687987.660 8
  20108054.004    -1148624.624 8 -12362997.264 9
  22780856.991     -918209.534 5   -944434.776 3
  24428469.692    -9316035.727 5  -3860144.285 2
 94  3 23 21  6 29.9990000  0  8  2 31 16 18 19 27  7 26
  21204083.718   -10105818.021 9 -14710288.322 9
  23372459.753   -11083713.698 6    647065.663 3
  24345861.161    -2230208.123 5  -2861133.755 2
  23874681.342    20787289.181 5  14999015.212 2
  21107866.168     9074415.467 8   -652627.079 7
  20107572.507    -1151159.954 8 -12364972.842 9
  22762889.080    -1012627.057 5  -1018006.700 3
  24412202.924    -9401446.639 5  -3926698.175 2
 94  3 23 21  6 59.9990000  0  8  2 31 16 18 19 27  7 26
  21199150.064   -10131745.171 9 -14730491.282 9
  23390316.441   -10989869.797 6    720190.660 3
  24355936.466    -2177166.891 5  -2819803.072 2
  23896838.793    20903695.399 5  15089721.096 3
  21116562.758     9120105.184 8   -617024.748 7
  20107157.864    -1153319.505 8 -12366655.617 9
  22744962.810    -1106843.105 5  -1091421.638 3
  24395983.942    -9486652.529 5  -3993092.348 2
 94  3 23 21  7 29.9990000  0  8  2 31 16 18 19 27  7 26
  21194257.241   -10157443.739 9 -14750516.122 9
  23408235.786   -10895721.152 6    793553.184 3
  24366105.726    -2123798.692 5  -2778217.550 2
  23918999.481    21020161.804 5  15180473.851 3
  21125310.372     9166092.189 8   -581190.753 7
  20106825.155    -1155097.590 8 -12368041.139 9
  22727066.669    -1200869.120 5  -1164688.597 3
  24379818.863    -9571658.116 5  -4059330.475 2
 94  3 23 21  7 59.9990000  0  8  2 31 16 18 19 27  7 26
  21189416.372   -10182899.584 9 -14770351.829 9
  23426205.885   -10801276.576 6    867146.326 3
  24376316.237    -2070116.354 5  -2736387.236 2
  23941169.493    21136694.466 5  15271278.214 2
  21134120.163     9212369.156 8   -545130.813 7
  20106552.913    -1156502.429 8 -12369135.817 9
  22709218.075    -1294697.315 5  -1237801.356 2
  24363667.214    -9656436.186 5  -4125391.268 2
 94  3 23 21  8 29.9990000  0  8  2 31 16 18 19 27  7 26
  21184616.185   -10208120.690 8 -14790004.602 9
  23444247.545   -10706525.999 6    940977.877 3
  24386586.647    -2016120.635 5  -2694312.709 2
  23963361.840    21253295.986 5  15362136.277 2
  21142979.300     9258936.781 8   -508844.389 7
  20106350.643    -1157556.060 8 -12369956.831 9
  22691406.146    -1388309.989 6  -1310746.177 2
  24347588.235    -9740968.930 5  -4191260.937 2
 94  3 23 21  8 59.9990000  0  8  2 31 16 18 19 27  7 26
  21179858.989   -10233113.853 9 -14809479.772 9
  23462327.878   -10611453.361 6   1015060.375 3
  24396942.858    -1961832.744 5  -2652010.589 2
  23985564.319    21369974.222 5  15453054.157 3
  21151894.258     9305790.182 8   -472335.277 7
  20106213.938    -1158281.335 8 -12370521.971 9
  22673626.445    -1481704.360 6  -1383520.880 2
  24331558.363    -9825241.273 5  -4256927.679 2
 94  3 23 21  9 29.9990000  0  8  2 31 16 18 19 27  7 26
  21175147.061   -10257877.312 8 -14828775.948 9
  23480480.492   -10516053.344 6   1089398.001 3
  24407297.150    -1907265.033 5  -2609490.374 2
  24007779.240    21486724.775 5  15544028.318 3
  21160864.648     9352923.133 8   -435608.344 7
  20106133.383    -1158699.935 8 -12370848.168 9
  22655901.426    -1574873.795 6  -1456120.306 2
  24315583.592    -9909242.020 5  -4322382.776 2
 94  3 23 21  9 59.9990000  0  8  2 31 16 18 19 27  7 26
  21170483.159   -10282402.449 8 -14847886.432 9
  23498695.162   -10420319.047 6   1163996.110 3
  24417751.273    -1852419.819 5  -2566753.984 2
  24030012.149    21603541.122 5  15635053.705 3
  21169889.061     9400343.803 8   -398657.222 7
  20106112.098    -1158823.477 8 -12370944.443 9
  22638216.339    -1667817.060 6  -1528543.469 2
  24299633.554    -9992975.303 5  -4387629.488 2
 94  3 23 21 10 29.9990000  0  8  2 31 16 18 19 27  7 26
  21165854.304   -10306719.081 9 -14866834.441 9
  23516976.566   -10324257.909 6   1238848.847 3
  24428224.102    -1797295.850 4  -2523800.309 2
  24052254.291    21720411.249 5  15726121.040 3
  21178966.147     9448056.785 8   -361478.318 7
  20106146.544    -1158643.246 8 -12370804.020 9
  22620569.236    -1760538.333 6  -1600793.674 2
  24283745.573   -10076464.241 5  -4452685.811 2
 94  3 23 21 10 59.9990000  0  8  2 31 16 18 19 27  7 26
  21161269.038   -10330819.719 8 -14885614.126 9
  23535319.457   -10227884.682 6   1313944.826 3
  24438775.778    -1741896.468 4  -2480632.105 2
  24074497.092    21837319.194 5  15817217.825 3
  21188101.303     9496052.909 8   -324078.776 7
  20106242.988    -1158133.144 8 -12370406.540 9
  22602961.286    -1853053.147 6  -1672883.044 2
  24267918.809   -10159725.951 5  -4517564.999 2
 94  3 23 21 11 29.9990000  0  8  2 31 16 18 19 27  7 26
  21156724.035   -10354698.968 8 -14904221.317 9
  23553711.725   -10131216.567 6   1389270.572 3
  24449376.949    -1686208.167 4  -2437238.721 2
  24096749.817    21954260.466 5  15908340.604 3
  21197288.413     9544334.857 8   -286456.524 7
  20106411.171    -1157270.522 9 -12369734.363 9
  22585398.394    -1945357.236 5  -1744808.169 2
  24252113.331   -10242763.221 5  -4582269.329 2
 94  3 23 21 11 59.9990000  0  8  2 31 16 18 19 27  7 26
  21152219.533   -10378359.080 9 -14922657.736 9
  23572165.060   -10034261.137 6   1464820.137 3
  24460026.206    -1630231.019 4  -2393620.261 2
  24119009.827    22071237.843 5  15999491.492 3
  21206533.862     9592906.102 8   -248608.845 7
  20106643.300    -1156034.099 8 -12368770.921 9
  22567876.124    -2037441.791 5  -1816562.268 2
  24236358.698   -10325569.251 6  -4646793.505 2
 94  3 23 21 12 29.9990000  0  8  2 31 16 18 19 27  7 26
  21147759.401   -10401806.476 9 -14940928.420 9
  23590665.732    -9937034.112 6   1540581.406 3
  24470732.724    -1573984.165 5  -2349791.624 2
  24141278.381    22188259.725 5  16090677.036 3
  21215827.009     9641757.227 8   -210543.063 7
  20106954.095    -1154411.866 8 -12367506.854 9
  22550395.766    -2129310.089 5  -1888147.811 2
  24220634.494   -10408128.648 5  -4711125.473 2
 94  3 23 21 12 59.9990000  0  8  2 31 16 18 19 27  7 26
  21143343.158   -10425014.558 8 -14959012.614 9
  23609219.348    -9839521.194 6   1616565.444 3
  24481487.239    -1517481.032 5  -2305763.351 2
  24163555.149    22305334.983 5  16181904.144 3
  21225174.477     9690884.555 8   -172262.078 7
  20107333.243    -1152407.647 8 -12365945.127 9
  22532957.738    -2220960.893 6  -1959563.893 3
  24204978.852   -10490430.090 5  -4775256.416 2
 94  3 23 21 13 29.9990000  0  8  2 31 16 18 19 27  7 26
  21138970.745   -10447989.506 9 -14976915.157 9
  23627831.183    -9741709.830 6   1692781.985 3
  24492279.378    -1460732.660 5  -2261543.905 2
  24185853.322    22422477.856 5  16273183.930 3
  21234576.958     9740290.833 8   -133763.735 7
  20107785.090    -1150030.804 8 -12364093.052 9
  22515557.904    -2312370.441 6  -2030792.017 3
  24189367.130   -10572461.144 6  -4839176.715 2
 94  3 23 21 13 59.9990000  0  8  2 31 16 18 19 27  7 26
  21134643.271   -10470734.318 9 -14994638.374 9
  23646501.747    -9643593.696 5   1769236.056 3
  24503130.696    -1403740.823 5  -2217134.799 2
  24208155.753    22539672.396 5  16364504.006 3
  21244030.614     9789967.041 8    -95055.041 7
  20108307.358    -1147286.883 8 -12361954.939 9
  22498210.023    -2403535.545 6  -2101829.651 3
  24173811.708   -10654228.621 6  -4902891.588 2
 94  3 23 21 14 29.9990000  0  9  2 31 15 16 18 19 27  7 26
  21130356.868   -10493240.432 8 -15012175.586 9
  23665238.207    -9545165.002 6   1845933.640 3
  24653997.623    -1849420.26115   -341248.638 1
  24514018.468    -1346492.438 5  -2172525.758 2
  24230464.868    22656914.102 5  16455860.816 3
  21253535.324     9839912.733 8    -56136.348 7
  20108900.228    -1144176.920 8 -12359531.594 9
  22480907.442    -2494445.184 6  -2172668.179 3
  24158295.590   -10735740.913 5  -4966407.601 2
 94  3 23 21 14 59.9990000  0  9  2 31 15 16 18 19 27  7 26
  21126123.589   -10515494.677 9 -15029516.551 9
  23684022.243    -9446424.742 6   1922873.997 3
  24642392.117    -1910388.151 5   -388755.998 1
  24524960.833    -1288961.795 4  -2127696.797 2
  24252781.809    22774193.461 5  16547246.977 3
  21263095.795     9890143.938 8    -16995.188 7
  20109559.292    -1140707.194 8 -12356827.927 9
  22463665.748    -2585079.593 6  -2243292.237 4
  24142830.436   -10817004.817 5  -5029730.152 2
 94  3 23 21 15 29.9990000  0  9  2 31 15 16 18 19 27  7 26
  21121935.908   -10537501.925 8 -15046665.034 9
  23702869.865    -9347391.373 6   2000042.821 3
  24630816.201    -1971163.336 4   -436113.111 1
  24535975.628    -1231134.978 5  -2082637.089 2
  24275105.524    22891502.375 5  16638656.157 3
  21272709.899     9940675.852 8     22380.293 7
  20110289.946    -1136875.350 8 -12353842.080 9
  22446464.616    -2675433.342 6  -2313697.672 3
  24127407.493   -10898019.757 5  -5092858.635 2
 94  3 23 21 15 59.9990000  0  9  2 31 15 16 18 19 27  7 26
  21117797.183   -10559256.605 8 -15063616.717 9
  23721763.865    -9248084.819 6   2077424.467 3
  24619288.641    -2031746.975 4   -483321.004 1
  24547025.708    -1173003.124 5  -2037339.629 2
  24297429.629    23008826.968 5  16730077.534 3
  21282384.682     9991517.043 8     61996.774 7
  20111085.805    -1132681.779 8 -12350574.367 9
  22429327.250    -2765515.938 6  -2383891.763 3
  24112040.642   -10978793.245 5  -5155798.985 2
 94  3 23 21 16 29.9990000  0  9  2 31 15 16 18 19 27  7 26
  21113704.566   -10580765.969 9 -15080377.254 9
  23740715.455    -9148521.081 6   2155006.513 3
  24607821.250    -2092137.044 4   -530378.092 1
  24558159.130    -1114590.737 5  -1991823.573 1
  24319766.986    23126171.929 5  16821514.812 3
  21292123.020    10042678.355 8    101862.693 7
  20111956.762    -1128120.299 8 -12347019.980 9
  22412233.534    -2855339.845 6  -2453884.337 3
  24096730.840   -11059321.710 6  -5218548.402 2
 94  3 23 21 16 59.9990000  0  9  2 31 15 16 18 19 27  7 26
  21109656.679   -10602046.754 9 -15096959.675 9
  23759707.307    -9048706.164 5   2232784.272 3
  24596345.914    -2152329.112 4   -577280.876 1
  24569319.384    -1055924.519 4  -1946109.670 1
  24342095.888    23243526.620 5  16912959.636 2
  21301919.638    10094163.842 8    141981.214 7
  20112894.663    -1123187.758 8 -12343176.448 9
  22395187.904    -2944919.724 5  -2523686.709 3
  24081435.369   -11139594.408 5  -5281098.545 2
 94  3 23 21 17 29.9990000  0  9  2 31 15 16 18 19 27  7 26
  21105644.796   -10623120.818 8 -15113380.995 9
  23778753.631    -8948641.808 6   2310756.421 3
  24584940.310    -2212314.737 3   -624022.801 1
  24580536.149     -997019.576 5  -1900209.894 1
  24364428.447    23360889.066 5  17004410.492 2
  21311774.356    10145954.101 8    182337.212 7
  20113903.644    -1117871.942 8 -12339034.273 9
  22378188.443    -3034257.394 5  -2593300.385 3
  24066221.891   -11219593.095 6  -5343435.134 3
 94  3 23 21 17 59.9990000  0  9  2 31 15 16 18 19 27  7 26
  21101671.497   -10644000.075 9 -15129650.532 9
  23797837.790    -8848315.377 5   2388932.793 3
  24573565.345    -2272083.509 3   -670595.637 1
  24591770.062     -937887.224 5  -1854132.809 1
  24386763.885    23478260.863 5  17095868.650 2
  21321680.488    10198037.524 8    222921.670 7
  20114989.732    -1112170.242 8 -12334591.381 9
  22361227.864    -3123351.291 5  -2662724.087 2
  24051059.078   -11299296.264 6  -5405541.474 2
 94  3 23 21 18 29.9990000  0  9  2 31 15 16 18 19 27  7 26
  21097730.605   -10664698.243 9 -15145778.971 9
  23816987.992    -8747729.193 5   2467311.547 3
  24562233.310    -2331630.692 3   -716995.863 1
  24603077.424     -878538.557 4  -1807887.198 1
  24409099.142    23595633.210 5  17187327.234 2
  21331650.536    10250399.744 8    263723.369 7
  20116148.430    -1106094.474 8 -12329857.016 9
  22344320.469    -3212205.913 5  -2731961.367 2
  24035954.785   -11378684.776 6  -5467402.654 2
 94  3 23 21 18 59.9990000  0  9  2 31 15 16 18 19 27  7 26
  21093830.185   -10685205.517 9 -15161758.623 9
  23836176.059    -8646878.314 5   2545896.573 3
  24550930.684    -2390954.001 3   -763221.713 1
  24614412.667     -818956.232 5  -1761459.570 1
  24431430.263    23713008.136 5  17278787.868 2
  21341662.195    10303019.859 8    304726.001 7
  20117369.545    -1099666.063 8 -12324847.883 9
  22327460.171    -3300808.016 5  -2801001.837 2
  24020898.638   -11457741.542 5  -5529005.234 2
 94  3 23 21 19 29.9990000  0  9  2 31 15 16 18 19 27  7 26
  21089965.141   -10705509.629 9 -15177580.008 9
  23855408.524    -8545771.931 5   2624680.704 3
  24539697.131    -2450055.567 3   -809274.663 1
  24625803.251     -759128.432 5  -1714840.547 1
  24453774.604    23830391.486 5  17370254.992 2
  21351723.679    10355895.745 8    345927.940 7
  20118658.083    -1092891.381 8 -12319568.907 9
  22310656.834    -3389144.121 5  -2869835.051 2
  24005924.244   -11536483.184 6  -5590362.320 2
 94  3 23 21 19 59.9990000  0  9  2 31 15 16 18 19 27  7 26
  21086142.907   -10725590.480 9 -15193227.417 9
  23874709.493    -8444417.280 5   2703658.227 2
  24528496.076    -2508939.362 4   -855158.029 2
  24637218.389     -699054.027 5  -1668029.474 1
  24476111.061    23947777.604 5  17461724.268 2
  21361837.867    10409039.300 8    387338.482 7
  20120016.173    -1085780.664 8 -12314028.107 9
  22293897.566    -3477218.484 6  -2938464.356 2
  23990976.173   -11614941.473 5  -5651498.604 2
 94  3 23 21 20 29.9990000  0  9  2 31 15 16 18 19 27  7 26
  21082370.409   -10745424.745 8 -15208682.662 9
  23894036.003    -8342820.598 5   2782824.390 2
  24517327.188    -2567608.871 4   -900874.414 2
  24648706.556     -638725.871 5  -1621020.634 1
  24498446.588    24065163.719 5  17553193.576 2
  21372001.911    10462452.360 8    428959.003 7
  20121428.975    -1078334.587 8 -12308225.977 9
  22277181.408    -3565028.277 6  -3006887.491 3
  23976111.204   -11693141.245 6  -5712433.490 2
 94  3 23 21 20 59.9990000  0  9  2 31 15 16 18 19 27  7 26
  21078645.248   -10765014.129 9 -15223947.093 9
  23913417.076    -8240989.822 5   2862172.976 2
  24506195.654    -2626079.124 4   -946435.511 2
  24660221.944     -578164.062 5  -1573829.748 1
  24520780.407    24182546.126 5  17644659.999 2
  21382214.611    10516128.854 8    470784.799 7
  20122908.420    -1070549.910 8 -12302160.007 9
  22260523.440    -3652578.422 6  -3075108.351 3
  23961254.749   -11771110.747 5  -5773188.910 3
 94  3 23 21 21 29.9990000  0  9  2 31 15 16 18 19 27  7 26
  21074967.903   -10784332.370 9 -15239000.258 9
  23932839.580    -8138894.715 5   2941727.518 2
  24495125.008    -2684317.342 4   -991815.773 2
  24671805.504     -517347.838 5  -1526440.572 2
  24543138.029    24299952.663 5  17736145.229 2
  21392492.096    10570122.256 8    512857.531 7
  20124466.082    -1062382.630 8 -12295795.906 9
  22243917.336    -3739829.930 6  -3143096.477 3
  23946484.214   -11848831.793 6  -5833750.745 3
 94  3 23 21 21 59.9990000  0  9  2 31 15 16 18 19 27  7 26
  21071342.873   -10803379.098 9 -15253841.838 9
  23952321.533    -8036516.996 5   3021502.227 2
  24484084.131    -2742310.998 5  -1037005.508 2
  24683422.042     -456284.925 5  -1478859.219 1
  24565472.507    24417385.280 4  17827650.701 2
  21402827.681    10624435.976 7    555179.870 7
  20126092.876    -1053825.899 8 -12289128.322 9
  22227370.981    -3826781.656 6  -3210850.990 3
  23931743.599   -11926264.227 6  -5894087.676 3
 94  3 23 21 22 29.9990000  0  8  2 31 15 18 19 27  7 26
  21067763.261   -10822185.127 9 -15268495.868 9
  23971859.277    -7933858.277 5   3101495.928 2
  24473088.913    -2800064.073 4  -1082007.746 2
  24587826.352    24534855.000 4  17919185.183 2
  21413220.796    10679061.877 7    597745.462 6
  20127795.937    -1044882.875 8 -12282159.740 9
  22210882.816    -3913440.370 6  -3278377.174 3
  23917075.893   -12003373.745 6  -5954172.970 3
 94  3 23 21 22 59.9990000  0  8  2 31 15 18 19 27  7 26
  21064226.310   -10840778.670 9 -15282984.325 9
  23991437.823    -7830926.756 5   3181702.232 2
  24462153.414    -2857575.775 5  -1126821.948 2
  24610194.617    24652358.181 4  18010745.721 2
  21423673.360    10733998.468 7    640553.175 6
  20129569.389    -1035551.238 8 -12274888.346 9
  22194443.816    -3999800.112 6  -3345670.450 3
  23902462.060   -12080141.224 6  -6013991.746 3
 94  3 23 21 23 29.9990000  0  8  2 31 15 18 19 27  7 26
  21060725.393   -10859165.521 8 -15297311.711 9
  24011081.304    -7727723.415 5   3262120.344 2
  24451243.816    -2914828.824 5  -1171434.606 2
  24632557.245    24769893.350 5  18102331.136 2
  21434187.651    10789255.839 7    683610.823 6
  20131422.796    -1025813.756 8 -12267300.705 9
  22178073.799    -4085851.562 6  -3412723.453 3
  23887920.867   -12156537.543 5  -6073521.326 3
 94  3 23 21 23 59.9990000  0  8  2 31 15 18 19 27  7 26
  21057264.679   -10877347.549 9 -15311479.521 9
  24030772.932    -7624253.171 5   3342746.392 2
  24440405.479    -2971808.223 4  -1215833.962 2
  24654930.487    24887463.791 5  18193944.058 2
  21444765.018    10844830.533 7    726915.727 6
  20133359.605    -1015653.936 8 -12259383.976 9
  22161758.704    -4171588.379 6  -3479531.270 3
  23873462.716   -12232545.396 5  -6132748.187 3
 94  3 23 21 24 29.9990000  0  8  2 31 15 18 19 27  7 26
  21053846.385   -10895323.822 8 -15325486.992 9
  24050497.957    -7520544.314 5   3423558.479 2
  24429626.771    -3028517.429 5  -1260022.836 2
  24677307.865    25005048.801 4  18285568.349 2
  21455400.785    10900717.803 8    770464.199 6
  20135367.255    -1005069.003 8 -12251135.974 9
  22145503.237    -4257006.350 5  -3546090.618 3
  23859063.114   -12308190.712 5  -6191692.542 3
 94  3 23 21 24 59.9990000  0  8  2 31 15 18 19 27  7 26
  21050464.307   -10913096.268 9 -15339335.635 9
  24070283.120    -7416632.477 5   3504528.629 2
  24418875.734    -3084965.936 5  -1304008.595 2
  24699668.815    25122598.253 5  18377164.887 2
  21466094.112    10956902.671 8    814244.599 6
  20137464.513     -994066.593 8 -12242562.671 9
  22129307.159    -4342116.520 6  -3612410.170 3
  23844736.063   -12383513.230 5  -6250385.406 2
 94  3 23 21 25 29.9990000  0  8  2 31 15 18 19 27  7 26
  21047124.049   -10930657.429 9 -15353019.645 9
  24090094.664    -7312530.949 5   3585646.657 2
  24408188.403    -3141155.228 5  -1347792.392 2
  24722030.994    25240107.650 5  18468730.249 2
  21476841.312    11013381.652 8    858254.169 6
  20139638.039     -982655.225 8 -12233670.716 9
  22113170.680    -4426931.057 6  -3678499.368 3
  23830460.336   -12458540.905 6  -6308848.468 2
 94  3 23 21 25 59.9990000  0  8  2 31 15 18 19 27  7 26
  21043821.476   -10947983.008 9 -15366520.091 9
  24109935.289    -7208235.348 5   3666915.925 2
  24397541.693    -3197082.519 5  -1391371.995 2
  24744399.798    25357580.678 5  18560267.246 2
  21487641.845    11070153.007 7    902491.530 6
  20141883.604     -970854.152 8 -12224475.079 9
  22097082.858    -4511448.367 5  -3744356.920 3
  23816228.438   -12533287.906 6  -6367092.851 2
 94  3 23 21 26 29.9990000  0  8  2 31 15 18 19 27  7 26
  21040575.593   -10965055.730 9 -15379823.489 9
  24129827.868    -7103724.579 5   3748352.788 2
  24386946.278    -3252742.386 5  -1434743.211 2
  24766737.484    25475021.576 5  18651779.171 2
  21498502.576    11127233.183 7    946969.550 6
  20144203.968     -958660.731 8 -12214973.723 9
  22081058.771    -4595668.732 5  -3809983.081 3
  23802062.675   -12607752.160 6  -6425116.951 2
 94  3 23 21 26 59.9990000  0  8  2 31 15 18 19 27  7 26
  21037372.970   -10981889.542 9 -15392940.734 9
  24149761.398    -6998990.197 5   3829963.916 2
  24376410.282    -3308132.811 5  -1477904.482 2
  24789076.040    25592443.713 5  18743276.484 2
  21509423.716    11184616.219 7    991683.576 6
  20146597.271     -946081.073 8 -12205171.396 9
  22065080.283    -4679598.573 5  -3875382.881 4
  23787951.654   -12681933.031 6  -6482920.218 2
 94  3 23 21 27 29.9990000  0  7  2 31 15 19 27  7 26
  21034215.346   -10998498.167 9 -15405882.518 9
  24169726.586    -6894022.690 5   3911756.702 2
  24365923.902    -3363259.328 5  -1520860.113 2
  21520399.777    11242293.648 7   1036626.992 6
  20149060.486     -933130.544 8 -12195080.085 9
  22049167.749    -4763241.018 5  -3940558.713 4
  23773891.867   -12755822.147 6  -6540496.111 3
 94  3 23 21 27 59.9990000  0  7  2 31 15 19 27  7 26
  21031093.937   -11014893.975 9 -15418658.456 9
  24189750.324    -6788818.562 5   3993733.864 2
  24355482.910    -3418121.456 5  -1563609.796 2
  21531432.739    11300259.978 7   1081795.493 6
  20151594.272     -919806.086 8 -12184697.407 9
  22033309.177    -4846598.968 5  -4005512.916 3
  23759885.024   -12829389.393 6  -6597821.222 3
 94  3 23 21 28 29.9990000  0  7  2 31 15 19 27  7 26
  21028006.284   -11031101.594 9 -15431287.771 9
  24209812.346    -6683388.685 5   4075886.881 2
  24345086.228    -3472719.785 4  -1606153.833 2
  21542516.756    11358508.947 7   1127184.269 6
  20154205.764     -906093.927 8 -12174012.620 9
  22017502.920    -4929668.963 5  -4070242.701 3
  23745951.390   -12902618.900 6  -6654883.161 3
 94  3 23 21 28 59.9990000  0  7  2 31 15 19 27  7 26
  21024961.112   -11047112.226 9 -15443763.567 9
  24229929.199    -6577744.230 5   4158207.198 2
  24334745.486    -3527039.976 4  -1648481.175 2
  21553652.787    11417045.438 7   1172797.079 6
  20156888.247     -891985.506 8 -12163019.059 9
  22001751.344    -5012435.908 6  -4134736.324 3
  23732081.732   -12975490.623 6  -6711666.275 3
 94  3 23 21 29 29.9990000  0  7  2 31 15 19 27  7 26
  21021955.543   -11062905.785 9 -15456070.224 9
  24250066.708    -6471890.896 5   4240690.174 2
  24324468.421    -3581079.674 4  -1690589.855 2
  21564849.405    11475870.245 7   1218634.543 6
  20159650.474     -877475.239 8 -12151712.371 9
  21986062.246    -5094896.152 6  -4198991.006 3
  23718286.092   -13047999.148 6  -6768166.385 3
 94  3 23 21 29 59.9990000  0  7  2 31 15 19 27  7 26
  21018993.144   -11078470.802 9 -15468198.806 9
  24270237.554    -6365830.872 5   4323334.253 2
  24314238.693    -3634831.164 5  -1732474.076 2
  21576097.259    11534983.524 7   1264696.793 6
  20162495.175     -862549.843 8 -12140082.204 9
  21970424.232    -5177039.371 6  -4262998.697 3
  23704555.358   -13120147.406 6  -6824385.772 3
 94  3 23 21 30 29.9990000  0  7  2 31 15 19 27  7 26
  21016074.334   -11093807.785 9 -15480149.685 9
  24290467.459    -6259568.993 5   4406135.626 2
  24304060.559    -3688295.546 5  -1774134.511 2
  21587401.683    11594382.534 7   1310981.697 6
  20165410.207     -847217.064 8 -12128134.603 9
  21954856.159    -5258851.904 5  -4326748.646 3
  23690890.008   -13191952.255 6  -6880337.543 3
 94  3 23 21 30 59.9990000  0  7  2 31 15 19 27  7 26
  21013197.766   -11108924.434 9 -15491928.886 9
  24310720.718    -6153113.061 5   4489088.252 2
  24293945.382    -3741480.826 5  -1815577.442 2
  21598755.363    11654058.278 8   1357482.221 6
  20168402.256     -831495.757 8 -12115884.248 9
  21939344.388    -5340338.761 5  -4390244.766 4
  23677292.621   -13263429.279 6  -6936033.907 3
 94  3 23 21 31 29.9990000  0  7  2 31 15 19 27  7 26
  21010360.950   -11123836.098 9 -15503548.355 9
  24331024.162    -6046455.352 6   4572198.079 2
  24283868.158    -3794386.879 4  -1856802.834 2
  21610165.644    11714007.468 8   1404195.838 6
  20171467.514     -815385.762 8 -12103331.023 9
  21923900.519    -5421497.359 5  -4453485.098 4
  23663759.750   -13334576.569 6  -6991473.337 3
 94  3 23 21 31 59.9990000  0  7  2 31 15 19 27  7 26
  21007555.792   -11138571.232 9 -15515030.266 9
  24351353.749    -5939609.128 5   4655454.771 2
  24273858.298    -3847018.459 4  -1897814.342 2
  21621627.159    11774225.587 7   1451119.018 6
  20174601.034     -798907.286 8 -12090490.670 9
  21908532.109    -5502328.822 5  -4516470.571 4
  23650277.783   -13405390.689 6  -7046653.150 3
 94  3 23 21 32 29.9990000  0  7  2 31 15 19 27  7 26
  21004785.080   -11153129.846 8 -15526374.639 9
  24371715.952    -5832602.281 5   4738836.661 2
  24263903.719    -3899376.251 5  -1938612.481 2
  21633134.243    11834718.261 7   1498256.115 6
  20177805.156     -782073.113 8 -12077373.144 9
  21893207.558    -5582835.179 6  -4579202.740 4
  23636868.426   -13475870.690 6  -7101572.605 3
 94  3 23 21 32 59.9990000  0  7  2 31 15 19 27  7 26
  21002051.902   -11167508.828 9 -15537579.016 9
  24392099.351    -5725458.605 5   4822325.121 2
  24253989.043    -3951461.191 5  -1979198.032 2
  21644700.206    11895486.546 7   1545607.969 6
  20181075.982     -764880.650 8 -12063976.438 9
  21877946.563    -5663025.141 6  -4641688.367 4
  23623513.782   -13546017.165 6  -7156232.162 3
 94  3 23 21 33 29.9990000  0  7  2 31 15 19 27  7 26
  20999351.282   -11181700.754 9 -15548637.655 9
  24412517.226    -5618184.709 5   4905915.147 2
  24244120.355    -4003270.496 4  -2019568.816 2
  21656313.866    11956536.587 7   1593179.411 6
  20184420.616     -747323.958 8 -12050295.914 9
  21862748.614    -5742896.697 6  -4703925.905 4
  23610239.152   -13615833.480 6  -7210634.447 3
 94  3 23 21 33 59.9990000  0  7  2 31 15 19 27  7 26
  20996688.375   -11195699.062 9 -15559545.419 9
  24432954.348    -5510803.980 5   4989588.393 2
  24234325.745    -4054809.826 5  -2059729.205 2
  21667986.165    12017857.844 7   1640962.152 6
  20187826.828     -729410.323 8 -12036337.250 9
  21847608.375    -5822456.961 6  -4765920.837 4
  23597004.664   -13685333.854 6  -7264790.533 3
 94  3 23 21 34 29.9990000  0  7  2 31 15 19 27  7 26
  20994057.966   -11209508.638 9 -15570306.116 9
  24453408.498    -5403312.311 5   5073348.090 2
  24224560.995    -4106082.866 4  -2099682.112 2
  21679709.459    12079451.183 7   1688956.918 6
  20191303.162     -711128.744 8 -12022091.880 9
  21832526.506    -5901715.701 6  -4827680.796 4
  23583840.207   -13754522.704 6  -7318703.899 3
 94  3 23 21 34 59.9990000  0  7  2 31 15 19 27  7 26
  20991468.089   -11223144.570 9 -15580931.504 9
  24473886.451    -5295677.923 4   5157218.963 2
  24214860.911    -4157088.405 4  -2139426.613 2
  21691479.491    12141309.390 7   1737158.083 6
  20194852.734     -692478.354 8 -12007559.134 9
  21817496.831    -5980689.075 6  -4889218.442 4
  23570732.322   -13823393.986 6  -7372369.823 3
 94  3 23 21 35 29.9990000  0  7  2 31 15 19 27  7 26
  20988899.767   -11236613.189 9 -15591426.521 9
  24494395.253    -5187878.916 4   5241218.157 2
  24205203.456    -4207816.294 4  -2178954.711 2
  21703297.130    12203434.121 7   1785566.910 6
  20198472.399     -673463.003 8 -11992741.973 9
  21802521.359    -6059373.863 6  -4950531.195 5
  23557688.532   -13891933.845 6  -7425777.468 3
 94  3 23 21 35 59.9990000  0  7  2 31 15 19 27  7 26
  20986366.641   -11249913.721 9 -15601790.566 9
  24514943.388    -5079893.591 4   5325362.510 2
  24195604.671    -4258251.698 4  -2218254.951 2
  21715172.629    12265835.663 7   1834191.437 6
  20202162.934     -654075.559 8 -11977634.896 9
  21787606.534    -6137761.779 7  -5011612.623 5
  23544710.606   -13960120.943 6  -7478910.244 3
 94  3 23 21 36 29.9990000  0  7  2 31 15 19 27  7 26
  20983869.370   -11263044.742 9 -15612022.522 9
  24535526.029    -4971709.264 4   5409661.882 2
  24186072.261    -4308382.874 4  -2257318.146 2
  21727104.429    12328528.617 7   1883043.042 6
  20205926.798     -634310.492 8 -11962233.550 9
  21772750.498    -6215840.793 7  -5072453.336 5
  23531802.412   -14027944.864 6  -7531760.060 3
 94  3 23 21 36 59.9990000  0  7  2 31 15 19 27  7 26
  20981404.206   -11276003.929 9 -15622120.580 9
  24556153.129    -4863356.662 4   5494092.509 2
  24176587.097    -4358207.060 4  -2296142.146 2
  21739090.970    12391499.474 7   1932111.192 6
  20209756.107     -614170.458 8 -11946540.036 9
  21757952.593    -6293600.488 7  -5133045.253 6
  23518972.464   -14095420.155 6  -7584338.199 3
 94  3 23 21 37 29.9990000  0  7  2 31 15 19 27  7 26
  20978971.750   -11288785.325 9 -15632080.112 9
  24576795.519    -4754863.905 4   5578632.273 2
  24167165.669    -4407723.490 4  -2334726.280 2
  21751124.580    12454740.309 7   1981389.725 6
  20213662.553     -593648.529 8 -11930548.926 9
  21743218.843    -6371020.198 7  -5193372.253 6
  23506187.035   -14162554.767 6  -7636650.853 3
 94  3 23 21 37 59.9990000  0  7  2 31 15 19 27  7 26
  20976573.860   -11301370.318 9 -15641886.595 9
  24597459.493    -4646248.466 4   5663267.512 2
  24157807.318    -4456928.665 4  -2373067.853 2
  21763206.216    12518246.805 7   2030875.255 6
  20217644.816     -572731.362 8 -11914249.850 9
  21728550.118    -6448094.759 7  -5253430.307 6
  23493482.251   -14229355.966 6  -7688703.730 3
 94  3 23 21 38 29.9990000  0  7  2 31 15 19 27  7 26
  20974219.860   -11313751.249 9 -15651534.074 9
  24618193.229    -4537524.211 4   5747987.688 2
  24148493.846    -4505818.984 5  -2411164.161 2
  21775338.067    12582006.293 7   2080557.915 6
  20221701.547     -551416.500 8 -11897640.879 9
  21713954.122    -6524817.103 7  -5313213.878 6
  23480828.491   -14295836.323 6  -7740506.579 3
 94  3 23 21 38 59.9990000  0  7  2 31 15 19 27  7 26
  20971901.445   -11325938.988 9 -15661031.002 9
  24638889.732    -4428699.821 5   5832785.800 2
  24139239.222    -4554404.628 4  -2449023.058 2
  21787517.495    12645989.493 7   2130414.897 6
  20225827.921     -529715.726 8 -11880731.203 9
  21699417.576    -6601200.322 7  -5372733.228 6
  23468236.548   -14362014.855 6  -7792074.253 3
 94  3 23 21 39 29.9990000  0  6  2 15 19 27  7 26
  20969620.744   -11337928.423 9 -15670373.427 9
  24130059.937    -4602688.279 4  -2486646.603 2
  21799732.090    12710197.854 7   2180447.331 6
  20230034.099     -507631.445 8 -11863522.681 9
  21684942.876    -6677265.902 7  -5432005.045 6
  23455702.855   -14427880.576 6  -7843398.174 3
 94  3 23 21 39 59.9990000  0  6  2 15 19 27  7 26
  20967377.397   -11349720.209 9 -15679561.815 9
  24120932.846    -4650664.759 5  -2524030.791 2
  21811998.698    12774641.709 7   2230663.249 6
  20234306.141     -485164.634 8 -11846016.074 9
  21670529.275    -6753016.533 7  -5491031.450 6
  23443234.067   -14493422.037 6  -7894469.421 3
 94  3 23 21 40 30.0000000  0  6  2 15 19 27  7 26
  20965168.646   -11361327.564 9 -15688606.506 9
  24111860.586    -4698330.509 5  -2561172.866 2
  21824309.315    12839337.750 7   2281075.689 6
  20238650.524     -462318.712 8 -11828214.062 9
  21656173.593    -6828444.634 7  -5549806.535 6
  23430820.830   -14558622.271 6  -7945274.772 3
 94  3 23 21 41  0.0000000  0  6  2 15 19 27  7 26
  20962995.330   -11372744.909 9 -15697503.138 9
  24102850.414    -4745669.327 5  -2598060.150 2
  21836675.514    12904312.805 7   2331705.558 5
  20243079.268     -439072.588 8 -11810100.224 9
  21641880.628    -6903546.727 7  -5608327.601 7
  23418492.525   -14623440.554 6  -7995782.514 3
 94  3 23 21 41 30.0000000  0  6  2 15 19 27  7 26
  20960856.731   -11383985.389 9 -15706261.945 9
  24093903.468    -4792679.844 5  -2634691.661 2
  21849095.286    12969583.970 7   2382566.155 5
  20247577.114     -415422.601 8 -11791671.669 9
  21627651.968    -6978323.804 7  -5666595.367 7
  23406230.444   -14687850.656 6  -8045972.182 3
 94  3 23 21 42  0.0000000  0  6  2 15 19 27  7 26
  20958746.312   -11395072.212 9 -15714901.024 9
  24085021.577    -4839356.006 5  -2671062.640 2
  21861570.400    13035157.590 7   2433662.383 5
  20252151.887     -391382.102 8 -11772938.836 9
  21613490.822    -7052754.649 7  -5724593.394 7
  23394051.585   -14751851.759 6  -8095843.151 4
 94  3 23 21 42 30.0000000  0  6  2 15 19 27  7 26
  20956666.262   -11406005.674 9 -15723420.594 9
  24076203.211    -4885692.096 5  -2707168.561 2
  21874106.371    13101037.021 7   2484996.955 5
  20256800.859     -366938.965 8 -11753892.254 9
  21599391.942    -7126841.725 7  -5782323.527 7
  23381949.893   -14815433.337 6  -8145387.215 4
 94  3 23 21 43  0.0000000  0  6  2 15 19 27  7 26
  20954616.551   -11416782.822 9 -15731818.368 9
  24067461.743    -4931683.301 5  -2743005.791 2
  21886700.533    13167213.735 7   2536563.171 5
  20261531.943     -342088.667 8 -11734528.390 9
  21585358.777    -7200589.348 7  -5839789.162 7
  23369934.001   -14878592.352 6  -8194602.010 4
 94  3 23 21 43 30.0000000  0  6  2 15 19 27  7 26
  20952596.459   -11427395.484 9 -15740087.965 9
  24058770.460    -4977323.145 5  -2778569.186 2
  21899350.935    13233686.076 7   2588359.726 5
  20266335.608     -316847.768 8 -11714860.171 9
  21571392.975    -7273977.429 8  -5896974.610 7
  23357990.270   -14941340.491 6  -8243496.637 4
 94  3 23 21 44  0.0000000  0  6  2 15 19 27  7 26
  20950613.512   -11437818.924 9 -15748210.113 9
  24050150.347    -5022609.834 5  -2813857.405 2
  21912055.210    13300448.224 7   2640382.118 5
  20271210.983     -291220.497 8 -11694890.894 9
  21557492.768    -7347010.578 7  -5953883.509 7
  23346131.559   -15003694.149 6  -8292083.865 4
 94  3 23 21 44 30.0000000  0  6  2 15 19 27  7 26
  20948671.487   -11448021.227 9 -15756159.964 9
  24041601.646    -5067544.019 5  -2848870.949 2
  21924812.248    13367489.777 7   2692622.228 5
  20276167.571     -265187.800 8 -11674605.678 9
  21543663.372    -7419698.370 8  -6010523.292 7
  23334340.902   -15065652.190 6  -8340362.856 4
 94  3 23 21 45  0.0000000  0  6  2 15 19 27  7 26
  20946772.031   -11458013.504 9 -15763946.137 9
  24033117.669    -5112135.711 5  -2883617.616 2
  21937620.761    13434790.748 7   2745064.464 5
  20281194.431     -238763.623 8 -11654015.423 9
  21529896.663    -7492034.303 7  -6066888.904 7
  23322617.188   -15127248.747 6  -8388360.137 4
 94  3 23 21 45 30.0000000  0  6  2 15 19 27  7 26
  20944906.303   -11467797.102 9 -15771569.721 9
  24024691.342    -5156389.908 5  -2918101.266 2
  21950477.121    13502343.213 7   2797702.702 5
  20286295.790     -211946.615 8 -11633119.077 9
  21516198.306    -7564010.548 8  -6122974.233 7
  23310965.424   -15188505.911 6  -8436092.984 4
 94  3 23 21 46  0.0000000  0  6  2 15 19 27  7 26
  20943084.344   -11477378.711 9 -15779035.902 9
  24016339.394    -5200304.969 5  -2952320.693 2
  21963374.282    13570135.394 7   2850527.720 5
  20291481.090     -184711.347 8 -11611896.811 9
  21502573.938    -7635620.452 8  -6178774.105 8
  23299367.144   -15249420.011 6  -8483558.497 4
 94  3 23 21 46 30.0000000  0  6  2 15 19 27  7 26
  20941295.843   -11486787.104 9 -15786367.111 9
  24008046.655    -5243879.747 5  -2986274.936 2
  21976321.779    13638164.897 7   2903537.638 5
  20296741.009     -157058.913 8 -11590349.462 9
  21489015.584    -7706854.530 8  -6234281.112 8
  23287841.713   -15309997.191 6  -8530761.469 4
 94  3 23 21 47  0.0000000  0  6  2 15 19 27  7 26
  20939534.292   -11496039.133 9 -15793576.477 9
  23999816.663    -5287101.353 5  -3019953.959 2
  21989314.694    13706445.276 7   2956743.067 5
  20302080.012     -128996.670 8 -11568482.786 9
  21475536.945    -7777693.894 8  -6289480.551 8
  23276383.885   -15370230.084 6  -8577696.158 4
 94  3 23 21 47 30.0000000  0  6  2 15 19 27  7 26
  20937800.203   -11505135.477 9 -15800664.522 9
  23991657.901    -5329964.202 5  -3053353.449 2
  22002356.386    13774993.804 6   3010157.433 5
  20307498.311     -100537.614 8 -11546306.925 9
  21462128.817    -7848148.589 8  -6344380.248 8
  23264992.281   -15430083.488 6  -8624335.180 4
 94  3 23 21 48  0.0000000  0  6  2 15 19 27  7 26
  20936101.608   -11514089.357 9 -15807641.559 9
  23983579.304    -5372466.370 5  -3086471.891 2
  22015456.057    13843816.432 6   3063785.366 5
  20312985.143      -71701.607 8 -11523837.317 9
  21448794.678    -7918235.626 8  -6398993.456 8
  23253675.415   -15489542.589 6  -8670666.911 4
 94  3 23 21 48 30.0000000  0  6  2 15 19 27  7 26
  20934419.983   -11522907.317 9 -15814512.686 9
  23975553.350    -5414610.330 5  -3119311.219 2
  22028605.764    13912920.218 7   3117632.403 5
  20318539.967      -42512.838 8 -11501092.845 9
  21435522.926    -7987966.786 8  -6453329.403 8
  23242431.190   -15548604.374 6  -8716689.065 4
 94  3 23 21 49  0.0000000  0  6  2 15 19 27  7 26
  20932769.415   -11531577.952 9 -15821269.015 9
  23967600.815    -5456394.995 5  -3151870.578 2
  22041810.092    13982299.250 7   3171693.918 5
  20324164.404      -12963.935 8 -11478067.740 9
  21422321.805    -8057337.941 8  -6507384.816 8
  23231276.272   -15607250.366 6  -8762387.230 4
 94  3 23 21 49 30.0000000  0  6  2 15 19 27  7 26
  20931149.217   -11540088.977 9 -15827900.990 9
  23959724.758    -5497820.708 5  -3184150.189 2
  22055061.818    14051942.408 7   3225961.282 5
  20329857.463       16960.260 8 -11454750.200 9
  21409189.756    -8126359.196 8  -6561167.541 8
  23220197.981   -15665472.258 6  -8807754.920 4
 94  3 23 21 50  0.0000000  0  6  2 15 19 27  7 26
  20929562.355   -11548429.620 9 -15834400.161 9
  23951917.143    -5538883.130 5  -3216146.775 2
  22068360.402    14121833.522 7   3280421.823 5
  20335629.637       47288.639 8 -11431117.740 9
  21396122.253    -8195021.792 8  -6614670.815 8
  23209194.339   -15723285.904 6  -8852804.484 4
 94  3 23 21 50 30.0000000  0  6  2 15 19 27  7 26
  20928012.428   -11556580.943 9 -15840751.846 9
  23944165.199    -5579578.756 5  -3247857.541 2
  22081706.383    14191963.741 7   3335068.686 5
  20341480.746       78039.094 8 -11407156.362 9
  21383130.507    -8263307.695 8  -6667880.560 8
  23198271.011   -15780687.030 6  -8897532.615 4
 94  3 23 21 51  0.0000000  0  6  2 15 19 27  7 26
  20926496.978   -11564534.936 9 -15846949.757 9
  23936488.024    -5619908.059 5  -3279282.864 2
  22095090.797    14262322.634 7   3389893.736 5
  20347411.270      109209.482 8 -11382867.764 9
  21370204.535    -8331223.893 8  -6720802.226 8
  23187424.070   -15837674.226 6  -8941938.196 4
 94  3 23 21 51 30.0000000  0  6  2 15 19 27  7 26
  20925022.328   -11572292.550 9 -15852994.627 9
  23928881.120    -5659869.991 5  -3310421.930 2
  22108526.416    14332921.708 6   3444905.935 5
  20353422.139      140788.992 8 -11358260.359 9
  21357348.925    -8398781.383 8  -6773444.374 8
  23176660.442   -15894259.810 6  -8986030.849 4
 94  3 23 21 52  0.0000000  0  6  2 15 19 27  7 26
  20923581.346   -11579863.200 9 -15858893.843 9
  23921348.055    -5699454.190 4  -3341266.636 2
  22122013.479    14403779.489 7   3500119.678 5
  20359505.827      172762.323 8 -11333346.093 9
  21344563.226    -8465962.953 8  -6825793.593 8
  23165965.975   -15950450.080 6  -9029815.465 4
 94  3 23 21 52 30.0000000  0  6  2 15 19 27  7 26
  20922175.050   -11587252.455 9 -15864651.693 9
  23913893.926    -5738655.093 5  -3371812.745 2
  22135551.237    14474910.600 7   3555546.464 5
  20365660.836      205108.465 8 -11308141.331 9
  21331852.086    -8532764.886 8  -6877846.990 8
  23155353.772   -16006235.351 6  -9073284.491 4
 94  3 23 21 53  0.0000000  0  6  2 15 19 27  7 26
  20920799.992   -11594478.672 9 -15870282.499 9
  23906508.419    -5777467.112 5  -3402055.800 2
  22149138.850    14546326.005 7   3611194.784 5
  20371886.207      237826.492 8 -11282646.780 9
  21319213.466    -8599186.402 8  -6929603.982 8
  23144819.125   -16061614.202 6  -9116436.848 4
 94  3 23 21 53 30.0000000  0  6  2 15 19 27  7 26
  20919448.407   -11601564.924 9 -15875804.246 9
  23899193.692    -5815890.304 5  -3431995.865 2
  22162779.797    14618017.406 7   3667058.123 5
  20378185.506      270926.488 8 -11256854.598 9
  21306646.406    -8665220.038 8  -6981058.719 8
  23134349.683   -16116605.826 6  -9159287.439 4
 94  3 23 21 54  0.0000000  0  6  2 15 19 27  7 26
  20918123.864   -11608528.919 9 -15881230.743 9
  23891951.906    -5853927.682 5  -3461635.324 2
  22176473.807    14689966.312 7   3723122.127 5
  20384558.404      304409.326 8 -11230764.089 9
  21294156.182    -8730856.600 8  -7032204.048 8
  23123956.778   -16171212.697 6  -9201838.247 4
 94  3 23 21 54 30.0000000  0  6  2 15 19 27  7 26
  20916828.161   -11615358.239 9 -15886552.273 9
  23884789.864    -5891581.956 5  -3490976.241 2
  22190211.796    14762164.823 6   3779380.619 5
  20391004.092      338286.863 8 -11204366.036 9
  21281740.877    -8796104.148 8  -7083046.237 9
  23113645.716   -16225426.475 6  -9244082.727 4
 94  3 23 21 55  0.0000000  0  6  2 15 19 27  7 26
  20915551.105   -11622059.007 9 -15891773.657 9
  23877691.528    -5928854.276 5  -3520019.602 2
  22203997.303    14834609.819 6   3835831.199 5
  20397529.044      372568.164 8 -11177653.364 9
  21269398.212    -8860966.400 8  -7133588.206 9
  23103397.880   -16279254.870 6  -9286026.915 4
 94  3 23 21 55 30.0000000  0  6  2 15 19 27  7 26
  20914302.290   -11628614.513 9 -15896881.837 9
  23870675.815    -5965739.981 4  -3548761.635 2
  22217832.095    14907302.989 6   3892475.134 5
  20404129.455      407251.961 8 -11150627.028 9
  21257125.188    -8925451.443 8  -7183836.253 9
  23093230.299   -16332690.374 6  -9327664.977 4
 94  3 23 21 56  0.0000000  0  6  2 15 19 27  7 26
  20913088.280   -11635003.338 9 -15901860.117 9
  23863728.544    -6002230.542 5  -3577195.827 2
  22231715.274    14980265.624 7   3949329.046 5
  20410804.874      442334.661 8 -11123289.872 9
  21244927.922    -8989559.879 8  -7233790.819 9
  23083144.262   -16385699.928 6  -9368971.102 4
 94  3 23 21 56 30.0000000  0  6  2 15 19 27  7 26
  20911905.839   -11641215.631 9 -15906700.890 9
  23856867.404    -6038320.396 5  -3605317.691 2
  22245652.116    15053505.770 7   4006399.207 5
  20417553.922      477813.447 8 -11095644.099 9
  21232799.399    -9053292.085 8  -7283452.238 9
  23073136.830   -16438271.779 6  -9409936.151 4
 94  3 23 21 57  0.0000000  0  6  2 15 19 27  7 26
  20910754.216   -11647261.587 9 -15911412.012 9
  23850072.488    -6074005.024 5  -3633123.849 2
  22259642.770    15127010.047 7   4063675.169 5
  20424383.793      513690.817 8 -11067687.723 9
  21220740.427    -9116646.618 8  -7332819.366 9
  23063217.777   -16490398.986 6  -9450554.767 4
 94  3 23 21 57 30.0000000  0  6  2 15 19 27  7 26
  20909639.528   -11653138.197 9 -15915991.186 9
  23843365.891    -6109285.980 5  -3660615.446 2
  22273673.956    15200756.707 6   4121140.025 5
  20431283.607      549959.221 8 -11039426.649 9
  21208758.172    -9179621.641 8  -7381890.779 9
  23053386.053   -16542073.747 6  -9490820.785 4
 94  3 23 21 58  0.0000000  0  6  2 15 19 27  7 26
  20908550.202   -11658844.445 9 -15920437.632 9
  23836721.921    -6144157.429 5  -3687787.967 2
  22287752.120    15274733.215 6   4178783.973 5
  20438261.816      586626.755 8 -11010854.579 9
  21196852.155    -9242192.601 8  -7430647.334 9
  23043633.385   -16593288.025 6  -9530728.003 4
 94  3 23 21 58 30.0000000  0  6  2 15 19 27  7 26
  20907495.832   -11664399.421 9 -15924766.164 9
  23830175.173    -6178628.617 5  -3714648.562 2
  22301865.720    15348904.852 7   4236579.968 5
  20445313.804      623693.651 8 -10981971.286 9
  21185017.727    -9304371.875 8  -7479098.707 9
  23033981.177   -16644061.344 6  -9570291.640 4
 94  3 23 21 59  0.0000000  0  6  2 15 19 27  7 26
  20906469.552   -11669801.175 9 -15928975.308 9
  23823683.887    -6212694.057 5  -3741193.016 2
  22316015.384    15423278.845 6   4294533.662 5
  20452446.436      661180.939 8 -10952760.426 9
  21173262.595    -9366159.316 8  -7527244.694 9
  23024399.240   -16694389.516 6  -9609508.365 4
 94  3 23 21 59 30.0000000  0  6  2 15 19 27  7 26
  20905469.744   -11675046.082 9 -15933062.269 9
  23817280.710    -6246350.067 5  -3767418.379 2
  22330209.148    15497869.788 6   4352656.359 5
  20459660.072      699085.800 8 -10923224.216 9
  21161581.182    -9427536.892 8  -7575071.325 9
  23014910.689   -16744275.432 6  -9648380.500 4
 94  3 23 22  0  0.0000000  0  6  2 15 19 27  7 26
  20904500.336   -11680135.748 9 -15937028.231 9
  23810951.791    -6279591.480 5  -3793320.709 2
  22344454.626    15572701.137 7   4410966.424 5
  20466956.751      737425.985 8 -10893348.784 9
  21149977.595    -9488504.921 8  -7622578.819 9
  23005500.114   -16793722.082 6  -9686910.344 4
 94  3 23 22  0 30.0000000  0  6  2 15 19 27  7 26
  20903562.345   -11685071.250 9 -15940874.065 9
  23804715.388    -6312416.467 5  -3818898.562 2
  22358746.722    15647798.759 6   4469483.981 5
  20474338.450      776199.926 8 -10863135.322 9
  21138455.971    -9549072.950 8  -7669774.656 9
  22996171.832   -16842751.789 6  -9725115.285 4
 94  3 23 22  1  0.0000000  0  6  2 15 19 27  7 26
  20902655.443   -11689840.734 9 -15944590.553 9
  23798534.268    -6344825.017 5  -3844151.904 2
  22373086.694    15723172.401 6   4528216.599 5
  20481792.670      815387.068 8 -10832599.898 9
  21127006.508    -9609221.975 8  -7716643.980 9
  22986912.382   -16891374.356 6  -9763003.012 4
 94  3 23 22  1 30.0000000  0  6  2 15 19 27  7 26
  20901779.389   -11694433.987 9 -15948169.701 9
  23792458.794    -6376815.203 5  -3869079.202 2
  22387483.478    15798814.693 6   4587158.570 5
  20489323.576      854967.596 8 -10801757.977 9
  21115641.346    -9668945.188 8  -7763181.508 9
  22977743.589   -16939595.893 6  -9800578.196 4
 94  3 23 22  2  0.0000000  0  6  2 15 19 27  7 26
  20900937.872   -11698854.593 9 -15951614.310 9
  23786447.025    -6408384.138 5  -3893678.311 2
  22401920.823    15874725.225 6   4646309.557 5
  20496933.238      894938.082 8 -10770612.155 9
  21104356.348    -9728256.084 8  -7809397.734 9
  22968640.421   -16987416.134 6  -9837840.722 4
 94  3 23 22  2 30.0000000  0  6  2 15 19 27  7 26
  20900131.970   -11703103.031 9 -15954924.793 9
  23780517.191    -6439530.365 5  -3917947.987 2
  22416413.810    15950889.618 6   4705658.352 5
  20504608.075      935271.471 8 -10739183.562 9
  21093149.057    -9787145.807 8  -7855285.789 9
  22959615.349   -17034830.264 6  -9874786.811 4
 94  3 23 22  3  0.0000000  0  6  2 15 19 27  7 26
  20899352.569   -11707181.097 9 -15958102.525 9
  23774670.188    -6470247.206 5  -3941883.135 2
  22430958.121    16027293.909 6   4765194.089 5
  20512352.974      975972.112 8 -10707468.822 9
  21082026.936    -9845604.615 8  -7900838.075 9
  22950674.968   -17081807.087 6  -9911392.101 4
 94  3 23 22  3 30.0000000  0  6  2 15 19 27  7 26
  20898610.193   -11711099.471 9 -15961155.779 9
  23768908.657    -6500523.708 5  -3965475.092 2
  22445544.553    16103953.043 6   4824928.379 4
  20520173.929     1017066.593 8 -10675447.174 9
  21070982.612    -9903646.407 8  -7946065.382 9
  22941822.097   -17128327.348 6  -9947641.651 4
 94  3 23 22  4  0.0000000  0  6  2 15 19 27  7 26
  20897890.242   -11714873.204 9 -15964096.361 9
  23763229.778    -6530360.907 5  -3988724.770 2
  22460179.581    16180863.258 6   4884858.330 5
  20528068.934     1058564.957 8 -10643110.805 9
  21060014.256    -9961284.223 8  -7990977.923 9
  22933061.982   -17174387.976 6  -9983533.039 4
 94  3 23 22  4 30.0000000  0  6  2 15 19 27  7 26
  20897202.458   -11718491.634 9 -15966915.929 9
  23757642.576    -6559755.344 5  -4011629.448 2
  22474865.005    16258026.320 6   4944985.286 4
  20536044.792     1100481.829 8 -10610448.334 8
  21049123.545   -10018516.127 8  -8035574.164 9
  22924384.159   -17219977.312 6 -10019057.166 4
 94  3 23 22  5  0.0000000  0  6  2 15 19 27  7 26
  20896541.415   -11721964.634 9 -15969622.154 9
  23752132.421    -6588711.347 5  -4034192.452 2
  22489600.554    16335449.137 6   5005314.692 5
  20544105.971     1142836.737 8 -10577444.531 8
  21038303.136   -10075359.938 8  -8079867.998 9
  22915799.092   -17265097.245 6 -10054215.565 4
 94  3 23 22  5 30.0000000  0  6  2 15 19 27  7 26
  20895907.115   -11725295.989 9 -15972218.011 9
  23746707.107    -6617231.546 5  -4056415.869 2
  22504383.979    16413135.955 6   5065849.770 4
  20552247.255     1185620.293 8 -10544106.716 9
  21027560.613   -10131829.341 8  -8123870.075 9
  22907298.717   -17309755.291 6 -10089014.030 4
 94  3 23 22  6  0.0000000  0  6  2 15 19 27  7 26
  20895302.643   -11728479.828 9 -15974698.931 9
  23741355.332    -6645317.726 5  -4078301.110 2
  22519216.541    16491079.212 6   5126584.674 4
  20560468.164     1228824.995 8 -10510440.747 9
  21016887.731   -10187902.961 8  -8167563.763 9
  22898887.320   -17353958.565 6 -10123458.112 4
 94  3 23 22  6 30.0000000  0  6  2 15 19 27  7 26
  20894726.052   -11731505.587 9 -15977056.671 9
  23736096.582    -6672964.857 5  -4099844.209 2
  22534098.838    16569291.006 6   5187528.839 4
  20568767.259     1272444.440 8 -10476451.618 9
  21006296.873   -10243560.993 8  -8210933.624 9
  22890559.206   -17397703.174 6 -10157544.818 4
 94  3 23 22  7  0.0000000  0  6  2 15 19 27  7 26
  20894176.922   -11734391.868 9 -15979305.713 9
  23730919.316    -6700173.350 5  -4121045.556 2
  22549025.055    16647765.225 6   5248677.439 4
  20577147.657     1316460.340 8 -10442153.538 9
  20995783.661   -10298803.502 8  -8253979.707 9
  22882327.234   -17441003.461 6 -10191285.302 4
 94  3 23 22  7 30.0000000  0  6  2 15 19 27  7 26
  20893654.324   -11737139.815 9 -15981446.960 9
  23725824.164    -6726944.783 5  -4141906.350 2
  22564009.431    16726482.388 6   5310015.406 4
  20585593.290     1360854.211 8 -10407560.938 9
  20985350.524   -10353622.246 8  -8296695.561 9
  22874173.719   -17483869.560 6 -10224687.420 4
 94  3 23 22  8  0.0000000  0  6  2 15 19 27  7 26
  20893159.127   -11739739.113 9 -15983472.396 9
  23720811.874    -6753276.717 5  -4162424.688 2
  22579036.228    16805418.144 6   5371523.676 4
  20594110.094     1405626.333 8 -10372673.607 9
  20975004.656   -10408014.495 8  -8339079.113 9
  22866095.212   -17526299.738 6 -10257749.904 4
 94  3 23 22  8 30.0000000  0  6  2 15 19 27  7 26
  20892693.040   -11742190.016 9 -15985382.192 9
  23715885.984    -6779164.988 5  -4182597.292 2
  22594094.504    16884559.611 6   5433192.267 4
  20602702.956     1450767.626 8 -10337498.601 9
  20964725.912   -10462008.715 8  -8381152.476 9
  22858104.454   -17568281.334 6 -10290462.818 4
 94  3 23 22  9  0.0000000  0  6  2 15 19 27  7 26
  20892253.004   -11744490.136 9 -15987174.495 9
  23711043.256    -6804607.468 5  -4202422.515 2
  22609190.673    16963889.438 6   5495007.610 4
  20611364.859     1496277.959 8 -10302036.032 9
  20954528.352   -10515606.848 8  -8422917.207 9
  22850205.072   -17609809.712 6 -10322822.596 4
 94  3 23 22  9 30.0000000  0  6  2 15 19 27  7 26
  20891852.481   -11746608.671 9 -15988825.292 9
  23706286.120    -6829603.675 5  -4221899.982 2
  22624315.412    17043395.343 6   5556960.173 4
  20620093.197     1542168.954 8 -10266276.839 8
  20944407.868   -10568803.533 8  -8464369.134 9
  22842385.436   -17650875.394 6 -10354821.834 4
 94  3 23 22 10  0.0000000  0  6  2 15 19 27  7 26
  20891482.568   -11748550.680 9 -15990338.555 9
  23701621.739    -6854150.963 5  -4241027.752 2
  22639483.322    17123084.931 6   5619055.848 4
  20628903.677     1588444.642 8 -10230217.899 8
  20934362.063   -10621600.689 8  -8505509.747 9
  22834658.675   -17691480.043 6 -10386461.843 4
 94  3 23 22 10 30.0000000  0  6  2 15 19 27  7 26
  20891141.074   -11750335.375 9 -15991729.224 9
  23697032.666    -6878252.929 5  -4259808.430 2
  22654681.330    17202982.152 6   5681313.300 4
  20637784.459     1635108.785 8 -10193856.251 8
  20924392.734   -10673977.170 8  -8546322.563 9
  22827020.952   -17731635.743 6 -10417751.964 4
 94  3 23 22 11  0.0000000  0  6  2 15 19 27  7 26
  20890829.889   -11751969.193 9 -15993002.325 9
  23692530.592    -6901907.712 5  -4278240.681 2
  22669935.400    17283099.561 6   5743742.350 4
  20646739.410     1682181.886 8 -10157175.958 8
  20914508.367   -10725899.973 8  -8586781.848 9
  22819464.953   -17771351.464 7 -10448699.307 4
 94  3 23 22 11 30.0000000  0  6  2 15 19 27  7 26
  20890544.727   -11753464.783 9 -15994167.710 9
  23688119.626    -6925108.415 5  -4296319.109 2
  22685228.443    17363459.869 6   5806360.628 4
  20655778.362     1729682.257 8 -10120162.704 8
  20904717.595   -10777363.472 8  -8626883.220 9
  22811992.176   -17810620.470 6 -10479298.531 4
 94  3 23 22 12  0.0000000  0  6  2 15 19 27  7 26
  20890283.428   -11754841.376 9 -15995240.382 9
  23683785.496    -6947846.045 5  -4314036.685 2
  22700567.084    17444092.836 6   5869191.443 4
  20664901.317     1777617.364 8 -10082810.701 8
  20895014.932   -10828356.395 8  -8666617.927 9
  22804605.350   -17849425.215 6 -10509535.987 4
 94  3 23 22 12 30.0000000  0  6  2 15 19 27  7 26
  20890048.990   -11756078.550 9 -15996204.416 9
  23679550.598    -6970114.232 5  -4331388.472 2
  22715968.202    17525010.183 6   5932243.803 4
  20674105.844     1825993.462 8 -10045115.057 8
  20885401.847   -10878880.059 8  -8705986.991 9
  22797317.605   -17887743.245 6 -10539394.220 4
 94  3 23 22 13  0.0000000  0  6  2 15 19 27  7 26
  20889842.313   -11757162.519 9 -15997049.068 9
  23675407.407    -6991907.812 5  -4348370.451 2
  22731422.264    17606208.198 6   5995514.885 4
  20683393.625     1874803.352 8 -10007081.394 8
  20875872.074   -10928952.729 8  -8745004.601 9
  22790116.171   -17925560.780 6 -10568862.414 4
 94  3 23 22 13 30.0000000  0  6  2 15 19 27  7 26
  20889665.645   -11758092.265 9 -15997773.542 9
  23671350.015    -7013228.253 5  -4364983.723 2
  22746921.834    17687676.285 6   6058996.389 4
  20692761.509     1924027.160 8  -9968725.205 8
  20866422.077   -10978597.977 8  -8783689.191 9
  22783010.610   -17962873.685 7 -10597937.418 4
 94  3 23 22 14  0.0000000  0  6  2 15 19 27  7 26
  20889522.345   -11758850.860 9 -15998364.643 9
  23667379.294    -7034070.837 5  -4381224.613 2
  22762474.257    17769401.225 6   6122678.054 4
  20702203.922     1973657.871 8  -9930051.967 8
  20857058.809   -11027818.807 8  -8822043.031 9
  22776010.486   -17999686.988 6 -10626623.114 4
 94  3 23 22 14 30.0000000  0  6  2 15 19 27  7 26
  20889411.661   -11759434.786 9 -15998819.648 9
  23663509.663    -7054432.415 5  -4397090.814 2
  22778071.439    17851361.465 6   6186543.111 4
  20711726.320     2023683.745 8  -9891070.775 8
  20847768.570   -11076618.860 8  -8860069.010 9
  22769103.238   -18036017.870 7 -10654932.892 4
 94  3 23 22 15  0.0000000  0  6  2 15 19 27  7 26
  20889329.998   -11759866.370 9 -15999155.963 9
  23659722.535    -7074309.312 5  -4412579.272 2
  22793701.629    17933540.075 6   6250578.266 4
  20721321.628     2074099.052 8  -9851786.170 8
  20838565.901   -11124989.170 8  -8897760.126 9
  22762272.407   -18071878.078 7 -10682875.918 4
 94  3 23 22 15 30.0000000  0  6  2 15 19 27  7 26
  20889274.446   -11760152.523 9 -15999378.942 9
  23656035.208    -7093696.632 5  -4427686.209 2
  22809383.442    18015932.869 6   6314780.389 4
  20730987.686     2124904.747 8  -9812197.348 8
  20829444.656   -11172922.401 8  -8935110.667 9
  22755535.321   -18107277.244 7 -10710459.707 4
 94  3 23 22 16  0.0000000  0  6  2 15 19 27  7 26
  20889243.058   -11760295.664 9 -15999490.471 9
  23652432.002    -7112596.606 5  -4442413.419 2
  22825108.696    18098546.720 6   6379154.675 3
  20740731.720     2176098.282 8  -9772306.323 8
  20820408.131   -11220414.670 8  -8972117.579 9
  22748886.614   -18142215.164 7 -10737684.053 4
 94  3 23 22 16 30.0000000  0  6  2 15 19 27  7 26
  20889245.037   -11760309.087 9 -15999500.944 9
  23648937.291    -7131007.788 5  -4456759.760 2
  22840871.873    18181385.694 6   6443704.442 4
  20750542.488     2227674.326 8  -9732117.225 8
  20811455.309   -11267456.860 8  -9008773.810 9
  22742333.840   -18176679.061 7 -10764539.034 4
 94  3 23 22 17  0.0000000  0  6  2 15 19 27  7 26
  20889264.703   -11760185.942 9 -15999404.993 9
  23645521.096    -7148924.949 5  -4470721.111 2
  22856680.859    18264458.467 6   6508436.381 4
  20760432.462     2279643.521 8  -9691621.785 8
  20802592.155   -11314045.202 8  -9045076.392 9
  22735865.578   -18210648.425 6 -10791008.698 4
 94  3 23 22 17 30.0000000  0  6  2 15 19 27  7 26
  20889318.306   -11759911.352 9 -15999191.030 9
  23642205.242    -7166353.164 5  -4484301.493 2
  22872534.394    18347766.352 6   6573351.513 4
  20770398.822     2332014.604 8  -9650813.183 8
  20793812.463   -11360177.073 8  -9081023.266 9
  22729498.136   -18244117.627 7 -10817088.582 4
 94  3 23 22 18  0.0000000  0  6  2 15 19 27  7 26
  20889399.520   -11759475.442 9 -15998851.373 9
  23638983.312    -7183292.533 5  -4497500.963 2
  22888431.009    18431306.769 6   6638447.868 4
  20780440.101     2384791.691 8  -9609688.208 8
  20785122.559   -11405849.966 8  -9116612.480 9
  22723225.219   -18277073.759 6 -10842768.675 5
 94  3 23 22 18 30.0000000  0  6  2 15 19 27  7 26
  20889514.640   -11758876.715 9 -15998384.839 9
  23635849.702    -7199747.253 5  -4510322.733 2
  22904368.186    18515059.869 6   6703709.896 3
  20790564.242     2437971.679 8  -9568249.282 8
  20776516.567   -11451065.851 8  -9151845.614 9
  22717047.365   -18309541.799 7 -10868068.465 5
 94  3 23 22 19  0.0000000  0  6  2 15 19 27  7 26
  20889667.984   -11758097.477 9 -15997777.636 9
  23632812.894    -7215710.094 5  -4522761.283 2
  22920344.995    18599037.069 6   6769146.597 3
  20800762.042     2491570.850 8  -9526483.754 8
  20767997.784   -11495825.743 8  -9186723.444 9
  22710959.780   -18341531.190 7 -10892995.264 5
 94  3 23 22 19 30.0000000  0  6  2 15 19 27  7 26
  20889846.450   -11757130.188 9 -15997023.900 9
  23629872.020    -7231173.096 5  -4534810.341 2
  22936373.489    18683244.842 6   6834762.930 3
  20811042.195     2545596.340 8  -9484385.998 8
  20759569.299   -11540127.141 8  -9221243.989 9
  22704963.691   -18373045.790 6 -10917552.080 5
 94  3 23 22 20  0.0000000  0  6  2 15 19 27  7 26
  20890066.888   -11755986.626 9 -15996132.813 9
  23627029.958    -7246137.514 6  -4546470.849 2
  22952442.844    18767688.580 6   6900563.118 3
  20821401.164     2600033.684 8  -9441967.308 8
  20751226.135   -11583982.624 8  -9255417.031 9
  22699057.839   -18404096.124 7 -10941747.156 4
 94  3 23 22 20 30.0000000  0  6  2 15 19 27  7 26
  20890315.206   -11754679.558 9 -15995114.324 9
  23624273.995    -7260603.878 5  -4557743.292 2
  22968551.233    18852367.930 6   6966546.944 3
  20831840.387     2654888.488 8  -9399223.350 8
  20742962.056   -11627398.854 8  -9289247.836 9
  22693233.082   -18434685.817 6 -10965583.259 4
 94  3 23 22 21  0.0000000  0  6  2 15 19 27  7 26
  20890591.584   -11753226.070 9 -15993981.737 9
  23621618.764    -7274573.753 5  -4568628.829 2
  22984715.892    18937278.346 6   7032710.787 3
  20842355.577     2710146.026 8  -9356165.571 8
  20734782.759   -11670383.695 8  -9322742.508 9
  22687504.527   -18464791.804 7 -10989042.491 4
 94  3 23 22 21 30.0000000  0  6  2 15 19 27  7 26
  20890895.094   -11751639.489 9 -15992745.445 9
  23619060.904    -7288045.025 5  -4579125.894 2
  23000914.188    19022410.531 6   7099047.497 3
  20852946.286     2765797.901 8  -9312800.504 8
  20726682.666   -11712935.059 8  -9355899.376 9
  22681870.558   -18494395.168 6 -11012110.023 4
 94  3 23 22 22  0.0000000  0  6  2 15 19 27  7 26
  20891221.508   -11749922.397 9 -15991407.438 9
  23616579.582    -7301011.265 5  -4589229.411 2
  23017157.903    19107777.269 6   7165566.883 3
  20863612.362     2821856.179 8  -9269118.773 8
  20718672.092   -11755036.759 8  -9388705.865 9
  22676336.869   -18523483.158 7 -11034775.999 5
 94  3 23 22 22 30.0000000  0  6  2 15 19 27  7 26
  20891573.555   -11748069.945 9 -15989963.981 9
  23614216.498    -7313463.908 5  -4598932.680 2
  23033441.610    19193374.867 6   7232266.219 3
  20874358.452     2878328.518 8  -9225114.378 8
  20710749.447   -11796672.470 8  -9421149.259 9
  22670898.424   -18552043.310 7 -11057030.664 5
 94  3 23 22 23  0.0000000  0  6  2 15 19 27  7 26
  20891952.462   -11746075.091 9 -15988409.545 9
  23611940.953    -7325395.594 5  -4608230.057 2
  23049786.415    19279213.924 6   7299153.673 3
  20885182.969     2935214.652 8  -9180787.550 8
  20702915.030   -11837828.306 8  -9453218.705 9
  22665564.966   -18580061.965 6 -11078863.376 5
 94  3 23 22 23 30.0000000  0  6  2 15 19 27  7 26
  20892360.060   -11743934.498 9 -15986741.556 9
  23609764.310    -7336812.601 5  -4617126.386 2
  23066166.085    19365301.563 6   7366234.838 3
  20896090.887     2992537.133 7  -9136120.699 8
  20695177.777   -11878500.523 8  -9484911.321 9
  22660334.517   -18607562.076 7 -11100292.034 5
 94  3 23 22 24  0.0000000  0  6  2 15 19 27  7 26
  20892801.684   -11741624.703 9 -15984941.709 9
  23607698.111    -7347709.594 5  -4625617.503 2
  23082593.783    19451636.130 6   7433508.424 3
  20907085.356     3050305.995 7  -9091106.033 8
  20687531.870   -11918676.051 8  -9516216.890 9
  22655201.231   -18634554.411 6 -11121325.014 5
 94  3 23 22 24 30.0000000  0  6  2 15 19 27  7 26
  20893269.510   -11739148.773 9 -15983012.428 9
  23605718.491    -7358096.355 5  -4633711.046 2
  23099064.321    19538188.571 6   7500951.778 3
  20918157.111     3108494.663 8  -9045764.241 8
  20679977.549   -11958380.902 8  -9547155.720 9
  22650155.723   -18661052.523 7 -11141972.874 5
 94  3 23 22 25  0.0000000  0  7  2 13 15 19 27  7 26
  20893774.691   -11736500.803 9 -15980949.068 9
  23811589.000    -3870637.27715   -236814.895
  23603838.013    -7367970.334 5  -4641405.014 2
  23115575.300    19624962.087 6   7568567.395 3
  20929314.967     3167110.416 8  -9000089.651 8
  20672510.918   -11997614.117 8  -9577727.029 9
  22645205.460   -18687062.312 6 -11162240.262 5
 94  3 23 22 25 30.0000000  0  7  2 13 15 19 27  7 26
  20894312.638   -11733682.739 9 -15978753.191 9
  23789235.635    -3988120.093 5   -328358.597
  23602043.785    -7377332.741 5  -4648700.322 2
  23132125.703    19711940.363 6   7636342.542 3
  20940543.933     3226143.027 7  -8954090.255 8
  20665132.816   -12036377.688 8  -9607932.359 9
  22640350.711   -18712595.530 7 -11182136.271 5
 94  3 23 22 26  0.0000000  0  7  2 13 15 19 27  7 26
  20894875.049   -11730710.780 9 -15976437.371 9
  23766887.186    -4105514.777 4   -419834.695
  23600373.012    -7386189.054 5  -4655601.304 2
  23148714.299    19799112.142 6   7704268.489 3
  20951850.126     3285549.781 7  -8907799.313 8
  20657843.992   -12074690.285 8  -9637786.310 9
  22635581.793   -18737643.852 7 -11201654.457 5
 94  3 23 22 26 30.0000000  0  7  2 13 15 19 27  7 26
  20895470.437   -11727590.155 9 -15974005.726 9
  23744569.167    -4222819.815 5   -511240.822 1
  23598783.422    -7394539.514 6  -4662108.134 2
  23165344.326    19886489.446 6   7772354.565 3
  20963227.819     3345321.413 8  -8861224.027 7
  20650638.181   -12112559.206 8  -9667294.544 9
  22630910.007   -18762190.435 7 -11220781.655 5
 94  3 23 22 27  0.0000000  0  7  2 13 15 19 27  7 26
  20896090.558   -11724323.120 9 -15971459.977 9
  23722271.233    -4340032.731 4   -602575.187 1
  23597291.175    -7402383.397 5  -4668220.254 2
  23182012.517    19974077.166 6   7840604.654 3
  20974670.897     3405469.220 8  -8814355.641 7
  20643518.799   -12149974.865 8  -9696449.578 9
  22626338.472   -18786230.098 7 -11239513.849 5
 94  3 23 22 27 30.0000000  0  7  2 13 15 19 27  7 26
  20896743.176   -11720906.901 9 -15968797.992 9
  23699980.975    -4457148.796 4   -693833.978 1
  23595896.781    -7409717.924 5  -4673935.402 2
  23198722.858    20061878.184 6   7909020.881 3
  20986187.425     3465989.169 7  -8767197.254 7
  20636481.531   -12186948.510 8  -9725260.159 9
  22621859.183   -18809747.586 7 -11257839.187 5
 94  3 23 22 28  0.0000000  0  7  2 13 15 19 27  7 26
  20897423.165   -11717339.533 9 -15966018.242 9
  23677716.408    -4574168.785 4   -785018.132 1
  23594598.080    -7416545.842 5  -4679255.827 2
  23215465.428    20149891.300 6   7977602.443 3
  20997775.483     3526884.408 7  -8719746.466 7
  20629525.177   -12223494.648 8  -9753737.660 9
  22617484.701   -18832743.916 7 -11275758.395 5
 94  3 23 22 28 30.0000000  0  7  2 13 15 19 27  7 26
  20898125.729   -11713629.326 9 -15963127.171 9
  23655465.452    -4691094.788 5   -876128.978 1
  23593394.383    -7422871.299 5  -4684184.736 2
  23232247.660    20238099.534 5   8046335.988 3
  21009436.060     3588174.821 8  -8671987.755 7
  20622654.114   -12259608.300 8  -9781878.134 9
  22613201.896   -18855242.152 7 -11293289.486 5
 94  3 23 22 29  0.0000000  0  7  2 13 15 19 27  7 26
  20898858.601   -11709791.644 9 -15960136.763 9
  23633227.927    -4807922.908 4   -967163.501 1
  23592279.964    -7428692.253 5  -4688720.537 2
  23249076.479    20326505.691 5   8115223.792 3
  21021180.160     3649869.768 8  -8623913.798 7
  20615868.401   -12295279.575 8  -9809673.885 9
  22609013.975   -18877250.455 7 -11310438.804 5
 94  3 23 22 29 30.0000000  0  7  2 13 15 19 27  7 26
  20899609.641   -11705824.880 9 -15957045.786 9
  23611023.948    -4924649.095 4  -1058118.504 1
  23591273.231    -7434006.700 5  -4692861.591 2
  23265931.861    20415120.700 5   8184274.339 3
  21032995.760     3711957.567 8  -8575533.722 7
  20609162.584   -12330500.635 8  -9837118.841 9
  22604918.840   -18898774.655 7 -11327210.921 5
 94  3 23 22 30  0.0000000  0  7  2 13 15 19 27  7 26
  20900392.280   -11701734.160 9 -15953858.220 9
  23588825.786    -5041272.156 5  -1148993.437 1
  23590358.115    -7438815.571 5  -4696608.719 2
  23282838.416    20503940.864 5   8253484.705 3
  21044884.270     3774436.131 8  -8526849.156 7
  20602550.541   -12365253.726 8  -9864199.154 9
  22600914.632   -18919826.314 7 -11343614.810 5
 94  3 23 22 30 30.0000000  0  7  2 13 15 19 27  7 26
  20901196.503   -11697513.504 9 -15950569.393 9
  23566654.904    -5157792.077 5  -1239787.894 1
  23589544.868    -7443120.515 5  -4699963.219 2
  23299776.630    20592973.147 5   8322860.387 3
  21056848.297     3837303.373 7  -8477861.745 7
  20596027.117   -12399530.200 8  -9890908.049 9
  22596998.473   -18940397.466 7 -11359644.291 5
 94  3 23 22 31  0.0000000  0  7  2 13 15 19 27  7 26
  20902026.478   -11693147.071 9 -15947166.985 9
  23544494.965    -5274203.230 5  -1330497.653 1
  23588823.477    -7446917.990 5  -4702922.243 2
  23316767.818    20682219.519 5   8392402.867 3
  21068882.116     3900541.035 7  -8428585.693 7
  20589595.759   -12433340.447 8  -9917253.682 9
  22593178.398   -18960470.153 7 -11375285.328 5
 94  3 23 22 31 30.0000000  0  7  2 13 15 19 27  7 26
  20902884.964   -11688616.430 9 -15943636.634 9
  23522362.757    -5390498.817 5  -1421117.441 1
  23588190.615    -7450203.324 5  -4705482.220 2
  23333787.305    20771662.962 5   8462098.907 3
  21080981.860     3964139.005 7  -8379028.869 7
  20583249.993   -12466692.785 8  -9943242.491 9
  22589456.984   -18980040.848 7 -11390535.254 5
 94  3 23 22 32  0.0000000  0  7  2 13 15 19 27  7 26
  20903780.924   -11683926.134 9 -15939981.862 9
  23500267.993    -5506677.370 5  -1511646.191 1
  23587668.677    -7452977.112 5  -4707643.584 2
  23350838.931    20861284.297 5   8531933.577 3
  21093154.993     4028103.080 7  -8329186.790 7
  20576984.630   -12499598.457 8  -9968883.239 9
  22585826.797   -18999102.905 7 -11405388.786 5
 94  3 23 22 32 30.0000000  0  7  2 13 15 19 27  7 26
  20904704.524   -11679074.668 9 -15936201.499 9
  23478174.668    -5622730.064 5  -1602076.604 1
  23587230.770    -7455232.611 5  -4709401.117 2
  23367928.929    20951081.149 6   8601905.033 3
  21105398.996     4092438.711 8  -8279055.160 7
  20570809.055   -12532059.795 8  -9994177.773 9
  22582295.512   -19017649.253 7 -11419840.511 5
 94  3 23 22 33  0.0000000  0  7  2 13 15 19 27  7 26
  20905652.798   -11674084.216 9 -15932312.847 9
  23456115.429    -5738652.585 5  -1692405.604 1
  23586907.744    -7456967.747 5  -4710753.154 2
  23385050.197    21041041.454 6   8672003.802 3
  21117709.764     4157144.280 8  -8228635.270 7
  20564714.874   -12564071.314 8 -10019121.781 9
  22578867.655   -19035692.368 7 -11433900.086 5
 94  3 23 22 33 30.0000000  0  7  2 13 15 19 27  7 26
  20906623.766   -11668971.358 9 -15928328.810 9
  23434082.093    -5854444.118 4  -1782632.524 1
  23586679.661    -7458183.811 5  -4711700.704 2
  23402198.385    21131173.109 6   8742236.121 3
  21130097.698     4222239.363 7  -8177911.878 7
  20558713.329   -12595623.993 8 -10043708.257 9
  22575525.809   -19053237.722 7 -11447571.774 5
 94  3 23 22 34  0.0000000  0  7  2 13 15 19 27  7 26
  20907620.216   -11663749.374 9 -15924259.723 9
  23412075.557    -5970107.616 4  -1872759.709 1
  23586540.408    -7458886.187 5  -4712247.985 2
  23419384.438    21221483.470 6   8812607.679 3
  21142559.830     4287733.522 7  -8126877.501 7
  20552795.816   -12626720.443 8 -10067939.237 9
  22572283.164   -19070287.003 7 -11460856.949 5
 94  3 23 22 34 30.0000000  0  7  2 13 15 19 27  7 26
  20908635.883   -11658423.466 9 -15920109.665 9
  23390098.792    -6085646.951 4  -1962790.010 1
  23586501.075    -7459080.652 5  -4712399.471 2
  23436611.082    21311978.177 6   8883122.925 3
  21155098.200     4353615.751 7  -8075540.760 7
  20546963.413   -12657365.314 8 -10091818.341 9
  22569131.715   -19086849.310 7 -11473762.645 5
 94  3 23 22 35  0.0000000  0  7  2 13 15 19 27  7 26
  20909668.458   -11652985.565 9 -15915872.350 9
  23368126.643    -6201051.308 3  -2052715.320 1
  23586557.046    -7458758.913 5  -4712148.794 2
  23453863.928    21402675.470 6   8953795.998 3
  21167708.280     4419886.941 8  -8023900.903 7
  20541217.141   -12687560.218 8 -10115346.797 9
  22566069.455   -19102923.819 7 -11486288.251 5
 94  3 23 22 35 30.0000000  0  6  2 15 19 27  7 26
  20910729.303   -11647416.541 9 -15911532.853 9
  23586724.241    -7457914.694 6  -4711490.873 2
  23471168.578    21493587.224 6   9024636.198 3
  21180396.277     4486555.774 7  -7971951.204 7
  20535554.811   -12717317.124 8 -10138533.981 9
  22563106.876   -19118505.016 6 -11498429.451 5
 94  3 23 22 36  0.0000000  0  6  2 15 19 27  7 26
  20911814.402   -11641703.694 9 -15907081.278 9
  23586980.233    -7456544.941 5  -4710423.505 2
  23488502.638    21584710.766 6   9095641.375 3
  21193156.253     4553605.173 7  -7919704.961 7
  20529976.243   -12746634.477 8 -10161378.641 9
  22560233.605   -19133598.677 7 -11510190.780 5
 94  3 23 22 36 30.0000000  0  6  2 15 19 27  7 26
  20912931.669   -11635838.980 9 -15902511.375 9
  23587341.034    -7454645.556 5  -4708943.407 2
  23505892.939    21676046.177 6   9166811.731 3
  21205986.591     4621029.546 7  -7867166.549 6
  20524483.596   -12775502.831 8 -10183873.438 9
  22557449.822   -19148215.955 7 -11521580.829 5
 94  3 23 22 37  0.0000000  0  6  2 15 19 27  7 26
  20914075.737   -11629820.740 9 -15897821.833 9
  23587807.301    -7452217.091 6  -4707051.129 2
  23523303.716    21767580.528 5   9238137.019 3
  21218892.237     4688843.103 8  -7814324.846 7
  20519077.678   -12803916.044 8 -10206013.586 9
  22554763.622   -19162352.929 7 -11532596.682 5
 94  3 23 22 37 30.0000000  0  7  2 13 15 19 27  7 26
  20915252.842   -11623638.061 9 -15893004.160 9
  23258748.503     2576713.46015    -69963.094
  23588368.242    -7449256.781 5  -4704744.371 2
  23540761.830    21859308.422 5   9309613.186 2
  21231869.473     4757049.510 8  -7761177.020 7
  20513760.439   -12831851.412 8 -10227781.382 9
  22552163.522   -19175985.794 7 -11543219.707 5
 94  3 23 22 38  0.0000000  0  7  2 13 15 19 27  7 26
  20916457.947   -11617292.147 9 -15888059.289 9
  23236968.581     2462238.953 5   -159164.945
  23589029.285    -7445765.389 5  -4702023.739 2
  23558245.996    21951214.503 5   9381228.116 2
  21244916.890     4825631.490 7  -7707736.585 7
  20508537.065   -12859291.621 8 -10249163.336 9
  22549674.555   -19189100.955 7 -11553439.329 5
 94  3 23 22 38 30.0000000  0  7  2 13 15 19 27  7 26
  20917700.917   -11610780.575 9 -15882985.333 9
  23215219.028     2347929.817 5   -248234.132
  23589797.233    -7441743.224 5  -4698889.497 2
  23575768.355    22043281.128 5   9452968.166 2
  21258041.684     4894591.936 7  -7654001.234 7
  20503410.194   -12886240.195 8 -10270162.207 9
  22547279.363   -19201677.205 7 -11563239.023 5
 94  3 23 22 39  0.0000000  0  7  2 13 15 19 27  7 26
  20918970.898   -11604104.489 9 -15877783.188 9
  23193497.026     2233788.084 5   -337176.119
  23590663.663    -7437190.694 5  -4695342.077 2
  23593315.448    22135499.140 5   9524826.228 2
  21271233.601     4963918.920 7  -7599980.241 7
  20498374.281   -12912702.992 8 -10290782.545 9
  22544989.968   -19213696.745 7 -11572604.911 5
 94  3 23 22 39 30.0000000  0  7  2 13 15 19 27  7 26
  20920265.312   -11597285.163 9 -15872469.434 9
  23171802.215     2119804.439 5   -425995.267
  23591631.753    -7432119.825 5  -4691390.746 2
  23610894.048    22227862.547 5   9596797.516 2
  21284490.064     5033579.833 7  -7545699.082 6
  20493425.787   -12938705.560 8 -10311044.264 9
  22542804.481   -19225188.327 7 -11581559.392 5
 94  3 23 22 40  0.0000000  0  7  2 13 15 19 27  7 26
  20921588.356   -11590336.271 9 -15867054.707 9
  23150138.643     2005974.898 4   -514693.647
  23592692.569    -7426536.986 5  -4687040.410 2
  23628494.294    22320364.140 5   9668876.604 3
  21297811.192     5103577.028 7  -7491155.862 6
  20488562.463   -12964283.444 8 -10330975.059 9
  22540715.138   -19236176.986 7 -11590121.993 5
 94  3 23 22 40 30.0000000  0  7  2 13 15 19 27  7 26
  20922935.893   -11583255.820 9 -15861537.466 9
  23128498.364     1892309.460 3   -603263.900
  23593861.999    -7420434.682 5  -4682285.322 2
  23646127.816    22413025.398 5   9741079.920 2
  21311195.756     5173924.202 7  -7436339.926 6
  20483771.960   -12989434.771 8 -10350573.470 9
  22538721.788   -19246661.300 7 -11598291.629 5
 94  3 23 22 41  0.0000000  0  7  2 13 15 19 27  7 26
  20924310.441   -11576052.956 9 -15855924.840 9
  23106917.474     1778817.346 2   -691699.023
  23595116.571    -7413806.088 5  -4677120.191 2
  23663799.592    22505867.681 5   9813424.463 3
  21324651.821     5244633.986 8  -7381241.438 6
  20479069.595   -13014154.246 8 -10369835.382 9
  22536819.275   -19256654.585 7 -11606078.605 5
 94  3 23 22 41 30.0000000  0  6  2 15 19 27  7 26
  20925698.480   -11568738.872 9 -15850225.547 9
  23596481.046    -7406654.129 5  -4671547.178 2
  23681494.063    22598898.033 5   9885915.400 2
  21338180.195     5315717.302 7  -7325851.882 6
  20474446.735   -13038442.377 8 -10388761.178 9
  22535010.117   -19266164.071 7 -11613488.614 5
 94  3 23 22 42  0.0000000  0  6  2 15 19 27  7 26
  20927115.599   -11561295.774 9 -15844425.719 9
  23597934.890    -7398974.236 5  -4665562.848 2
  23699238.149    22692109.280 5   9958547.421 2
  21351776.713     5387176.872 7  -7270169.128 6
  20469911.475   -13062271.579 8 -10407329.379 9
  22533291.107   -19275171.927 7 -11620507.746 5
 94  3 23 22 42 30.0000000  0  6  2 15 19 27  7 26
  20928559.999   -11553721.986 9 -15838524.072 9
  23599499.596    -7390770.211 5  -4659170.059 2
  23717013.833    22785500.146 5  10031319.363 2
  21365448.808     5459007.603 7  -7214197.207 6
  20465469.510   -13085609.774 8 -10425514.939 9
  22531675.316   -19283674.416 7 -11627133.038 5
 94  3 23 22 43  0.0000000  0  6  2 15 19 27  7 26
  20930022.867   -11546020.497 9 -15832522.908 9
  23601161.856    -7382044.385 5  -4652370.719 2
  23734812.062    22879066.770 5  10104228.277 2
  21379186.677     5531217.713 7  -7157929.610 6
  20461125.218   -13108455.148 8 -10443316.523 9
  22530152.280   -19291690.641 7 -11633379.455 5
 94  3 23 22 43 30.0000000  0  6  2 15 19 27  7 26
  20931515.593   -11538172.364 9 -15826407.472 9
  23602914.083    -7372795.716 5  -4645163.955 2
  23752653.160    22972803.027 5  10177269.314 2
  21392999.045     5603795.656 7  -7101375.412 6
  20456872.932   -13130809.592 8 -10460735.551 9
  22528719.872   -19299217.118 7 -11639244.248 5
 94  3 23 22 44  0.0000000  0  6  2 15 19 27  7 26
  20933040.218   -11530164.495 9 -15820167.571 9
  23604782.659    -7363021.575 5  -4637547.696 2
  23770520.821    23066707.185 5  10250441.203 2
  21406878.956     5676739.305 7  -7044536.268 6
  20452709.264   -13152676.128 8 -10477774.389 9
  22527381.628   -19306244.220 7 -11644719.951 5
 94  3 23 22 44 30.0000000  0  6  2 15 19 27  7 26
  20934594.852   -11522007.784 9 -15813811.700 9
  23606748.398    -7352716.224 5  -4629517.545 2
  23788428.743    23160794.581 5  10323755.920 2
  21420834.805     5750060.423 7  -6987402.969 6
  20448633.406   -13174077.489 8 -10494450.754 9
  22526141.657   -19312773.337 7 -11649807.563 5
 94  3 23 22 45  0.0000000  0  6  2 15 19 27  7 26
  20936174.578   -11513705.810 9 -15807342.630 9
  23608804.435    -7341874.458 5  -4621069.408 2
  23806367.095    23255068.481 5  10397215.878 2
  21434852.890     5823748.965 7  -6929983.366 6
  20444647.215   -13195038.615 8 -10510784.068 9
  22524981.310   -19318799.757 7 -11654503.481 5
 94  3 23 22 45 30.0000000  0  6  2 15 19 27  7 26
  20937778.288   -11505262.450 9 -15800763.394 9
  23610970.795    -7330497.394 5  -4612204.197 2
  23824341.931    23349523.661 5  10470817.181 2
  21448947.003     5897786.008 7  -6872292.234 6
  20440740.410   -13215571.326 8 -10526783.578 9
  22523948.165   -19324300.113 7 -11658789.491 5
 94  3 23 22 46  0.0000000  0  6  2 15 19 27  7 26
  20939407.480   -11496692.463 9 -15794085.491 9
  23613248.049    -7318581.866 5  -4602919.292 2
  23842351.693    23444165.399 5  10544563.737 2
  21463102.903     5972187.643 7  -6814316.969 6
  20436920.664   -13235660.493 8 -10542437.459 9
  22522997.223   -19329280.832 7 -11662670.588 4
 94  3 23 22 46 30.0000000  0  6  2 15 19 27  7 26
  20941064.223   -11488004.033 9 -15787315.294 9
  23615612.182    -7306128.870 5  -4593215.645 2
  23860397.910    23538985.395 5  10618449.310 2
  21477328.595     6046943.140 7  -6756065.959 6
  20433182.102   -13255297.711 8 -10557739.168 9
  22522147.402   -19333763.759 7 -11666163.783 5
 94  3 23 22 47  0.0000000  0  6  2 15 19 27  7 26
  20942739.853   -11479180.877 9 -15780440.113 9
  23618083.401    -7293137.401 6  -4583092.441 2
  23878469.160    23633969.441 5  10692462.653 2
  21491619.312     6122048.908 7  -6697542.034 6
  20429530.840   -13274468.959 8 -10572677.781 9
  22521388.327   -19337746.261 7 -11669267.032 5
 94  3 23 22 47 30.0000000  0  6  2 15 19 27  7 26
  20944449.240   -11470213.730 9 -15773452.733 9
  23620656.040    -7279607.431 5  -4572549.617 2
  23896568.860    23729098.056 5  10766588.626 2
  21505983.388     6197513.734 7  -6638738.331 6
  20425971.584   -13293164.221 8 -10587245.487 9
  22520716.432   -19341235.920 6 -11671986.270 5
 94  3 23 22 48  0.0000000  0  6  2 15 19 27  7 26
  20946182.190   -11461098.531 9 -15766349.985 9
  23623335.735    -7265540.482 5  -4561588.303 2
  23914703.575    23824357.924 5  10840816.966 2
  21520409.311     6273344.505 7  -6579649.459 6
  20422509.011   -13311378.170 8 -10601438.158 9
  22520151.474   -19344249.150 7 -11674334.258 5
 94  3 23 22 48 30.0000000  0  6  2 15 19 27  7 26
  20947945.389   -11451828.193 9 -15759126.356 9
  23626114.691    -7250939.818 5  -4550211.124 2
  23932847.584    23919739.234 5  10915139.804 2
  21534906.345     6349523.345 7  -6520289.401 6
  20419132.029   -13329129.591 8 -10615270.435 9
  22519668.268   -19346768.484 6 -11676297.391 5
 94  3 23 22 49  0.0000000  0  6  2 15 19 27  7 26
  20949738.478   -11442401.784 9 -15751781.110 9
  23628988.232    -7235803.914 5  -4538416.948 2
  23951023.671    24015252.964 4  10989565.936 2
  21549474.249     6426063.586 7  -6460647.698 6
  20415842.676   -13346422.114 8 -10628745.095 9
  22519288.131   -19348776.157 7 -11677861.834 5
 94  3 23 22 49 30.0000000  0  6  2 15 19 27  7 26
  20951561.726   -11432834.556 9 -15744326.116 9
  23631970.297    -7220141.589 5  -4526212.511 2
  23969225.660    24110904.613 4  11064099.455 2
  21564106.730     6502963.711 7  -6400725.552 6
  20412637.265   -13363263.082 8 -10641867.920 9
  22518997.482   -19350279.826 7 -11679033.513 5
 94  3 23 22 50  0.0000000  0  7  2 13 15 19 27  7 26
  20953407.368   -11423127.914 9 -15736762.512 9
  23024277.674      913853.88715    -12825.954
  23635050.635    -7203950.078 5  -4513595.700 3
  23987457.599    24206715.104 5  11138756.755 2
  21578808.732     6580220.427 7  -6340525.579 6
  20409518.974   -13379655.792 8 -10654641.434 9
  22518813.530   -19351273.841 7 -11679808.113 4
 94  3 23 22 50 30.0000000  0  7  2 13 15 19 27  7 26
  20955283.259   -11413270.907 9 -15729081.728 9
  22703627.156      804262.169 5    -98208.979
  23638235.060    -7187221.876 5  -4500560.684 3
  24005725.962    24302695.815 5  11213546.755 2
  21593577.587     6657834.965 7  -6280046.811 6
  20406484.265   -13395596.645 8 -10667062.857 9
  22518720.474   -19351737.299 7 -11680169.249 4
 94  3 23 22 51  0.0000000  0  7  2 13 15 19 27  7 26
  20957190.089   -11403271.255 9 -15721289.790 9
  22682819.371      694907.237 4   -183418.639
  23641523.724    -7169958.010 6  -4487108.321 2
  24024017.469    24398845.572 5  11288468.407 2
  21608418.813     6735820.198 7  -6219279.133 6
  20403535.716   -13411078.936 8 -10679126.958 9
  22518734.295   -19351688.876 7 -11680131.544 5
 94  3 23 22 51 30.0000000  0  7  2 13 15 19 27  7 26
  20959118.534   -11393117.721 9 -15713377.945 9
  22662061.291      585804.009 4   -268430.421
  23644908.201    -7152147.174 5  -4473229.757 2
  24042351.067    24495158.781 5  11363517.432 2
  21623328.631     6814175.037 7  -6158223.495 6
  20400679.473   -13426093.914 8 -10690826.931 9
  22518843.509   -19351125.874 7 -11679692.853 5
 94  3 23 22 52  0.0000000  0  7  2 13 15 19 27  7 26
  20961081.096   -11382813.960 9 -15705349.040 9
  22641345.693      476945.791 5   -353262.935
  23648397.965    -7133798.724 5  -4458932.209 2
  24060709.218    24591621.411 5  11438683.015 2
  21638302.245     6892879.118 7  -6096895.714 6
  20397909.481   -13440655.830 8 -10702173.860 9
  22519045.809   -19350059.564 7 -11678861.990 5
 94  3 23 22 52 30.0000000  0  7  2 13 15 19 27  7 26
  20963067.880   -11372363.650 9 -15697205.948 9
  22620677.971      368335.113 5   -437905.525
  23651993.675    -7114912.952 5  -4444216.015 3
  24079095.099    24688230.933 5  11513962.920 2
  21653348.769     6971932.209 7  -6035295.967 6
  20395225.649   -13454757.409 8 -10713162.097 9
  22519345.991   -19348491.997 7 -11677640.500 5
 94  3 23 22 53  0.0000000  0  7  2 13 15 19 27  7 26
  20965082.276   -11361771.023 9 -15688951.931 9
  22600058.365      259971.130 4   -522340.139
  23655692.155    -7095494.096 5  -4429084.430 3
  24097502.356    24784989.161 5  11589358.797 2
  21668455.970     7051332.558 7  -5973425.623 6
  20392628.487   -13468402.515 8 -10723794.626 9
  22519731.884   -19346432.264 6 -11676035.521 5
 94  3 23 22 53 30.0000000  0  7  2 13 15 19 27  7 26
  20967128.779   -11351019.479 9 -15680574.114 9
  22579480.371      151861.568 4   -606582.927
  23659496.461    -7075537.310 5  -4413533.703 2
  24115947.387    24881896.817 5  11664870.989 2
  21683631.434     7131068.992 7  -5911293.395 5
  20390118.655   -13481587.861 8 -10734068.895 9
  22520223.963   -19343856.409 7 -11674028.390 5
 94  3 23 22 54  0.0000000  0  7  2 13 15 19 27  7 26
  20969210.658   -11340094.182 9 -15672060.899 9
  22558961.286       44011.841 3   -690621.335
  23663392.894    -7055040.106 5  -4397561.835 3
  24134414.363    24978962.846 5  11740506.604 2
  21698868.566     7211143.859 7  -5848897.466 5
  20387697.980   -13494305.686 8 -10743978.874 9
  22520812.756   -19340756.699 6 -11671613.044 5
 94  3 23 22 54 30.0000000  0  7  2 13 15 19 27  7 26
  20971320.987   -11329003.366 9 -15663418.703 9
  22538485.731      -63576.295 3   -774456.104 1
  23667384.810    -7034004.197 5  -4381170.195 3
  24152912.247    25076179.887 5  11816260.016 2
  21714172.131     7291557.519 7  -5786237.533 5
  20385368.083   -13506559.578 8 -10753527.349 9
  22521505.876   -19337131.213 7 -11668788.031 5
 94  3 23 22 55  0.0000000  0  6  2 15 19 27  7 26
  20973464.713   -11317740.402 9 -15654642.369 9
  23671486.151    -7012429.188 5  -4364358.510 2
  24171443.948    25173540.345 5  11892125.076 2
  21729540.212     7372306.345 7  -5723316.440 5
  20383121.109   -13518360.702 8 -10762723.005 9
  22522297.928   -19332983.556 7 -11665556.103 5
 94  3 23 22 55 30.0000000  0  6  2 15 19 27  7 26
  20975640.396   -11306305.311 9 -15645731.918 9
  23675704.561    -6990317.986 5  -4347129.035 2
  24189996.154    25271042.125 5  11968100.227 2
  21744965.524     7453391.141 7  -5660133.537 5
  20380959.515   -13529713.275 8 -10771569.158 9
  22523178.298   -19328331.834 7 -11661931.411 5
 94  3 23 22 56  0.0000000  0  7  2 13 15 19 27  7 26
  20977848.338   -11294698.194 9 -15636687.398 9
  22856374.411      929824.51015   -132722.283
  23680009.670    -6967665.601 5  -4329477.793 2
  24208579.209    25368705.054 5  12044201.038 2
  21760463.654     7534820.965 7  -5596681.804 5
  20378888.459   -13540616.918 8 -10780065.469 9
  22524156.251   -19323191.071 7 -11657925.610 5
 94  3 23 22 56 30.0000000  0  7  2 13 15 19 27  7 26
  20980085.719   -11282941.661 9 -15627526.456 9
  22836103.884      823315.375 4   -215716.186 1
  23684426.063    -6944471.910 5  -4311404.785 2
  24227200.488    25466532.552 5  12120430.015 2
  21776025.042     7616603.219 7  -5532955.425 5
  20376894.959   -13551077.054 8 -10788216.214 9
  22525227.829   -19317561.514 7 -11653538.982 5
 94  3 23 22 57  0.0000000  0  7  2 13 15 19 27  7 26
  20982350.771   -11271034.802 9 -15618248.382 9
  22815897.813      717083.407 3   -298494.223 1
  23688945.584    -6920739.545 5  -4292912.014 2
  24245851.296    25564532.055 5  12196793.024 2
  21791656.730     7698746.106 7  -5468948.050 5
  20374992.896   -13561078.321 8 -10796009.377 9
  22526391.234   -19311451.773 7 -11648778.156 5
 94  3 23 22 57 30.0000000  0  7  2 13 15 19 27  7 26
  20984640.286   -11258987.217 9 -15608860.671 9
  22795728.376      611133.367 3   -381052.426 1
  23693560.859    -6896466.634 5  -4273998.069 2
  24264534.662    25662696.317 5  12273284.454 2
  21807359.709     7781251.114 7  -5404658.497 5
  20373178.702   -13570599.357 8 -10803428.361 9
  22527654.170   -19304854.821 7 -11643637.682 5
 94  3 23 22 58  0.0000000  0  7  2 13 15 19 27  7 26
  20986959.930   -11246814.205 9 -15599375.196 9
  22775623.544      505469.096 4   -463388.061 1
  23698285.408    -6871652.259 5  -4254662.156 3
  24283230.769    25761008.341 4  12349890.971 2
  21823124.745     7864103.724 7  -5340098.064 5
  20371460.292   -13579638.172 8 -10810471.578 9
  22528996.370   -19297756.568 7 -11638106.605 5
 94  3 23 22 58 30.0000000  0  8  2 13 15  9 19 27  7 26
  20989298.011   -11234518.023 9 -15589793.771 9
  22755566.949      400095.470 5   -545497.189 1
  23703110.148    -6846294.820 5  -4234903.157 3
  24748069.888     -415792.67415  -1342429.533 2
  24301969.866    25859452.058 5  12426600.080 2
  21838957.714     7947311.439 7  -5275260.955 5
  20369834.097   -13588188.162 8 -10817133.885 9
  22530446.317   -19290145.766 7 -11632176.119 4
 94  3 23 22 59  0.0000000  0  8  2 13 15  9 19 27  7 26
  20991664.213   -11222082.220 9 -15580103.524 9
  22735573.280      295017.593 5   -627375.889 1
  23708040.835    -6820392.581 5  -4214719.589 2
  24728834.664     -516879.334 5  -1421198.302 2
  24320718.227    25958017.933 4  12503404.511 2
  21854857.987     8030865.101 7  -5210154.284 5
  20368296.222   -13596251.598 8 -10823417.070 9
  22531991.747   -19282019.065 6 -11625843.639 5
 94  3 23 22 59 30.0000000  0  8  2 13 15  9 19 27  7 26
  20994058.835   -11209516.620 9 -15570312.156 9
  22715635.343      190229.875 5   -709028.508 1
  23713080.676    -6793954.355 5  -4194118.358 2
  24709609.783     -617953.630 5  -1499957.504 2
  24339501.933    26056686.598 4  12580288.898 2
  21870818.248     8114737.675 7  -5144799.067 5
  20366848.494   -13603862.458 8 -10829347.589 9
  22533639.466   -19273372.773 7 -11619106.307 5
 94  3 23 23  0  0.0000000  0  8  2 13 15  9 19 27  7 26
  20996475.762   -11196802.924 9 -15560405.380 9
  22695744.083       85737.882 4   -790450.675 1
  23718197.773    -6766977.408 5  -4173097.321 2
  24690369.553     -719023.919 5  -1578713.546 2
  24358287.618    26155481.047 4  12657271.286 2
  21886837.358     8198930.819 7  -5079194.102 5
  20365485.668   -13611038.830 8 -10834939.546 9
  22535379.551   -19264206.683 6 -11611963.919 5
 94  3 23 23  0 30.0000000  0  8  2 13 15  9 19 27  7 26
  20998925.456   -11183932.199 9 -15550376.250 9
  22675924.324      -18457.164 4   -871641.406 1
  23723448.069    -6739464.186 5  -4151658.416 2
  24671133.100     -820085.938 5  -1657463.117 2
  24377128.105    26254411.728 4  12734359.923 2
  21902924.761     8283459.598 7  -5013327.592 5
  20364201.806   -13617778.677 8 -10840191.349 9
  22537226.213   -19254530.543 7 -11604424.101 4
 94  3 23 23  1  0.0000000  0  8  2 13 15  9 19 27  7 26
  21001408.967   -11170889.686 9 -15540213.251 9
  22656152.232     -122349.880 4   -952596.550 1
  23728780.807    -6711412.457 6  -4129799.976 2
  24651907.799     -921148.657 5  -1736213.364 2
  24395984.841    26353489.681 4  12811563.292 2
  21919069.874     8368316.146 7  -4947205.669 5
  20363005.724   -13624073.567 8 -10845096.445 9
  22539161.313   -19244352.616 6 -11596493.237 4
 94  3 23 23  1 30.0000000  0  8  2 13 15  9 19 27  7 26
  21003924.376   -11157672.533 9 -15529914.167 9
  22636436.051     -225937.945 4  -1033314.473 1
  23734220.061    -6682823.334 5  -4107522.705 2
  24632674.254    -1022220.547 5  -1814970.581 2
  24414852.160    26452721.446 4  12888886.434 2
  21935284.299     8453508.590 7  -4880822.038 5
  20361897.512   -13629910.873 8 -10849644.975 9
  22541191.868   -19233682.163 6 -11588178.649 4
 94  3 23 23  2  0.0000000  0  8  2 13 15  9 19 27  7 26
  21006470.393   -11144277.737 9 -15519476.686 9
  22616789.602     -329214.192 5  -1113788.955 1
  23739756.718    -6653692.996 5  -4084823.714 2
  24613446.226    -1123296.914 5  -1893731.333 2
  24433774.010    26552108.043 4  12966330.254 2
  21951562.669     8539059.566 7  -4814159.009 5
  20360877.018   -13635269.380 8 -10853820.421 9
  22543312.899   -19222533.708 7 -11579491.556 5
 94  3 23 23  2 30.0000000  0  8  2 13 15  9 19 27  7 26
  21009050.737   -11130715.289 9 -15508908.544 9
  22597193.998     -432181.125 5  -1194022.813 1
  23745408.945    -6624027.123 6  -4061707.404 2
  24594210.642    -1224372.569 5  -1972491.663 2
  24452717.416    26651628.168 4  13043878.139 2
  21967909.633     8624958.751 7  -4747224.636 5
  20359947.931   -13640149.768 8 -10857623.308 9
  22545524.438   -19210908.166 6 -11570432.707 5
 94  3 23 23  3  0.0000000  0  8  2 13 15  9 19 27  7 26
  21011664.118   -11116974.791 9 -15498201.668 9
  22577654.665     -534834.475 4  -1274012.323 1
  23751149.851    -6593824.870 5  -4038173.169 2
  24574984.952    -1325436.620 5  -2051242.751 2
  24471676.051    26751271.325 5  13121521.912 2
  21984315.565     8711188.151 7  -4680032.982 5
  20359109.262   -13644552.447 8 -10861053.936 9
  22547826.215   -19198799.711 6 -11560997.594 5
 94  3 23 23  3 30.0000000  0  8  2 13 15  9 19 27  7 26
  21014315.032   -11103053.305 9 -15487353.749 9
  22558183.984     -637166.647 4  -1353751.519 1
  23757007.676    -6563081.798 6  -4014217.505 2
  24555751.257    -1426483.441 6  -2129980.499 2
  24490666.045    26851032.556 5  13199257.647 2
  22000792.129     8797756.912 7  -4612576.881 5
  20358356.243   -13648484.823 8 -10864118.113 9
  22550227.402   -19186190.954 6 -11551172.592 5
 94  3 23 23  4  0.0000000  0  8  2 13 15  9 19 27  7 26
  21016999.164   -11088946.867 9 -15476361.735 9
  22538766.786     -739178.836 3  -1433241.195 1
  23762952.560    -6531802.430 5  -3989843.937 2
  24536501.643    -1527503.775 5  -2208697.655 2
  24509670.458    26950899.797 5  13277075.977 2
  22017326.222     8884644.475 7  -4544872.363 5
  20357700.657   -13651964.459 8 -10866829.503 9
  22552726.292   -19173074.352 6 -11540951.900 4
 94  3 23 23  4 30.0000000  0  8  2 13 15  9 19 27  7 26
  21019720.950   -11074654.023 9 -15465224.454 9
  22519426.785     -840874.603 3  -1512484.604 1
  23769006.000    -6499993.867 5  -3965058.013 2
  24517298.228    -1628502.260 5  -2287397.723 2
  24528695.827    27050873.168 5  13354977.094 2
  22033914.998     8971822.289 7  -4476941.668 5
  20357119.929   -13654998.383 8 -10869193.580 9
  22555320.097   -19159444.794 7 -11530331.491 4
 94  3 23 23  5  0.0000000  0  7  2 15  9 19 27  7 26
  21022474.334   -11060182.206 9 -15453947.716 9
  23775165.715    -6467660.613 5  -3939863.263 2
  24498085.338    -1729494.282 5  -2366092.734 2
  24547737.625    27150952.924 5  13432961.000 2
  22050568.829     9059302.168 7  -4408775.572 5
  20356624.912   -13657588.484 8 -10871211.821 9
  22558003.809   -19145315.482 6 -11519321.640 4
 94  3 23 23  5 30.0000000  0  7  2 15  9 19 27  7 26
  21025259.286   -11045552.388 9 -15442547.892 9
  23781413.480    -6434800.155 5  -3914257.745 2
  24478853.802    -1830485.524 5  -2444787.228 2
  24566810.001    27251146.206 5  13511033.415 2
  22067265.770     9147093.488 7  -4340366.833 5
  20356216.654   -13659742.124 8 -10872889.967 9
  22560787.502   -19130676.128 6 -11507914.413 4
 94  3 23 23  6  0.0000000  0  7  2 15  9 19 27  7 26
  21028070.020   -11030786.553 9 -15431042.027 9
  23787769.170    -6401413.197 6  -3888241.883 2
  24459639.924    -1931464.698 5  -2523472.232 2
  24585889.783    27351457.916 5  13589198.032 2
  22084035.081     9235188.455 7  -4271721.497 5
  20355895.397   -13661454.170 8 -10874224.016 9
  22563671.026   -19115538.461 7 -11496118.851 4
 94  3 23 23  6 30.0000000  0  8  2 15  9  4 19 27  7 26
  21030898.982   -11015910.501 9 -15419450.309 9
  23794221.393    -6367503.769 6  -3861818.972 2
  24440436.958    -2032445.812 5  -2602158.739 2
  24448494.659    -2416515.81415   -238508.421
  24604999.124    27451888.935 5  13667455.735 2
  22100854.037     9323598.530 6  -4202830.594 5
  20355649.507   -13662726.289 8 -10875215.268 9
  22566645.506   -19099929.813 6 -11483956.269 4
 94  3 23 23  7  0.0000000  0  8  2 15  9  4 19 27  7 26
  21033748.599   -11000928.773 9 -15407776.229 9
  23800769.550    -6333072.116 5  -3834989.137 2
  24421220.711    -2133414.990 5  -2680835.961 2
  24428663.268    -2520736.238 5   -319718.765 1
  24624129.540    27552429.690 5  13745798.987 2
  22117740.717     9412329.493 6  -4133689.684 5
  20355489.598   -13663562.807 8 -10875867.093 9
  22569701.321   -19083845.713 6 -11471423.265 4
 94  3 23 23  7 30.0000000  0  8  2 15  9  4 19 27  7 26
  21036623.369   -10985826.558 9 -15396008.277 9
  23807432.138    -6298115.577 6  -3807750.276 2
  24402013.368    -2234350.327 5  -2759486.893 2
  24408807.204    -2625052.047 5   -401003.404 1
  24643285.319    27653081.951 5  13824228.989 2
  22134686.276     9501365.220 6  -4064311.259 5
  20355414.170   -13663962.246 8 -10876178.313 9
  22572855.887   -19067281.499 6 -11458516.100 4
 94  3 23 23  8  0.0000000  0  8  2 15  9  4 19 27  7 26
  21039524.400   -10970571.559 9 -15384121.264 9
  23814177.768    -6262631.096 6  -3780100.007 2
  24382816.367    -2335235.172 5  -2838098.342 2
  24388938.639    -2729448.914 5   -482351.125 1
  24662466.250    27753860.389 5  13902757.333 2
  22151687.386     9590712.945 7  -3994689.753 5
  20355420.166   -13663916.770 8 -10876142.859 9
  22576095.234   -19050253.975 6 -11445247.911 4
 94  3 23 23  8 30.0000000  0  8  2 15  9  4 19 27  7 26
  21042463.536   -10955130.311 9 -15372089.114 9
  23821027.786    -6226619.615 5  -3752039.112 2
  24363633.068    -2436071.970 5  -2916672.385 2
  24369059.371    -2833921.385 5   -563757.851 2
  24681660.072    27854756.657 5  13981377.579 2
  22168750.733     9680373.625 7  -3924824.361 5
  20355516.399   -13663423.295 8 -10875758.319 9
  22579424.730   -19032756.387 7 -11431613.489 4
 94  3 23 23  9  0.0000000  0  8  2 15  9  4 19 27  7 26
  21045441.374   -10939483.708 9 -15359896.962 9
  23827985.849    -6190082.647 5  -3723568.783 2
  24344434.509    -2536843.510 5  -2995195.659 2
  24349168.561    -2938451.692 5   -645209.551 2
  24700893.647    27955768.000 5  14060087.484 2
  22185869.392     9770341.206 7  -3854719.841 5
  20355694.926   -13662490.618 8 -10875031.544 9
  22582847.040   -19014770.119 6 -11417598.225 4
 94  3 23 23  9 30.0000000  0  9  2 13 15  9  4 19 27  7 26
  21048458.605   -10923638.353 9 -15347549.922 9
  22329312.589     1900170.51313    -52353.646
  23835022.697    -6153025.586 5  -3694693.149 2
  24325280.229    -2637562.929 5  -3073678.261 2
  24329269.297    -3043026.632 6   -726696.058 2
  24720128.721    28056892.962 5  14138885.816 2
  22203049.988     9860616.931 6  -3784375.188 5
  20355951.368   -13661130.228 8 -10873971.480 9
  22586361.058   -18996313.133 7 -11403216.184 4
 94  3 23 23 10  0.0000000  0  8  2 13 15  9  4 27  7 26
  21051509.563   -10907605.914 9 -15335057.102 9
  22310648.410     1802133.248 5   -128745.073
  23842188.516    -6115444.380 5  -3665409.078 2
  24306131.855    -2738238.422 6  -3152126.643 2
  24309364.847    -3147631.428 6   -808205.772 1
  22220287.965     9951202.634 6  -3713788.992 4
  20356293.671   -13659332.684 8 -10872570.774 9
  22589962.195   -18977379.231 7 -11388462.522 4
 94  3 23 23 10 30.0000000  0  8  2 13 15  9  4 27  7 26
  21054590.320   -10891408.511 9 -15322435.749 9
  22292067.903     1704449.502 6   -204860.873
  23849431.892    -6077338.552 5  -3635716.240 2
  24286985.880    -2838871.341 6  -3230541.878 2
  24289450.653    -3252262.834 6   -889736.328 2
  22237588.178    10042095.918 6  -3642963.126 4
  20356718.297   -13657099.723 8 -10870830.791 9
  22593662.113   -18957948.501 6 -11373321.725 4
 94  3 23 23 11  0.0000000  0  8  2 13 15  9  4 27  7 26
  21057699.498   -10875071.884 9 -15309705.914 9
  22273543.906     1607118.144 6   -280706.151
  23856787.300    -6038712.779 5  -3605618.290 2
  24267829.981    -2939466.890 6  -3308928.036 2
  24269538.558    -3356914.018 5   -971282.255 2
  22254939.926    10133294.430 6  -3571899.446 4
  20357227.645   -13654440.745 8 -10868758.848 9
  22597453.498   -18938026.420 7 -11357798.069 4
 94  3 23 23 11 30.0000000  0  8  2 13 15  9  4 27  7 26
  21060832.809   -10858608.951 9 -15296877.648 9
  22255085.595     1510139.244 5   -356273.896
  23864236.993    -5999570.421 5  -3575117.745 2
  24248693.988    -3040035.430 6  -3387293.072 2
  24249620.107    -3461594.164 6  -1052850.805 2
  22272349.713    10224790.584 6  -3500603.813 4
  20357814.189   -13651347.876 8 -10866348.795 9
  22601334.102   -18917628.514 6 -11341903.611 4
 94  3 23 23 12  0.0000000  0  8  2 13 15  9  4 27  7 26
  21063990.793   -10842016.672 9 -15283948.593 9
  22236699.263     1413518.896 4   -431562.373 1
  23871784.627    -5959908.694 5  -3544212.540 2
  24229560.424    -3140570.391 5  -3465631.981 2
  24229690.115    -3566311.522 6  -1134448.287 2
  22289820.388    10316589.391 6  -3429072.382 4
  20358485.814   -13647811.285 8 -10863593.003 9
  22605305.183   -18896747.326 7 -11325632.595 4
 94  3 23 23 12 30.0000000  0  8  2 13 15  9  4 27  7 26
  21067176.687   -10825278.907 9 -15270906.178 9
  22218388.899     1317262.467 3   -506567.163 1
  23879432.873    -5919725.971 5  -3512901.347 2
  24210426.471    -3241065.922 5  -3543940.177 2
  24209754.815    -3671076.348 6  -1216082.802 2
  22307346.016    10408704.686 6  -3357294.319 4
  20359244.229   -13643834.435 8 -10860494.137 9
  22609371.898   -18875382.302 6 -11308984.522 4
 94  3 23 23 13  0.0000000  0  8  2 13 15  9  4 27  7 26
  21070390.043   -10808378.249 9 -15257736.832 9
  22200147.278     1221373.531 4   -581285.495 1
  23887178.131    -5879022.312 5  -3481184.214 2
  24191317.220    -3341521.709 5  -3622217.323 2
  24189812.861    -3775885.525 6  -1297751.809 2
  22324935.739    10501134.605 6  -3285271.093 5
  20360087.245   -13639410.318 8 -10857046.756 9
  22613524.833   -18853547.139 6 -11291970.182 4
 94  3 23 23 13 30.0000000  0  8  2 13 15  9  4 27  7 26
  21073636.975   -10791315.828 9 -15244441.446 9
  22181968.942     1125859.587 4   -655711.779 1
  23895021.990    -5837793.923 5  -3449058.196 2
  24172219.181    -3441920.506 5  -3700450.106 2
  24169860.923    -3880735.372 5  -1379452.629 2
  22342583.741    10593880.036 6  -3213002.027 4
  20361015.822   -13634532.883 8 -10853246.139 9
  22617772.052   -18831245.488 7 -11274592.306 4
 94  3 23 23 14  0.0000000  0  8  2 13 15  9  4 27  7 26
  21076917.004   -10774087.173 9 -15231016.519 9
  22163846.458     1030723.558 4   -729843.561 1
  23902971.167    -5796041.439 5  -3416523.840 2
  24153122.371    -3542261.121 5  -3778637.625 2
  24149898.613    -3985614.774 5  -1461176.476 2
  22360292.062    10686927.637 6  -3140497.486 4
  20362028.581   -13629205.283 8 -10849094.754 9
  22622106.661   -18808467.042 6 -11256842.870 4
 94  3 23 23 14 30.0000000  0  8  2 13 15  9  4 27  7 26
  21080229.411   -10756684.546 9 -15217456.034 9
  22145826.683      935970.784 4   -803676.722 1
  23911014.509    -5753763.081 5  -3383579.664 2
  24134033.266    -3642524.021 5  -3856764.468 2
  24129940.890    -4090506.857 5  -1542910.163 2
  22378053.026    10780262.092 6  -3067769.433 4
  20363129.539   -13623417.342 8 -10844584.648 9
  22626530.549   -18785215.332 6 -11238724.705 5
 94  3 23 23 15  0.0000000  0  8  2 13 15  9  4 27  7 26
  21083574.315   -10739114.923 9 -15203765.425 9
  22127870.494      841602.080 4   -877210.622 1
  23919162.119    -5710961.449 5  -3350227.731 2
  24114972.222    -3742694.459 5  -3934819.250 2
  24109976.690    -4195397.954 6  -1624643.164 2
  22395867.174    10873875.697 6  -2994823.858 4
  20364316.477   -13617171.951 8 -10839718.101 9
  22631044.884   -18761496.214 6 -11220242.306 5
 94  3 23 23 15 30.0000000  0  8  2 13 15  9  4 27  7 26
  21086946.321   -10721378.361 9 -15189944.717 9
  22109983.287      747617.841 4   -950444.927 1
  23927403.323    -5667639.796 5  -3316470.635 2
  24095935.491    -3842763.398 6  -4012794.996 2
  24090019.836    -4300283.169 5  -1706371.588 3
  22413731.716    10967764.455 6  -2921663.872 4
  20365595.332   -13610467.953 8 -10834494.193 9
  22635645.139   -18737306.711 6 -11201393.357 5
 94  3 23 23 16  0.0000000  0  8  2 13 15  9  4 27  7 26
  21090355.531   -10703452.783 9 -15175976.738 9
  22092171.838      654015.525 4  -1023381.636 1
  23935741.901    -5623804.548 5  -3282313.317 2
  24076923.253    -3942741.112 6  -4090699.666 2
  24070060.974    -4405174.883 5  -1788105.098 3
  22431652.380    11061931.537 6  -2848287.046 4
  20366954.831   -13603308.666 8 -10828915.522 9
  22640339.409   -18712647.930 6 -11182178.769 5
 94  3 23 23 16 30.0000000  0  8  2 13 15  9  4 27  7 26
  21093807.551   -10685326.180 9 -15161852.120 9
  22074437.225      560802.213 5  -1096014.983 1
  23944184.176    -5579452.338 5  -3247753.172 2
  24057909.726    -4042625.041 6  -4168531.218 2
  24050097.434    -4510065.066 4  -1869837.460 3
  22449629.525    11156411.601 6  -2774666.311 4
  20368403.728   -13595696.538 8 -10822983.975 9
  22645123.407   -18687521.078 7 -11162599.447 5
 94  3 23 23 17  0.0000000  0  8  2 13 15  9  4 27  7 26
  21097296.386   -10666985.409 9 -15147560.621 9
  22056774.922      467987.307 5  -1168338.195
  23952723.015    -5534577.446 5  -3212785.680 2
  24038914.696    -4142430.534 6  -4246301.623 3
  24030143.098    -4614952.908 4  -1951567.940 3
  22467671.814    11251222.659 6  -2700787.672 4
  20369933.508   -13587644.327 8 -10816709.524 9
  22649994.705   -18661910.977 6 -11142643.536 5
 94  3 23 23 17 30.0000000  0  8  2 13 15  9  4 27  7 26
  21100826.652   -10648430.159 9 -15133101.987 9
  22039189.666      375571.313 5  -1240350.458 1
  23961359.016    -5489182.419 5  -3177412.998 2
  24019936.244    -4242176.259 6  -4324025.486 3
  24010178.479    -4719850.486 5  -2033306.063 2
  22485778.410    11346363.015 6  -2626652.448 4
  20371553.257   -13579152.989 8 -10810092.878 9
  22654960.197   -18635820.578 6 -11122313.422 5
 94  3 23 23 18  0.0000000  0  8  2 13 15  9  4 27  7 26
  21104398.109   -10629673.944 9 -15118486.752 9
  22021683.046      283554.269 5  -1312051.973 1
  23970096.108    -5443271.362 5  -3141638.141 2
  24000942.114    -4341877.343 5  -4401714.625 3
  23990213.501    -4824763.788 6  -2115056.426 3
  22503944.543    11441823.682 6  -2552267.606 4
  20373246.845   -13570244.308 8 -10803151.055 9
  22660020.005   -18609258.527 6 -11101615.738 5
 94  3 23 23 18 30.0000000  0  8  2 13 15  9  4 27  7 26
  21108000.385   -10610733.630 9 -15103728.078 9
  22004245.648      191944.671 5  -1383435.869 1
  23978935.878    -5396839.054 5  -3105457.112 2
  23981994.511    -4441522.549 6  -4479360.133 3
  23970249.002    -4929674.199 6  -2196804.573 3
  22522167.548    11537587.469 6  -2477646.599 4
  20375022.995   -13560916.388 8 -10795882.535 9
  22665158.357   -18582223.194 6 -11080549.296 5
 94  3 23 23 19  0.0000000  0  8  2 13 15  9  4 27  7 26
  21111635.789   -10591623.198 9 -15088836.826 9
  21986890.872      100740.590 6  -1454503.972 1
  23987857.912    -5349891.435 5  -3068874.601 2
  23963055.932    -4541097.090 6  -4556950.593 3
  23950284.863    -5034591.497 6  -2278558.091 3
  22540440.858    11633619.795 6  -2402816.292 4
  20376877.661   -13551170.297 8 -10788288.177 9
  22670391.744   -18554726.532 6 -11059123.365 4
 94  3 23 23 19 30.0000000  0  8  2 13 15  9  4 27  7 26
  21115305.758   -10572353.792 9 -15073821.726 9
  21969608.107        9941.855 6  -1525256.265 1
  23996896.474    -5302432.331 5  -3031893.474 2
  23944120.260    -4640576.671 6  -4634467.089 3
  23930315.148    -5139507.063 5  -2360310.221 3
  22558763.963    11729906.274 6  -2327787.995 4
  20378814.470   -13540994.403 8 -10780358.901 9
  22675710.572   -18526777.104 6 -11037344.618 4
 94  3 23 23 20  0.0000000  0  8  2 13 15  9  4 27  7 26
  21119000.550   -10552931.159 9 -15058687.212 9
  21952406.945      -80450.607 6  -1595691.825 1
  24006026.354    -5254464.406 5  -2994515.893 2
  23925207.643    -4739948.156 6  -4711899.401 3
  23910359.972    -5244398.073 6  -2442043.216 2
  22577136.384    11826440.797 6  -2252566.385 4
  20380831.774   -13530394.428 8 -10772099.166 9
  22681115.950   -18498371.881 6 -11015210.709 4
 94  3 23 23 20 30.0000000  0  8  2 13 15  9  4 27  7 26
  21122729.728   -10533341.113 9 -15043422.242 9
  21935286.607     -170435.487 6  -1665809.857 1
  24015248.300    -5205990.092 5  -2956743.691 2
  23906330.792    -4839199.402 6  -4789237.973 3
  23890404.257    -5349251.744 6  -2523747.082 2
  22595554.373    11923223.000 6  -2177151.799 4
  20382931.280   -13519360.824 8 -10763501.551 9
  22686608.028   -18469507.147 6 -10992718.751 4
 94  3 23 23 21  0.0000000  0  8  2 13 15  9  4 27  7 26
  21126488.796   -10513571.896 8 -15028017.678 9
  21918244.575     -260008.834 7  -1735607.273 1
  24024584.346    -5157009.336 5  -2918576.951 2
  23887461.435    -4938326.829 6  -4866480.041 3
  23870460.144    -5454058.178 6  -2605414.157 2
  22614018.381    12020265.575 6  -2101534.295 4
  20385111.401   -13507902.475 8 -10754572.954 9
  22692188.964   -18440181.148 6 -10969867.350 4
 94  3 23 23 21 30.0000000  0  8  2 13 15  9  4 27  7 26
  21130286.507   -10493627.168 8 -15012476.327 9
  21901270.836     -349174.606 7  -1805087.048 1
  24033988.356    -5107529.433 5  -2880021.198 2
  23868614.712    -5037352.351 6  -4943642.759 3
  23850525.685    -5558807.759 6  -2687036.860 2
  22632533.323    12117575.227 6  -2025708.672 4
  20387370.187   -13496027.461 8 -10745319.682 9
  22697858.250   -18410408.810 6 -10946668.125 4
 94  3 23 23 22  0.0000000  0  8  2 13 15  9  4 27  7 26
  21134117.285   -10473499.094 8 -14996792.118 9
  21884383.377     -437932.190 7  -1874248.679 2
  24043503.769    -5057553.561 5  -2841078.916 2
  23849783.788    -5136289.628 6  -5020736.718 3
  23830607.953    -5663505.352 6  -2768619.058 2
  22651103.098    12215147.700 6  -1949678.306 4
  20389707.879   -13483749.459 8 -10735752.391 9
  22703599.755   -18380196.365 6 -10923126.023 4
 94  3 23 23 22 30.0000000  0  8  2 13 15  9  4 27  7 26
  21137980.381   -10453186.502 8 -14980964.117 9
  21867570.296     -526281.137 7  -1943091.920 2
  24053106.721    -5007085.283 5  -2801753.010 2
  23830981.285    -5235139.426 6  -5097762.461 3
  23810683.207    -5768172.245 5  -2850177.291 2
  22669717.631    12312975.391 6  -1873449.029 4
  20392121.088   -13471064.581 8 -10725868.046 9
  22709435.605   -18349553.955 6 -10899248.868 4
 94  3 23 23 23  0.0000000  0  8  2 13 15  9  4 27  7 26
  21141879.002   -10432696.548 8 -14964997.927 9
  21850835.611     -614217.238 7  -2011613.521 2
  24062797.692    -4956123.752 5  -2762042.819 2
  23812185.527    -5333904.352 6  -5174722.061 3
  23790766.435    -5872820.968 5  -2931721.414 2
  22688381.241    12411064.208 6  -1797016.325 4
  20394613.953   -13457973.310 8 -10715667.051 9
  22715349.521   -18318486.982 6 -10875040.870 4
 94  3 23 23 23 30.0000000  0  8  2 13 15  9  4 27  7 26
  21145815.037   -10412025.561 9 -14948890.657 9
  21834182.050     -701739.544 7  -2079812.641 2
  24072589.093    -4904671.986 5  -2721950.514 2
  23793400.831    -5432583.005 6  -5251614.500 3
  23770855.599    -5977470.190 5  -3013265.870 2
  22707098.123    12509407.630 6  -1720385.184 4
  20397181.495   -13444464.000 8 -10705140.299 9
  22721341.712   -18286990.343 6 -10850498.051 4
 94  3 23 23 24  0.0000000  0  8  2 13 15  9  4 27  7 26
  21149780.572   -10391181.505 9 -14932648.532 9
  21817604.667     -788847.561 7  -2147688.938 2
  24082475.889    -4852733.038 5  -2681478.608 2
  23774640.389    -5531160.074 6  -5328427.747 3
  23750937.508    -6082132.984 5  -3094820.853 2
  22725860.184    12607997.589 6  -1643561.945 4
  20399834.628   -13430533.441 8 -10694285.304 9
  22727418.176   -18255046.424 6 -10825606.715 4
 94  3 23 23 24 30.0000000  0  8  2 13 15  9  4 27  7 26
  21153781.512   -10370171.414 9 -14916277.024 9
  21801108.287     -875539.556 7  -2215241.057 3
  24092449.294    -4800309.078 5  -2640628.889 2
  23755914.722    -5629629.993 6  -5405157.491 3
  23731018.518    -6186812.109 5  -3176388.678 2
  22744670.212    12706854.018 6  -1566531.093 3
  20402567.836   -13416171.795 8 -10683094.393 9
  22733585.656   -18222651.636 6 -10800364.059 4
 94  3 23 23 25  0.0000000  0  8  2 13 15  9  4 27  7 26
  21157810.153   -10348990.534 9 -14899772.444 9
  21784692.012     -961809.470 7  -2282464.302 3
  24102513.717    -4747397.391 5  -2599399.012 2
  23737191.035    -5727991.262 6  -5481802.621 3
  23711105.463    -6291487.458 5  -3257953.485 2
  22763537.441    12805990.541 6  -1489281.942 3
  20405382.468   -13401381.759 8 -10671569.676 9
  22739833.241   -18189793.384 6 -10774760.255 3
 94  3 23 23 25 30.0000000  0  8  2 13 15  9  4 27  7 26
  21161871.052   -10327650.673 9 -14883143.978 9
  21768353.083    -1047663.698 7  -2349363.654 3
  24112674.972    -4694008.453 5  -2557797.247 2
  23718488.572    -5826242.327 6  -5558361.846 3
  23691181.556    -6396148.304 5  -3339507.092 2
  22782451.587    12905398.700 6  -1411821.159 3
  20408278.493   -13386168.852 8 -10659715.452 9
  22746178.049   -18156478.762 6 -10748800.831 3
 94  3 23 23 26  0.0000000  0  8  2 13 15  9  4 27  7 26
  21165962.619   -10306153.284 9 -14866392.763 9
  21752096.657    -1133095.492 7  -2415933.807 3
  24122926.346    -4640139.263 5  -2515821.325 2
  23699816.508    -5924384.021 6  -5634835.794 3
  23671274.737    -6500772.972 5  -3421032.587 2
  22801425.721    13005089.205 6  -1334140.331 3
  20411248.956   -13370539.051 8 -10647536.367 9
  22752604.670   -18122719.043 6 -10722494.601 4
 94  3 23 23 26 30.0000000  0  8  2 13 15  9  4 27  7 26
  21170083.776   -10284483.791 9 -14849507.443 9
  21735922.224    -1218100.072 7  -2482171.072 4
  24133269.035    -4585788.775 4  -2473470.268 3
  23681157.396    -6022427.213 6  -5711232.986 3
  23651370.827    -6605353.389 5  -3502523.583 2
  22820448.362    13105060.288 6  -1256240.909 3
  20414302.972   -13354503.537 8 -10635041.165 9
  22759104.830   -18088532.212 6 -10695855.553 4
 94  3 23 23 27  0.0000000  0  9  2 13 15  9  4 12 27  7 26
  21174244.685   -10262639.182 9 -14832485.662 9
  21719826.457    -1302675.265 7  -2548073.741 3
  24143711.436    -4530958.522 5  -2430745.422 3
  23662521.277    -6120364.755 6  -5787547.968 3
  23631488.621    -6709866.087 6  -3583961.823 2
  24570060.531    -1533980.65014  -1211909.281 2
  22839524.096    13205285.009 6  -1178143.812 3
  20417426.720   -13338080.550 8 -10622244.001 9
  22765688.961   -18053928.891 6 -10668891.999 4
 94  3 23 23 27 30.0000000  0  9  2 13 15  9  4 12 27  7 26
  21178434.375   -10240613.510 9 -14815322.804 9
  21703814.182    -1386818.613 7  -2613639.943 3
  24154229.175    -4475650.021 5  -2387647.929 3
  23643911.930    -6218187.357 6  -5863773.301 3
  23611611.002    -6814314.183 6  -3665349.729 2
  24552284.007    -1627466.002 5  -1284754.912 2
  22858632.808    13305749.478 6  -1099859.912 3
  20420626.674   -13321270.773 8 -10609145.465 9
  22772350.080   -18018917.949 6 -10641610.740 3
 94  3 23 23 28  0.0000000  0  9  2 13 15  9  4 12 27  7 26
  21182664.027   -10218399.729 9 -14798013.344 9
  21687885.130    -1470523.576 7  -2678864.525 4
  24164849.803    -4419860.338 5  -2344175.529 2
  23625321.920    -6315888.629 6  -5939904.095 3
  23591747.113    -6918690.243 6  -3746681.513 2
  24534480.802    -1720996.551 4  -1357635.822 2
  22877799.709    13406445.654 6  -1021395.501 3
  20423895.701   -13304077.661 8 -10595748.235 9
  22779090.464   -17983497.698 6 -10614010.586 4
 94  3 23 23 28 30.0000000  0  9  2 13 15  9  4 12 27  7 26
  21186927.285   -10195992.441 9 -14780553.124 8
  21672042.207    -1553784.452 8  -2743743.055 4
  24175556.111    -4363587.425 5  -2300326.483 2
  23606746.240    -6413449.650 6  -6015925.619 3
  23571903.611    -7022989.556 6  -3827953.518 2
  24516663.027    -1814567.043 4  -1430547.883 2
  22897002.045    13507366.934 6   -942755.623 3
  20427242.015   -13286495.418 8 -10582047.774 9
  22785916.408   -17947653.102 6 -10586079.813 4
 94  3 23 23 29  0.0000000  0  9  2 13 15  9  4 12 27  7 26
  21191226.129   -10173394.494 9 -14762944.337 8
  21656282.747    -1636600.022 7  -2808274.619 4
  24186354.425    -4306833.877 5  -2256102.991 2
  23588219.455    -6510856.095 6  -6091826.739 3
  23552068.592    -7127210.222 6  -3909164.232 3
  24498869.745    -1908177.019 4  -1503490.600 2
  22916253.338    13608511.354 6   -863941.913 3
  20430663.486   -13268520.937 8 -10568041.677 9
  22792820.479   -17911377.074 6 -10557812.835 4
 94  3 23 23 29 30.0000000  0  9  2 13 15  9  4 12 27  7 26
  21195565.985   -10150602.992 9 -14745184.723 8
  21640610.707    -1718968.830 7  -2872458.088 4
  24197249.063    -4249601.862 5  -2211506.595 2
  23569705.382    -6608112.753 6  -6167611.043 3
  23532244.756    -7231364.829 6  -3990323.464 3
  24481066.540    -2001825.409 5  -1576463.325 2
  22935545.043    13709886.230 6   -784948.568 3
  20434162.274   -13250140.189 8 -10553719.013 9
  22799804.804   -17874666.970 6 -10529207.591 4
 94  3 23 23 30  0.0000000  0  9  2 13 15  9  4 12 27  7 26
  21199936.329   -10127622.365 9 -14727277.736 8
  21625017.722    -1800891.866 7  -2936294.125 4
  24208238.345    -4191896.091 5  -2166541.080 2
  23551228.933    -6705222.121 6  -6243280.610 3
  23512436.599    -7335450.864 6  -4071429.280 3
  24463237.823    -2095514.025 5  -1649467.470 2
  22954878.658    13811490.631 6   -705776.435 3
  20437737.449   -13231350.534 8 -10539077.711 9
  22806876.398   -17837528.894 6 -10500268.838 4
 94  3 23 23 30 30.0000000  0  9  2 13 15  9  4 12 27  7 26
  21204350.294   -10104431.430 8 -14709206.867 8
  21609517.672    -1882358.806 8  -2999774.788 4
  24219303.385    -4133709.821 6  -2121201.115 2
  23532778.027    -6802180.818 6  -6318832.759 3
  23492646.789    -7439460.031 6  -4152475.197 3
  24445393.936    -2189232.821 5  -1722495.026 2
  22974260.390    13913340.271 6   -626413.189 3
  20441392.818   -13212139.511 8 -10524108.070 9
  22814021.472   -17799953.054 6 -10470989.052 4
 94  3 23 23 31  0.0000000  0  9  2 13 15  9  4 12 27  7 26
  21208799.723   -10081028.777 9 -14690971.039 8
  21594099.406    -1963371.009 7  -3062901.109 4
  24230465.438    -4075048.334 5  -2075490.853 2
  23514349.964    -6898999.337 6  -6394275.737 3
  23472872.179    -7543375.225 6  -4233447.862 3
  24427570.585    -2282983.607 5  -1795547.510 2
  22993690.659    14015439.640 6   -546855.370 3
  20445128.592   -13192508.973 8 -10508811.534 9
  22821252.226   -17761946.559 6 -10441373.639 4
 94  3 23 23 31 30.0000000  0  9  2 13 15  9  4 12 27  7 26
  21213293.043   -10057437.910 8 -14672588.532 8
  21578768.499    -2043934.964 8  -3125678.162 4
  24241712.422    -4015922.296 5  -2029418.761 2
  23495954.489    -6995691.236 6  -6469620.038 3
  23453114.057    -7647196.124 6  -4314347.060 3
  24409705.443    -2376773.588 5  -1868630.615 1
  23013168.955    14117785.271 6   -467105.648 3
  20448941.742   -13172469.485 8 -10493196.338 9
  22828567.881   -17723521.137 6 -10411431.790 4
 94  3 23 23 32  0.0000000  0  9  2 13 15  9  4 12 27  7 26
  21217816.102   -10033670.316 8 -14654068.327 8
  21563523.094    -2124050.740 8  -3188105.979 5
  24253054.770    -3956335.445 5  -1982987.434 2
  23477584.856    -7092248.042 6  -6544859.012 3
  23433380.308    -7750917.920 6  -4395169.026 3
  24391863.774    -2470603.051 6  -1941744.532 1
  23032686.613    14220384.641 6   -387158.183 3
  20452832.868   -13152031.514 8 -10477270.628 9
  22835958.515   -17684684.270 6 -10381169.352 4
 94  3 23 23 32 30.0000000  0  9  2 13 15  9  4 12 27  7 26
  21222371.268   -10009731.865 8 -14635414.982 8
  21548363.009    -2203715.130 8  -3250182.065 5
  24264486.486    -3896287.792 5  -1936197.122 2
  23459225.026    -7188667.037 6  -6619990.649 3
  23413660.230    -7854534.756 6  -4475909.208 3
  24373981.454    -2564469.097 5  -2014886.803 1
  23052259.403    14323237.777 6   -307013.033 3
  20456791.988   -13131205.240 8 -10461042.364 9
  22843421.908   -17645440.979 6 -10350590.218 4
 94  3 23 23 33  0.0000000  0  9  2 13 15  9  4 12 27  7 26
  21226955.305    -9985643.769 8 -14616645.043 8
  21533292.442    -2282925.231 8  -3311904.152 5
  24275992.730    -3835780.350 5  -1889048.483 2
  23440918.140    -7284940.961 6  -6695009.240 3
  23393960.568    -7958052.319 6  -4556571.970 3
  24356130.582    -2658369.345 5  -2088055.812 1
  23071877.012    14426333.079 5   -226679.158 3
  20460832.530   -13109990.724 8 -10444511.553 9
  22850963.667   -17605809.907 6 -10319708.926 4
 94  3 23 23 33 30.0000000  0  9  2 13 15  9  4 12 27  7 26
  21231567.372    -9961398.587 8 -14597752.681 8
  21518306.866    -2361675.055 8  -3373267.600 5
  24287597.456    -3774811.061 5  -1841539.877 2
  23422618.539    -7381057.498 6  -6769905.183 3
  23374279.733    -8061490.741 6  -4637173.123 3
  24338237.199    -2752298.126 5  -2161247.053 1
  23091542.618    14529659.742 5   -146165.014 3
  20464939.987   -13088381.362 8 -10427673.071 9
  22858581.603   -17565796.751 6 -10288529.891 4
 94  3 23 23 34  0.0000000  0  9  2 13 15  9  4 12 27  7 26
  21236211.577    -9936969.376 8 -14578716.938 8
  21503407.930    -2439966.380 8  -3434273.738 5
  24299282.976    -3713385.174 5  -1793675.598 2
  23404359.859    -7477022.943 6  -6844683.379 3
  23354612.268    -8164850.461 6  -4717712.954 3
  24320362.643    -2846257.530 5  -2234462.066 2
  23111243.719    14633198.936 5    -65485.241 3
  20469129.317   -13066385.969 8 -10410533.801 9
  22866265.554   -17525409.019 6 -10257058.957 4
 94  3 23 23 34 30.0000000  0  9  2 13 15  9  4 12 27  7 26
  21240900.900    -9912338.839 8 -14559524.305 8
  21488595.215    -2517793.417 7  -3494918.099 5
  24311066.949    -3651500.777 5  -1745454.068 2
  23386118.147    -7572846.342 6  -6919350.978 3
  23334959.973    -8268121.395 6  -4798183.570 3
  24302482.721    -2940241.959 5  -2307696.618 2
  23130981.815    14736934.011 6     15347.117 3
  20473384.721   -13044002.670 8 -10393092.244 9
  22874021.664   -17484635.299 6 -10225287.274 4
 94  3 23 23 35  0.0000000  0  9  2 13 15  9  4 12 27  7 26
  21245627.458    -9887497.058 8 -14540167.069 8
  21473872.587    -2595158.716 7  -3555202.682 5
  24322926.109    -3589164.186 4  -1696880.154 2
  23367921.824    -7668522.293 6  -6993903.566 3
  23315321.499    -8371305.199 6  -4878586.296 3
  24284603.549    -3034254.183 5  -2380952.890 2
  23150761.791    14840862.498 6     96330.269 3
  20477720.769   -13021230.795 8 -10375347.926 9
  22881859.139   -17443469.278 6 -10193209.914 4
 94  3 23 23 35 30.0000000  0  9  2 13 15  9  4 12 27  7 26
  21250397.936    -9862428.291 8 -14520632.960 8
  21459240.467    -2672062.749 8  -3615127.820 5
  24334867.802    -3526379.490 5  -1647956.979 2
  23349741.540    -7764048.600 6  -7068339.582 3
  23295704.459    -8474380.992 6  -4958904.824 3
  24266684.474    -3128294.941 5  -2454231.303 2
  23170576.424    14944988.713 6    177467.432 3
  20482127.058   -12998087.060 8 -10357313.837 9
  22889771.351   -17401896.246 6 -10160815.381 4
 94  3 23 23 36  0.0000000  0  9  2 13 15  9  4 12 27  7 26
  21255211.883    -9837146.732 8 -14500933.053 8
  21444695.256    -2748505.784 8  -3674693.765 5
  24346906.927    -3463150.927 5  -1598688.027 2
  23331587.518    -7859424.658 6  -7142658.525 3
  23276115.960    -8577335.359 6  -5039128.754 3
  24248799.366    -3222364.882 5  -2527532.487 2
  23190426.732    15049315.982 6    258761.271 3
  20486598.673   -12974583.446 8 -10338999.335 9
  22897755.814   -17359908.547 6 -10128097.742 4
 94  3 23 23 36 30.0000000  0  9  2 13 15  9  4 12 27  7 26
  21260058.778    -9811677.781 8 -14481087.121 8
  21430237.166    -2824482.894 8  -3733896.654 5
  24359024.059    -3399477.101 5  -1549072.109 2
  23313476.756    -7954635.349 6  -7216848.645 3
  23256546.108    -8680170.878 6  -5119260.059 3
  24230887.216    -3316459.074 5  -2600852.564 2
  23210321.469    15153861.616 6    340225.292 3
  20491145.235   -12950706.284 8 -10320393.745 9
  22905823.798   -17317510.639 6 -10095060.455 4
 94  3 23 23 37  0.0000000  0  9  2 13 15  9  4 12 27  7 26
  21264939.399    -9786020.055 8 -14461094.087 8
  21415868.443    -2899979.840 8  -3792725.388 4
  24371221.414    -3335347.649 5  -1499101.084 2
  23295399.930    -8049650.942 6  -7290886.705 3
  23236998.711    -8782879.847 6  -5199292.776 3
  24212971.828    -3410563.465 5  -2674180.663 2
  23230264.293    15258652.624 6    421880.470 3
  20495761.290   -12926447.125 8 -10301490.510 9
  22913974.526   -17274702.381 6 -10061703.416 4
 94  3 23 23 37 30.0000000  0  9  2 13 15  9  4 12 27  7 26
  21269855.695    -9760182.895 8 -14440961.241 8
  21401593.645    -2974990.029 8  -3851174.843 4
  24383511.556    -3270759.541 4  -1448772.712 2
  23277343.161    -8144479.478 6  -7364778.973 4
  23217482.042    -8885460.575 6  -5279225.548 3
  24195082.823    -3504671.488 5  -2747511.479 2
  23250251.306    15363688.921 6    503726.781 2
  20500447.136   -12901808.662 8 -10282291.695 9
  22922194.805   -17231487.400 6 -10028029.472 4
 94  3 23 23 38  0.0000000  0  9  2 13 15  9  4 12 27  7 26
  21274804.909    -9734178.594 8 -14420698.152 8
  21387414.691    -3049514.800 7  -3909246.018 5
  24395886.359    -3205718.157 4  -1398091.112 2
  23259326.863    -8239126.933 6  -7438530.198 4
  23197977.754    -8987932.583 6  -5359073.607 3
  24177166.776    -3598784.467 5  -2820846.241 2
  23270287.455    15468962.828 6    585758.260 3
  20505211.378   -12876779.671 8 -10262788.575 9
  22930495.578   -17187881.014 6  -9994050.507 4
 94  3 23 23 38 30.0000000  0  9  2 13 15  9  4 12 27  7 26
  21279787.100    -9707999.353 8 -14400298.752 8
  21373324.715    -3123554.919 8  -3966939.509 5
  24408355.597    -3140227.575 5  -1347059.528 2
  23241359.612    -8333597.234 6  -7512143.358 4
  23178503.206    -9090298.780 6  -5438839.220 3
  24159251.958    -3692903.317 5  -2894185.501 2
  23290360.689    15574464.318 6    667967.059 2
  20510044.751   -12851364.959 8 -10242984.900 9
  22938866.953   -17143898.588 6  -9959778.516 4
 94  3 23 23 39  0.0000000  0  9  2 13 15  9  4 12 27  7 26
  21284804.696    -9681623.174 8 -14379745.880 8
  21359326.326    -3197107.409 8  -4024253.053 5
  24420911.954    -3074288.783 5  -1295678.626 2
  23223414.964    -8427886.932 5  -7585615.816 4
  23159044.007    -9192551.375 6  -5518516.327 4
  24141349.731    -3787025.113 5  -2967527.131 2
  23310482.489    15680172.490 5    750336.900 3
  20514952.174   -12825581.645 9 -10222893.996 9
  22947311.447   -17099530.311 6  -9925205.897 4
 94  3 23 23 39 30.0000000  0  9  2 13 15  9  4 12 27  7 26
  21289859.947    -9655052.568 8 -14359041.528 8
  21345420.363    -3270182.615 8  -4081194.728 5
  24433538.853    -3007915.348 5  -1243959.247 2
  23205502.275    -8522017.326 6  -7658964.078 4
  23139606.903    -9294692.059 6  -5598106.212 4
  24123417.885    -3881160.139 5  -3040879.051 2
  23330630.251    15786056.910 6    832844.112 3
  20519927.620   -12799436.081 8 -10202520.822 9
  22955820.366   -17054786.981 6  -9890341.012 4
 94  3 23 23 40  0.0000000  0  9  2 13 15  9  4 12 27  7 26
  21294959.326    -9628278.114 8 -14338178.332 8
  21331603.288    -3342780.752 8  -4137764.619 5
  24446247.925    -2941111.433 5  -1191904.285 2
  23187620.644    -8615976.383 6  -7732178.885 4
  23120189.886    -9396715.093 6  -5677604.428 4
  24105507.924    -3975308.561 5  -3114241.420 2
  23350811.709    15892105.424 5    915479.172 3
  20524971.208   -12772934.891 8 -10181870.521 9
  22964408.641   -17009676.685 6  -9855190.165 4
 94  3 23 23 40 30.0000000  0  9  2 13 15  9  4 12 27  7 26
  21300089.915    -9601303.312 8 -14317159.002 8
  21317881.608    -3414904.274 8  -4193964.704 5
  24459047.474    -2873883.383 4  -1139518.772 2
  23169780.924    -8709753.465 6  -7805251.879 4
  23100800.718    -9498609.831 6  -5757002.717 4
  24087583.273    -4069472.638 5  -3187615.992 2
  23371023.657    15998319.935 5    998243.589 3
  20530080.811   -12746094.215 8 -10160955.708 9
  22973062.330   -16964202.247 6  -9819755.601 3
 94  3 23 23 41  0.0000000  0  9  2 13 15  9  4 12 27  7 26
  21305262.204    -9574119.866 8 -14295977.097 8
  21304249.805    -3486534.485 8  -4249780.382 5
  24471966.820    -2806215.987 3  -1086790.969 2
  23151965.638    -8803328.117 6  -7878167.116 4
  23081445.698    -9600341.739 6  -5836274.133 4
  24069676.670    -4163633.646 6  -3260988.164 2
  23391269.931    16104732.715 5   1081162.462 3
  20535255.319   -12718890.126 8 -10139757.704 9
  22981787.100   -16918348.762 6  -9784025.604 3
 94  3 23 23 41 30.0000000  0  8  2 13  9  4 12 27  7 26
  21310473.106    -9546732.519 8 -14274636.327 8
  21290717.293    -3557661.136 8  -4305203.671 5
  23134203.354    -8896687.880 6  -7950914.907 4
  23062115.200    -9701898.558 6  -5915409.103 4
  24051763.531    -4257781.251 6  -3334349.866 2
  23411561.953    16211369.917 5   1164256.215 3
  20540506.094   -12691295.829 8 -10118255.637 9
  22990585.529   -16872115.049 6  -9747999.389 3
 94  3 23 23 42  0.0000000  0  9  2 13 15  9  4 12 27  7 26
  21315722.922    -9519149.706 8 -14253143.238 8
  21277276.728    -3628288.282 8  -4360237.738 5
  24497935.142     1384765.52714     40097.929
  23116478.725    -8989828.395 6  -8023491.881 4
  23042820.168    -9803289.088 6  -5994414.502 4
  24033849.642    -4351919.137 6  -3407703.982 2
  23431899.274    16318239.741 5   1247531.247 3
  20545832.926   -12663313.183 8 -10096450.958 9
  22999453.630   -16825510.043 6  -9711683.871 3
 94  3 23 23 42 30.0000000  0  9  2 13 15  9  4 12 27  7 26
  21321010.841    -9491371.032 8 -14231497.515 8
  21263933.415    -3698409.956 8  -4414877.957 5
  24511046.536     1453757.237 5     93857.677 1
  23098799.154    -9082748.398 6  -8095897.038 4
  23023558.652    -9904506.859 6  -6073285.319 4
  24015924.421    -4446041.308 5  -3481045.934 2
  23452281.593    16425356.907 5   1330998.964 3
  20551235.096   -12634924.120 8 -10074329.607 9
  23008396.738   -16778513.302 6  -9675063.084 4
 94  3 23 23 43  0.0000000  0  8  2 13  9  4 12 27  7 26
  21326333.926    -9463395.548 8 -14209698.456 8
  21250684.507    -3768032.695 8  -4469129.378 5
  23081158.976    -9175464.214 6  -8168143.049 4
  23004331.433   -10005568.519 6  -6152034.486 4
  23998033.557    -4540153.968 5  -3554380.381 2
  23472706.214    16532691.503 5   1414636.194 3
  20556716.112   -12606128.901 8 -10051891.758 9
  23017412.607   -16731127.044 6  -9638138.749 4
 94  3 23 23 43 30.0000000  0  8  2 13  9  4 12 27  7 26
  21331695.864    -9435215.052 8 -14187739.637 8
  21237527.696    -3837154.578 8  -4522990.513 6
  23063554.204    -9267978.060 6  -8240231.714 4
  22985126.668   -10106486.823 6  -6230671.989 4
  23980124.136    -4634254.954 5  -3627705.703 2
  23493171.156    16640220.177 5   1498424.571 3
  20562266.109   -12576939.430 8 -10029146.696 9
  23026509.569   -16683332.737 6  -9600896.489 4
 94  3 23 23 44  0.0000000  0  8  2 13  9  4 12 27  7 26
  21337095.816    -9406819.576 8 -14165613.282 8
  21224472.304    -3905770.041 7  -4576457.030 6
  23045981.989    -9360287.554 6  -8312161.133 4
  22965949.184   -10207243.512 6  -6309183.548 4
  23962217.472    -4728338.517 6  -3701017.482 2
  23513670.335    16747933.765 5   1582357.090 3
  20567896.751   -12547372.898 8 -10006107.831 9
  23035682.829   -16635119.954 6  -9563328.129 4
 94  3 23 23 44 30.0000000  0  8  2 13  9  4 12 27  7 26
  21342539.957    -9378219.755 8 -14143327.720 8
  21211510.717    -3973890.033 8  -4629537.456 6
  23028454.263    -9452406.322 6  -8383941.941 4
  22946809.834   -10307833.170 6  -6387564.949 4
  23944321.571    -4822414.919 6  -3774323.705 2
  23534194.846    16855807.620 5   1666414.455 3
  20573588.191   -12517457.349 8  -9982797.000 9
  23044936.972   -16586500.825 6  -9525443.155 4
 94  3 23 23 45  0.0000000  0  8  2 13  9  4 12 27  7 26
  21348025.589    -9349404.731 8 -14120874.447 8
  21198642.815    -4041512.294 8  -4682230.078 6
  23010960.683    -9544333.180 6  -8455573.170 4
  22927704.570   -10408242.111 6  -6465805.540 3
  23926418.805    -4916481.911 6  -3847622.592 2
  23554753.593    16963842.368 5   1750597.243 3
  20579343.067   -12487201.435 8  -9959220.943 9
  23054260.937   -16537504.158 6  -9487263.961 4
 94  3 23 23 45 30.0000000  0  8  2 13  9  4 12 27  7 26
  21353550.465    -9320370.834 8 -14098250.638 8
  21185868.418    -4108633.949 8  -4734532.622 6
  22993502.150    -9636063.617 6  -8527051.375 4
  22908631.924   -10508455.498 6  -6543893.774 3
  23908527.611    -5010535.948 6  -3920911.342 2
  23575347.896    17072059.373 5   1834921.981 3
  20585164.407   -12456607.704 8  -9935381.667 9
  23063652.775   -16488152.084 6  -9448807.802 4
 94  3 23 23 46  0.0000000  0  8  2 13  9  4 12 27  7 26
  21359114.463    -9291120.051 8 -14075457.808 8
  21173188.637    -4175258.971 8  -4786448.164 6
  22976090.773    -9727591.421 6  -8598371.700 4
  22889601.429   -10608467.215 6  -6621824.846 3
  23890614.802    -5104580.726 5  -3994192.905 2
  23595973.467    17180452.946 5   1919384.325 3
  20591054.819   -12425667.262 8  -9911272.230 9
  23073095.608   -16438486.026 6  -9410107.015 3
 94  3 23 23 46 30.0000000  0  8  2 13  9  4 12 27  7 26
  21364722.321    -9261650.445 8 -14052494.498 7
  21160606.977    -4241387.915 8  -4837977.141 6
  22958710.485    -9818907.392 6  -8669526.948 4
  22870604.300   -10708297.091 6  -6699614.260 3
  23872725.886    -5198616.378 6  -4067467.379 2
  23616631.626    17289025.766 5   2003986.357 3
  20597007.289   -12394378.724 8  -9886891.560 9
  23082608.563   -16388529.996 6  -9371180.305 3
 94  3 23 23 47  0.0000000  0  8  2 13  9  4 12 27  7 26
  21370371.610    -9231963.660 8 -14029361.924 7
  21148116.723    -4307022.109 8  -4889120.581 6
  22941376.965    -9910003.784 6  -8740511.077 4
  22851633.553   -10807967.878 6  -6777279.641 3
  23854830.824    -5292643.594 6  -4140735.280 2
  23637332.475    17397780.364 5   2088730.030 2
  20603029.939   -12362736.679 8  -9862235.406 9
  23092171.312   -16338289.500 6  -9332031.852 3
 94  3 23 23 47 30.0000000  0  8  2 13  9  4 12 27  7 26
  21376062.480    -9202072.116 8 -14006069.809 7
  21135721.534    -4372163.970 8  -4939880.411 6
  22924083.437   -10000872.156 6  -8811317.543 4
  22832697.552   -10907493.561 6  -6854831.991 3
  23836953.780    -5386664.351 6  -4213998.106 2
  23658058.597    17506699.381 5   2173601.813 2
  20609113.508   -12330753.817 8  -9837313.693 9
  23101784.427   -16287756.773 6  -9292655.734 3
 94  3 23 23 48  0.0000000  0  8  2 13  9  4 12 27  7 26
  21381783.719    -9171990.151 8 -13982629.316 7
  21123416.913    -4436817.583 8  -4990259.804 6
  22906839.555   -10091500.827 6  -8881937.268 4
  22813787.184   -11006881.903 6  -6932277.299 3
  23819053.023    -5480682.399 6  -4287258.861 2
  23678813.588    17615761.456 5   2258585.037 2
  20615260.182   -12298457.644 8  -9812147.841 9
  23111460.049   -16236917.737 5  -9253040.990 3
 94  3 23 23 48 30.0000000  0  8  2 13  9  4 12 27  7 26
  21387543.841    -9141725.766 8 -13959046.674 7
  21111206.246    -4500983.605 8  -5040259.238 6
  22889637.883   -10181897.013 6  -8952375.790 4
  22794898.340   -11106133.666 6  -7009616.195 3
  23801161.259    -5574697.372 6  -4360517.222 2
  23699596.701    17724978.173 5   2343688.854 2
  20621462.768   -12265860.454 8  -9786747.429 9
  23121190.743   -16185761.409 6  -9213178.947 4
 94  3 23 23 49  0.0000000  0  8  2 13  9  4 12 27  7 26
  21393336.581    -9111286.837 8 -13935328.042 7
  21099091.633    -4564660.060 8  -5089877.207 6
  22872480.911   -10272073.521 6  -9022643.129 4
  22776040.435   -11205232.330 6  -7086835.817 4
  23783270.275    -5668706.770 6  -4433771.252 2
  23720398.520    17834336.464 5   2428902.874 2
  20627726.482   -12232959.453 8  -9761110.283 9
  23130990.239   -16134274.831 6  -9173059.549 4
 94  3 23 23 49 30.0000000  0  8  2 13  9  4 12 27  7 26
  21399159.660    -9080686.001 8 -13911483.233 7
  21087064.139    -4627848.907 8  -5139115.212 6
  22855360.453   -10362038.740 7  -9092745.879 4
  22757213.049   -11304161.879 6  -7163923.627 4
  23765382.078    -5762711.971 6  -4507022.017 2
  23741238.113    17943816.339 5   2514211.731 2
  20634042.540   -12199758.034 8  -9735239.044 9
  23140849.933   -16082472.645 6  -9132694.283 3
 94  3 23 23 50  0.0000000  0  8  2 13  9  4 12 27  7 26
  21405013.468    -9049931.863 8 -13887518.983 7
  21075132.130    -4690551.133 8  -5187973.988 6
  22838275.191   -10451804.209 7  -9162692.960 4
  22738422.028   -11402911.589 6  -7240871.321 4
  23747484.319    -5856713.339 6  -4580269.786 2
  23762093.955    18053413.078 5   2599611.573 2
  20640418.825   -12166251.194 8  -9709129.816 9
  23150766.918   -16030358.184 6  -9092085.652 4
 94  3 23 23 50 30.0000000  0  8  2 13  9  4 12 27  7 26
  21410894.916    -9019025.006 8 -13863435.704 7
  21063297.223    -4752766.142 8  -5236453.145 6
  22821229.861   -10541390.735 7  -9232500.564 4
  22719669.020   -11501475.961 7  -7317674.595 4
  23729615.519    -5950709.597 6  -4653513.561 2
  23782970.332    18163131.005 5   2685105.890 2
  20646856.928   -12132412.896 8  -9682762.308 9
  23160738.524   -15977939.341 6  -9051239.822 4
 94  3 23 23 51  0.0000000  0  8  2 13  9  4 12 27  7 26
  21416806.793    -8987963.833 8 -13839232.198 7
  21051546.108    -4814497.567 8  -5284555.526 6
  22804211.243   -10630791.058 7  -9302163.104 4
  22700944.973   -11599860.178 7  -7394337.464 4
  23711711.794    -6044703.484 6  -4726755.507 2
  23803874.081    18272956.455 5   2770683.989 2
  20653357.778   -12098250.827 8  -9656142.512 9
  23170772.758   -15925222.670 6  -9010161.956 3
 94  3 23 23 51 30.0000000  0  8  2 13  9  4 12 27  7 26
  21422748.020    -8956734.487 8 -13814897.651 7
  21039891.346    -4875739.518 8  -5332276.484 6
  22787242.181   -10719985.841 7  -9371665.511 4
  22682257.140   -11698051.549 6  -7470850.085 4
  23693829.653    -6138688.389 6  -4799990.434 2
  23824799.984    18382912.521 5   2856363.819 2
  20659923.862   -12063758.323 8  -9629265.230 9
  23180863.712   -15872206.522 5  -8968850.695 3
 94  3 23 23 51 59.9990000  0  8  2 13  9  4 12 27  7 26
  21428724.892    -8925327.054 8 -13790424.354 7
  21028332.129    -4936483.089 8  -5379609.068 6
  22770313.260   -10808964.269 7  -9440999.306 4
  22663615.266   -11796041.330 6  -7547205.601 4
  23675959.115    -6232653.418 6  -4873209.899 2
  23845746.303    18493022.788 5   2942163.891 2
  20666548.856   -12028935.618 8  -9602130.650 9
  23191014.115   -15818874.069 6  -8927292.993 3
 94  3 23 23 52 29.9990000  0  8  2 13  9  4 12 27  7 26
  21434736.870    -8893729.229 8 -13765802.679 7
  21016870.433    -4996733.793 8  -5426557.594 6
  22753417.227   -10897724.581 7  -9510163.120 4
  22644999.893   -11893841.317 6  -7623413.253 4
  23658066.242    -6326605.584 6  -4946419.347 2
  23866737.891    18603304.337 5   3028097.306 2
  20673237.166   -11993787.458 8  -9574742.469 9
  23201216.802   -15765235.752 6  -8885496.940 3
 94  3 23 23 52 59.9990000  0  8  2 13  9  4 12 27  7 26
  21440786.802    -8861938.796 8 -13741030.934 7
  21005495.258    -5056492.089 8  -5473122.446 6
  22736574.437   -10986252.963 6  -9579146.258 4
  22626426.281   -11991453.914 7  -7699474.888 4
  23640204.877    -6420543.287 6  -5019617.519 2
  23887746.537    18713740.556 5   3114151.316 2
  20679986.153   -11958330.534 8  -9547113.699 9
  23211480.736   -15711301.238 6  -8843470.083 3
 94  3 23 23 53 29.9990000  0  8  2 13  9  4 12 27  7 26
  21446871.090    -8829960.533 8 -13716112.831 7
  20994217.156    -5115756.251 8  -5519302.264 6
  22719771.699   -11074554.775 6  -9647952.815 4
  22607889.424   -12088871.404 6  -7775384.514 4
  23622328.882    -6514463.683 6  -5092802.162 2
  23908786.242    18824323.589 5   3200319.679 2
  20686792.312   -11922561.371 8  -9519241.611 9
  23221799.922   -15657066.090 5  -8801209.009 3
 94  3 23 23 53 59.9990000  0  8  2 13  9  4 12 27  7 26
  21452997.139    -8797792.854 8 -13691047.121 7
  20983035.257    -5174524.579 8  -5565095.719 6
  22703004.547   -11162632.409 6  -9716584.685 5
  22589385.634   -12186102.734 6  -7851149.054 4
  23604461.162    -6608364.461 6  -5165971.537 2
  23929862.101    18935031.096 5   3286585.029 2
  20693650.844   -11886495.071 8  -9491138.010 9
  23232182.695   -15602532.816 6  -8758715.590 3
 94  3 23 23 54 29.9990000  0  8  2 13  9  4 12 27  7 26
  21459151.339    -8765431.226 8 -13665830.285 7
  20971946.444    -5232799.010 8  -5610504.324 6
  22686289.409   -11250489.750 7  -9785044.864 5
  22570919.558   -12283152.337 6  -7926772.010 4
  23586597.908    -6702246.482 6  -5239126.315 2
  23950944.886    19045831.323 5   3372922.689 2
  20700571.493   -11850139.024 8  -9462808.604 9
  23242609.656   -15547719.500 6  -8716003.923 3
 94  3 23 23 54 59.9990000  0  8  2 13  9  4 12 27  7 26
  21465345.740    -8732888.642 8 -13640472.446 7
  20960948.108    -5290585.417 8  -5655532.657 6
  22669608.656   -11338141.153 6  -9853344.640 4
  22552482.022   -12380023.845 6  -8002256.183 4
  23568733.036    -6796114.582 6  -5312270.213 2
  23972043.829    19156701.313 5   3459314.623 2
  20707545.025   -11813503.470 8  -9434261.421 9
  23253095.407   -15492631.279 6  -8673078.102 3
 94  3 23 23 55 29.9990000  0  8  2 13  9  4 12 27  7 26
  21471572.190    -8700164.273 7 -13614972.940 7
  20950045.525    -5347886.787 8  -5700183.010 6
  22652969.845   -11425591.288 7  -9921487.552 4
  22534084.238   -12476712.718 6  -8077598.051 4
  23550869.093    -6889970.617 6  -5385404.706 2
  23993155.154    19267635.440 5   3545756.559 2
  20714565.715   -11776598.623 8  -9405504.389 9
  23263628.525   -15437280.811 6  -8629947.900 3
 94  3 23 23 55 59.9990000  0  8  2 13  9  4 12 27  7 26
  21477831.796    -8667248.977 7 -13589324.686 7
  20939230.692    -5404703.226 8  -5744455.481 6
  22636372.226   -11512829.684 7  -9989465.450 4
  22515719.162   -12573219.520 7  -8152798.034 4
  23533010.816    -6983813.594 6  -5458528.986 2
  24014275.653    19378637.688 4   3632251.655 2
  20721638.298   -11739432.908 8  -9376544.088 9
  23274201.486   -15381686.814 6  -8586627.948 3
 94  3 23 23 56 29.9990000  0  8  2 13  9  4 12 27  7 26
  21484132.055    -8634142.969 7 -13563527.799 7
  20928516.859    -5461030.664 9  -5788346.952 6
  22619812.530   -11599840.491 7 -10057266.064 4
  22497389.341   -12669532.719 7  -8227847.188 4
  23515166.269    -7077638.481 6  -5531639.228 2
  24035416.148    19489727.966 5   3718815.256 2
  20728763.945   -11701995.159 8  -9347371.817 9
  23284828.109   -15325850.497 5  -8543119.207 3
 94  3 23 23 56 59.9990000  0  8  2 13  9  4 12 27  7 26
  21490461.753    -8600843.622 7 -13537580.276 7
  20917888.857    -5516867.505 8  -5831856.157 6
  22603306.107   -11686602.974 7 -10124873.144 4
  22479102.991   -12765642.213 7  -8302737.634 4
  23497305.174    -7171442.536 6  -5604733.236 2
  24056584.943    19600928.691 5   3805464.916 2
  20735940.977   -11664287.026 8  -9317988.854 9
  23295502.489   -15269761.947 6  -8499413.922 3
 94  3 23 23 57 29.9990000  0  8  2 13  9  4 12 27  7 26
  21496841.786    -8567351.761 7 -13511482.708 7
  20907356.428    -5572215.848 8  -5874984.698 6
  22586841.205   -11773099.131 7 -10192272.687 4
  22460853.425   -12861538.580 7  -8377461.977 4
  23479469.801    -7265226.703 6  -5677811.752 2
  24077761.622    19712244.786 5   3892204.535 2
  20743167.534   -11626308.856 8  -9288395.464 9
  23306225.796   -15213420.106 6  -8455511.233 3
 94  3 23 23 57 59.9990000  0  8  2 13  9  4 12 27  7 26
  21503249.760    -8533681.298 7 -13485245.977 7
  20896921.133    -5627074.499 8  -5917731.630 6
  22570431.855   -11859322.721 7 -10259459.841 4
  22442645.350   -12957217.873 7  -8452017.158 4
  23461615.601    -7358988.410 6  -5750872.745 2
  24098963.605    19823679.256 5   3979036.328 2
  20750445.326   -11588061.241 8  -9258592.130 9
  23316995.990   -15156814.241 6  -8411402.825 3
 94  3 23 23 58 29.9990000  0  8  2 13  9  4 12 27  7 26
  21509691.940    -8499839.329 7 -13458875.634 7
  20886573.256    -5681442.886 9  -5960096.541 6
  22554072.331   -11945284.849 7 -10326443.293 4
  22424483.293   -13052663.166 7  -8526389.988 4
  23443784.756    -7452725.992 6  -5823914.946 2
  24120185.493    19935221.149 5   4065951.871 2
  20757773.902   -11549538.276 8  -9228574.239 9
  23327816.249   -15099941.093 6  -8367086.123 3
 94  3 23 23 58 59.9990000  0  8  2 13  9  4 12 27  7 26
  21516165.808    -8465821.510 7 -13432368.243 7
  20876318.675    -5735317.492 8  -6002076.746 6
  22537768.687   -12030999.230 7 -10393233.663 4
  22406366.835   -13147861.080 7  -8600570.051 4
  23425945.695    -7546434.675 6  -5896934.665 2
  24141435.262    20046852.071 5   4152936.782 2
  20765164.656   -11510731.317 8  -9198335.045 9
  23338691.340   -15042806.039 6  -8322565.361 3
 94  3 23 23 59 29.9990000  0  8  2 13  9  4 12 27  7 26
  21522671.814    -8431624.753 7 -13405721.431 7
  20866162.966    -5788695.105 8  -6043669.648 6
  22521497.542   -12116479.284 7 -10459841.453 5
  22388300.682   -13242813.907 7  -8674559.107 5
  23408125.312    -7640109.908 6  -5969928.281 2
  24162694.535    20158553.349 5   4239976.508 2
  20772598.729   -11471634.746 8  -9167870.196 9
  23349608.702   -14985418.022 5  -8277847.530 3
